GFSMW_sfc_temp_000.txt.gz
Temp
77 78 78 79 78 77 75 75 74 74 74 73 72 72 72 72 73 73 74 74 74 74 73 72 72 71 70 71 70 69 68 68 68 67 68 69 70 71 72 74 75 75 76
74 75 76 78 76 75 75 74 75 74 75 73 73 73 72 73 74 74 74 75 75 74 73 72 71 71 70 70 70 68 67 68 68 66 63 62 68 70 72 72 73 71 73
74 74 75 76 77 74 74 74 74 75 75 74 72 72 73 73 72 72 73 74 74 74 73 72 72 71 70 69 69 69 68 67 68 68 65 61 61 63 69 70 70 69 68
77 76 75 75 77 75 76 75 75 75 74 73 72 72 71 70 71 71 72 72 73 73 73 72 71 70 69 69 69 70 68 67 66 67 67 67 66 61 61 68 68 69 70
77 76 77 78 78 77 75 75 74 74 73 73 74 73 71 71 69 68 70 70 70 71 72 71 70 70 69 68 68 69 68 67 66 66 65 65 64 64 61 59 64 67 67
77 78 78 78 77 78 76 75 72 73 73 73 73 73 72 69 67 67 67 68 68 68 69 70 70 69 68 68 69 69 68 68 67 67 66 64 62 62 62 60 61 61 66
77 76 75 76 76 74 75 75 74 73 73 73 73 74 73 69 68 67 67 65 66 67 67 68 68 68 68 68 68 68 68 68 67 67 65 65 64 64 63 61 60 59 63
78 77 77 77 76 76 76 76 74 74 73 74 74 74 72 70 68 67 66 66 67 68 68 68 68 68 68 69 69 68 68 68 67 67 65 65 65 64 64 62 60 57 58
78 77 78 77 77 77 76 76 74 74 73 74 73 71 70 67 67 66 66 67 67 68 68 68 68 68 68 69 69 68 68 68 68 68 67 66 67 66 64 63 61 59 56
78 78 78 78 78 79 79 77 77 75 74 74 72 71 69 68 67 66 66 65 66 68 68 68 68 68 68 69 68 68 68 68 68 68 67 66 66 66 65 64 62 60 58
77 77 77 79 79 80 80 78 77 76 74 73 72 71 69 68 67 67 67 67 66 67 67 67 67 68 68 68 67 67 68 67 67 67 66 67 66 65 64 63 63 60 59
76 77 77 78 78 78 80 79 78 77 77 74 72 71 71 69 70 67 68 67 67 66 67 67 67 68 68 68 67 67 69 67 67 67 67 67 68 65 65 63 62 61 60
70 74 75 76 76 77 78 79 79 78 78 75 70 70 69 69 67 67 67 67 67 66 67 67 67 67 67 67 67 67 67 67 67 67 66 66 66 64 64 62 61 61 62
70 71 72 74 76 76 76 77 78 79 77 74 70 69 68 69 68 67 67 67 67 67 67 67 67 67 67 67 68 67 67 66 67 67 67 66 65 64 64 63 62 62 61
68 70 72 72 71 71 72 75 77 76 75 72 71 71 70 70 68 66 67 67 67 68 67 67 67 67 68 71 68 67 67 67 67 67 67 66 66 65 64 63 63 61 60
71 71 71 71 70 71 71 74 74 75 74 72 71 72 69 67 66 66 66 66 67 66 67 66 67 67 70 66 66 68 68 68 67 67 66 65 65 65 64 64 64 63 62
70 68 69 70 71 70 71 71 73 73 71 71 71 70 67 66 66 66 66 66 65 66 66 66 67 67 68 63 63 66 67 66 66 64 63 63 64 64 64 63 62 63 62
68 68 69 70 70 71 72 71 71 71 70 70 70 68 67 66 65 65 64 65 65 65 66 66 66 66 67 62 61 64 66 65 65 63 63 62 62 63 62 62 62 62 62
70 70 71 70 68 69 70 70 68 69 69 69 68 67 68 67 67 66 65 67 66 65 65 66 66 65 65 60 59 61 64 64 63 63 62 61 61 59 58 61 60 59 60
70 70 71 70 70 68 69 68 67 68 68 68 68 68 68 66 66 67 67 66 65 65 65 65 64 61 63 59 58 59 62 62 62 60 60 58 58 55 54 59 57 56 58
70 71 70 69 68 67 67 66 66 67 68 68 69 69 68 67 67 65 64 63 64 64 64 63 62 63 63 64 57 55 61 62 60 60 61 59 54 52 52 51 56 55 56
70 71 69 69 67 67 68 65 65 66 67 67 67 66 66 67 64 63 62 63 62 62 62 63 61 60 63 56 56 53 56 58 60 59 59 56 51 50 51 53 52 51 54
67 68 69 67 66 66 67 64 63 66 66 65 64 65 65 65 64 63 62 62 62 62 62 62 62 63 58 56 52 52 51 54 58 57 55 52 49 48 52 52 53 52 53
65 66 66 63 62 63 64 64 65 65 64 63 63 64 64 63 63 62 63 62 61 60 61 62 61 60 56 55 56 57 56 54 56 54 54 53 54 53 54 53 52 52 52
63 64 63 62 62 63 63 64 65 65 63 63 62 62 62 63 63 62 60 61 59 57 61 61 61 58 56 56 52 52 55 56 52 51 54 54 55 52 52 52 50 51 52
63 62 61 62 62 62 63 63 65 66 64 63 61 61 61 62 61 54 52 46 45 45 44 46 53 55 50 46 45 43 43 41 42 52 54 52 50 51 50 50 50 51 51

GFSMW_sfc_temp_003.txt.gz
Temp
85 86 86 87 86 85 84 83 82 82 84 84 83 83 84 84 85 86 84 83 83 83 81 81 81 81 81 81 79 80 78 81 80 78 82 82 82 82 84 85 85 83 85
83 83 85 86 86 84 83 83 82 83 81 85 83 85 84 85 86 86 84 84 84 83 82 81 81 80 82 79 78 77 79 80 80 77 75 76 79 84 84 83 83 81 84
82 83 83 85 86 84 82 82 82 83 83 84 84 82 83 83 83 84 84 84 84 83 82 82 82 80 81 82 79 78 76 78 78 76 76 74 74 76 83 81 82 80 82
84 85 84 84 85 84 84 83 83 83 84 83 82 81 83 82 85 84 85 84 83 83 82 81 81 80 82 79 80 80 79 77 77 79 78 76 75 74 74 82 82 82 81
85 84 85 85 87 86 85 84 83 82 84 82 83 82 81 85 85 83 80 81 81 82 82 81 80 79 81 78 78 78 77 79 78 78 78 76 77 74 74 72 77 81 82
86 86 87 87 86 87 86 84 82 81 82 82 82 81 81 82 82 81 81 82 82 82 80 81 80 80 80 78 79 78 77 77 77 77 77 77 76 77 75 73 73 73 78
86 86 85 85 84 84 84 84 82 80 81 81 82 81 81 82 81 81 81 80 81 81 79 79 78 80 78 78 78 77 77 77 77 76 78 78 77 78 77 74 74 72 77
89 87 86 86 84 84 83 83 82 81 81 81 81 82 82 84 84 82 83 82 82 82 81 79 80 79 79 78 78 80 80 78 78 77 77 78 79 78 77 75 73 71 74
88 87 87 87 85 84 83 83 82 82 82 82 82 81 82 82 83 81 80 82 80 82 80 80 79 79 78 78 78 80 78 78 77 78 78 78 80 80 79 76 75 72 68
87 89 88 87 87 87 86 85 84 83 84 83 83 83 82 82 82 81 78 79 80 80 79 79 79 79 78 78 77 79 79 77 79 80 77 76 80 79 76 75 77 74 72
86 89 88 88 88 88 88 86 85 84 84 84 83 83 83 82 82 78 78 73 76 78 78 78 78 79 78 78 77 77 78 77 77 77 76 76 76 77 79 77 75 75 73
86 87 87 87 88 87 88 88 87 87 86 85 83 82 82 76 76 78 73 75 73 77 78 78 78 78 79 79 77 77 79 77 77 77 77 76 79 75 75 77 73 74 74
84 86 87 85 86 87 86 88 88 89 89 86 84 82 80 79 79 71 76 72 71 72 77 77 76 77 78 78 78 77 77 77 77 77 77 77 76 74 77 75 75 76 72
82 83 84 84 85 85 84 85 88 90 89 88 85 82 80 80 73 72 68 70 69 71 71 73 75 77 78 78 79 78 76 77 78 77 77 77 76 75 75 75 73 73 73
80 82 82 82 82 83 82 84 86 87 88 85 84 81 80 79 74 68 67 67 67 67 70 71 73 76 77 81 77 77 77 77 77 78 77 78 75 71 71 75 74 72 72
80 82 83 82 81 82 81 82 83 85 85 82 82 81 78 74 72 71 68 67 67 67 70 71 71 72 75 69 67 73 77 77 76 76 78 77 70 69 66 65 65 67 69
82 82 82 82 82 83 83 82 82 84 82 80 80 78 75 72 72 72 71 68 65 66 69 71 71 73 73 65 64 66 77 77 76 72 73 75 78 70 74 69 65 64 63
83 82 84 82 81 85 85 84 83 80 79 78 78 76 74 73 72 72 71 69 67 69 71 72 73 73 75 62 61 63 73 69 71 74 74 73 73 73 69 71 71 72 72
83 83 84 84 81 82 82 81 80 80 78 77 76 74 74 73 72 72 71 71 70 71 70 72 72 72 72 60 60 64 68 68 66 71 73 70 70 62 59 66 67 69 70
83 81 82 82 82 80 82 80 79 78 77 77 76 75 74 73 72 73 72 72 72 69 72 71 72 67 71 58 58 63 63 64 64 70 68 60 64 56 56 66 67 66 68
80 82 83 81 80 80 81 79 78 77 78 77 75 74 74 74 75 74 73 72 71 71 70 69 71 70 69 67 57 55 65 65 68 72 73 70 55 53 53 52 66 63 61
81 84 81 80 79 80 81 77 75 75 74 75 71 71 73 75 74 72 71 71 71 70 69 70 72 70 73 57 57 54 55 61 69 72 73 67 52 50 52 56 53 52 55
78 82 82 78 77 77 78 73 71 70 71 70 69 70 71 70 71 71 70 71 71 70 70 73 71 71 67 67 53 52 52 55 67 71 58 52 50 49 52 56 54 53 65
77 79 79 77 73 73 72 72 72 73 71 69 69 71 71 71 71 74 73 73 73 65 63 65 71 69 70 69 68 66 65 56 64 59 66 58 55 53 60 60 61 65 64
75 77 77 76 74 73 73 73 73 73 72 71 72 71 73 71 72 69 69 72 69 62 69 72 76 74 71 69 61 62 68 70 59 61 68 67 67 66 65 64 64 64 64
74 74 74 71 70 72 72 72 73 74 73 72 72 72 72 71 72 67 62 46 46 45 45 45 62 66 52 47 46 46 45 41 44 63 66 65 64 64 64 63 63 64 60

GFSMW_sfc_temp_006.txt.gz
Temp
94 94 93 94 94 93 90 89 88 88 85 87 89 89 90 91 92 93 90 89 89 89 88 90 87 87 86 87 85 86 84 86 89 84 89 88 88 89 92 92 91 89 91
93 92 93 94 94 92 90 89 88 87 86 90 89 92 91 94 92 94 90 90 90 88 88 87 88 87 90 85 83 83 84 87 88 83 83 82 84 88 91 90 89 87 91
92 92 91 92 94 91 90 89 87 87 86 88 89 88 89 89 90 91 89 89 89 88 87 87 88 86 86 89 84 84 81 84 86 82 82 80 81 83 87 85 88 86 87
94 94 92 92 93 92 92 90 88 87 88 87 89 86 88 89 92 92 94 92 90 89 88 87 86 84 88 85 85 87 83 81 83 86 85 82 80 79 81 86 86 89 89
95 93 94 93 94 94 93 92 89 87 88 87 87 89 86 92 93 93 89 87 88 88 89 87 85 84 86 84 84 83 81 85 83 84 85 83 84 82 79 78 83 87 88
96 95 96 95 94 95 94 92 88 86 87 88 87 86 87 87 91 89 89 90 91 90 87 87 85 85 85 83 84 82 81 81 82 84 83 83 82 83 81 79 79 80 84
96 95 93 93 92 92 92 92 89 86 87 87 87 86 86 86 86 87 89 89 90 91 87 85 84 86 84 84 83 81 82 81 82 80 84 86 84 85 83 81 80 80 83
99 97 95 94 92 92 92 91 89 86 87 87 86 87 87 90 90 89 92 91 91 91 89 85 85 85 85 84 83 84 84 83 82 80 81 84 85 86 84 82 79 77 80
98 98 96 96 94 93 92 91 89 88 88 89 87 86 87 87 90 90 89 91 89 92 88 86 85 85 85 83 82 84 82 82 82 82 81 82 86 87 86 85 82 78 74
99 100 98 97 96 96 95 93 91 89 89 90 89 88 88 87 88 89 87 87 89 87 87 85 85 84 83 83 81 83 83 81 83 84 82 81 85 85 86 85 84 83 79
98 99 100 100 98 98 97 95 93 91 90 91 90 89 89 89 88 88 86 86 86 85 84 83 83 84 82 82 80 80 82 81 80 81 80 79 80 83 85 86 85 83 82
100 100 101 100 98 97 98 97 96 94 93 93 90 89 89 89 88 85 84 81 83 83 82 81 80 80 83 82 80 80 82 81 80 80 80 80 83 80 80 83 79 81 80
98 98 100 97 97 97 97 98 98 98 98 94 92 90 89 89 88 85 84 83 82 77 77 76 76 78 77 82 81 81 81 81 81 81 80 80 81 79 81 80 80 82 81
94 95 96 95 95 96 95 95 98 100 99 98 94 91 89 89 87 86 78 77 79 76 71 73 73 77 80 80 80 81 81 80 81 81 80 80 80 79 78 79 78 78 78
92 92 93 93 92 92 93 93 96 96 98 95 95 92 90 89 85 82 79 77 77 77 72 73 74 77 78 78 80 81 81 79 80 81 81 82 80 75 75 80 79 77 77
92 92 92 92 91 91 91 92 92 94 94 92 92 92 88 86 83 79 77 78 76 75 73 73 75 75 78 73 70 76 81 80 79 79 80 79 74 72 67 66 66 69 71
93 92 92 93 92 92 91 91 90 92 91 89 89 88 86 83 80 79 78 76 75 74 77 77 76 75 77 67 67 68 81 81 80 78 77 76 74 71 79 69 65 65 64
95 93 96 94 92 95 95 93 91 88 88 86 86 86 84 81 80 78 76 76 77 76 76 77 76 77 80 65 63 66 78 78 79 78 76 74 69 70 75 76 76 75 76
97 94 96 92 90 93 92 90 89 87 86 85 84 84 83 80 78 76 76 78 77 77 78 79 78 77 78 60 61 65 80 79 76 71 72 71 69 64 62 71 72 73 74
95 93 93 91 91 91 92 89 88 86 85 85 84 83 82 81 78 77 77 76 77 78 80 78 78 74 76 59 59 64 81 74 75 67 68 62 66 59 58 69 71 70 73
91 91 90 89 88 90 91 88 88 87 88 87 85 82 81 80 79 77 75 76 76 75 76 76 78 76 70 74 56 57 73 78 73 75 72 74 59 56 54 54 71 68 65
90 92 89 87 89 90 89 86 85 87 86 85 82 78 78 78 80 75 73 71 72 73 74 73 74 76 79 61 56 55 58 65 76 73 81 66 54 53 53 56 56 55 56
91 92 89 85 86 87 87 85 82 82 82 78 75 75 77 76 75 72 70 72 74 77 73 70 76 72 78 67 54 53 53 56 73 81 60 54 52 51 52 55 56 53 70
87 89 87 85 82 82 83 82 80 80 80 76 76 74 73 74 74 74 74 75 76 75 73 74 69 68 69 73 73 62 66 57 67 59 69 63 57 52 57 62 61 71 72
85 87 85 84 80 80 80 81 80 79 77 74 75 74 75 73 74 71 68 78 70 70 79 76 70 69 69 74 66 67 78 78 65 69 75 73 74 73 73 72 72 71 71
82 82 82 81 80 80 79 80 78 78 77 76 77 79 80 79 77 75 73 46 48 46 46 46 60 65 54 48 46 45 45 48 49 68 74 74 74 72 73 71 71 71 66

GFSMW_sfc_temp_009.txt.gz
Temp
98 99 98 99 98 96 93 92 90 90 91 90 83 89 91 92 94 96 88 90 90 90 88 89 87 89 87 83 87 87 86 87 89 85 88 89 89 90 92 92 92 91 92
98 97 97 98 97 95 93 91 90 89 89 90 88 92 88 93 96 95 93 92 86 90 88 88 91 90 90 87 85 83 84 88 88 83 84 82 83 85 92 90 90 88 92
98 96 95 96 97 94 93 91 90 89 89 88 89 90 90 93 92 94 92 93 90 90 89 88 87 88 87 90 85 85 83 83 87 84 82 80 79 82 86 86 88 87 88
100 99 96 95 97 95 95 93 91 90 90 89 90 86 87 88 93 94 96 94 90 91 91 89 89 86 88 86 86 86 83 82 84 87 86 83 81 79 80 83 87 88 88
101 99 98 97 98 97 96 94 91 89 90 88 87 90 86 93 95 96 93 92 90 91 92 90 88 86 87 85 84 84 81 85 83 86 86 83 84 82 80 78 83 88 89
102 101 101 99 97 99 97 95 90 88 89 89 87 86 87 88 93 92 92 92 92 91 90 89 87 86 86 86 85 83 83 81 82 84 84 85 83 83 82 80 80 82 85
103 101 99 98 97 96 96 95 91 87 89 89 88 88 88 89 88 90 91 91 92 93 88 88 85 86 85 86 85 83 82 82 82 81 84 85 85 86 84 82 81 80 84
104 103 100 99 97 96 95 94 91 88 89 89 88 88 88 91 92 90 93 92 93 94 89 87 87 86 86 85 84 84 84 84 83 81 81 84 84 86 86 83 75 70 72
104 103 102 100 98 96 95 93 92 89 90 90 89 88 88 88 91 90 90 93 91 94 91 88 86 86 86 85 83 83 83 82 83 82 81 82 86 87 87 86 81 72 67
104 104 103 101 100 99 97 96 94 91 91 91 91 90 89 89 90 91 90 90 91 90 89 87 86 85 85 84 82 83 83 81 83 84 83 82 84 85 86 79 83 84 80
104 105 104 103 101 101 99 97 95 93 92 92 91 91 90 90 90 90 90 90 90 89 88 85 85 84 82 82 81 81 83 82 80 81 80 81 81 82 85 86 85 83 82
106 106 106 104 102 101 100 98 97 95 94 94 92 91 91 91 90 89 90 89 87 88 86 85 83 84 80 75 81 80 82 81 80 80 79 80 83 79 79 82 79 80 80
106 106 106 104 103 101 100 101 100 100 99 95 94 92 91 91 90 89 90 88 87 86 86 85 82 81 82 82 82 81 76 81 82 81 81 80 80 78 81 79 79 80 80
101 104 104 104 104 102 98 99 101 102 101 99 97 92 91 91 91 90 88 89 86 85 84 83 81 81 81 81 82 81 81 81 81 81 82 81 80 78 77 77 76 77 77
101 100 101 101 99 99 97 98 101 101 102 98 97 94 92 92 91 89 88 87 86 85 83 83 80 79 83 85 80 82 81 78 79 81 81 81 80 76 75 78 74 74 76
103 100 99 100 98 98 98 97 97 100 100 96 96 95 92 90 89 88 87 84 83 83 82 80 77 78 83 74 70 78 81 81 79 79 81 80 76 76 69 69 67 67 69
103 101 99 99 99 98 97 97 96 99 97 95 95 95 92 89 88 87 84 81 79 81 80 79 77 77 80 65 67 69 82 82 81 79 78 80 83 76 79 69 65 64 64
104 103 103 100 98 101 100 99 97 94 94 92 92 93 91 89 87 84 81 79 79 79 79 77 78 78 79 65 65 68 80 80 79 81 80 78 79 78 72 73 69 70 75
107 105 103 101 97 99 98 96 94 92 92 90 90 90 90 87 86 82 81 79 77 77 78 77 75 76 79 63 62 68 78 76 78 81 81 80 75 69 63 70 67 68 71
107 103 101 101 97 97 97 93 92 90 89 90 89 89 88 86 84 83 79 79 79 78 81 79 75 73 78 60 60 66 73 74 76 73 76 64 69 58 59 69 69 70 73
102 101 99 95 94 96 95 90 90 89 91 91 90 88 86 85 84 81 79 79 77 76 74 74 76 79 77 75 57 58 72 81 82 76 76 76 58 57 55 56 71 69 67
97 97 94 92 93 94 92 89 88 90 90 89 87 85 84 85 81 77 79 77 75 74 75 75 77 81 78 63 57 56 57 64 76 76 76 68 56 57 55 57 59 58 58
93 95 92 89 91 91 91 88 87 88 87 86 84 82 79 79 79 78 75 74 74 73 76 75 76 76 74 71 56 54 55 56 68 67 55 55 54 54 54 54 58 56 69
91 91 90 87 86 89 89 87 86 86 84 80 76 76 76 76 76 77 76 73 74 76 78 76 74 74 74 75 74 65 68 57 62 60 68 65 62 56 60 63 62 68 71
89 89 86 84 83 85 84 85 84 84 82 80 77 76 77 76 73 72 72 75 72 71 79 78 77 77 75 69 64 63 68 76 68 72 76 74 74 75 72 69 67 67 73
85 84 84 83 83 83 82 82 82 83 81 79 80 79 79 76 74 73 68 46 49 45 45 48 62 71 54 47 46 46 48 51 53 72 74 76 77 76 76 73 73 74 71

GFSMW_sfc_temp_012.txt.gz
Temp
96 97 97 98 96 93 90 88 87 87 88 86 84 85 84 84 87 86 87 84 87 87 86 84 83 82 81 78 80 81 78 79 79 77 76 77 81 81 82 81 81 81 84
96 95 95 97 96 92 89 87 86 86 86 86 84 85 85 86 85 87 84 86 86 85 84 82 81 81 81 80 79 79 76 77 79 75 73 70 74 80 82 80 80 80 81
95 93 94 94 95 91 88 87 85 85 85 86 84 82 80 85 83 86 85 86 86 84 80 83 83 82 82 79 79 79 79 74 77 79 74 69 67 72 77 78 77 79 77
97 96 95 93 95 92 91 88 86 85 86 85 84 82 83 82 85 83 86 86 86 86 86 84 83 81 80 79 79 80 77 77 73 75 79 77 75 69 69 75 77 78 79
99 97 95 94 95 95 92 89 86 85 85 84 84 83 83 85 86 87 87 82 82 85 85 84 83 80 80 80 80 78 77 77 75 74 75 75 74 74 70 68 71 75 77
100 98 98 96 94 96 93 90 85 84 85 84 83 83 81 82 85 85 84 85 85 85 86 84 81 80 80 79 79 79 80 77 76 75 75 75 73 71 72 69 70 71 74
101 98 97 94 93 92 91 90 86 83 84 85 83 83 83 82 83 85 85 84 84 84 82 82 80 80 80 81 79 77 78 77 76 76 75 75 75 75 74 72 70 69 72
103 101 98 96 92 92 91 90 86 83 85 85 83 83 84 86 86 86 86 86 85 86 82 82 81 81 79 79 78 78 77 77 76 76 76 75 75 76 74 73 70 67 68
102 101 99 98 94 92 91 89 86 85 85 86 84 83 83 84 86 85 85 87 84 88 82 82 81 81 79 79 78 77 75 78 77 76 75 75 75 75 76 74 73 69 64
102 102 101 99 97 96 94 92 89 86 86 86 86 86 85 84 85 84 84 84 85 85 82 82 82 80 79 77 76 75 77 75 76 76 75 74 75 76 75 75 73 72 69
103 103 102 101 98 97 94 93 91 87 86 86 86 86 86 86 85 85 85 84 84 83 82 81 80 80 79 78 76 75 76 75 74 75 75 75 76 74 74 75 74 72 71
102 104 104 102 99 96 95 94 93 91 89 87 86 86 86 86 85 84 85 85 84 84 82 82 80 80 78 78 75 75 77 76 74 74 74 74 78 73 74 73 72 72 73
103 102 105 100 98 97 95 95 94 94 92 89 88 86 86 85 85 84 85 85 84 83 83 81 80 79 78 77 76 75 75 76 74 74 74 73 74 73 73 72 71 71 72
99 100 101 99 98 96 92 92 94 95 94 91 89 86 86 86 86 85 84 85 84 83 83 81 80 80 79 77 77 77 76 75 75 76 75 74 73 73 73 72 71 71 69
98 99 100 95 93 92 91 92 94 93 94 90 90 87 87 86 86 85 85 85 84 84 83 81 80 80 79 81 77 77 76 75 74 76 75 76 76 75 73 71 71 70 68
99 97 97 97 95 93 91 92 92 92 93 89 89 88 86 85 84 84 84 84 84 83 82 80 80 78 78 73 71 76 77 75 73 74 75 76 74 73 69 65 67 70 68
98 98 97 96 97 97 93 91 91 93 91 88 88 87 86 85 84 85 84 83 82 82 80 80 79 76 76 66 66 71 77 74 75 75 74 75 78 73 74 67 67 66 65
98 98 102 97 96 102 101 96 94 90 89 88 88 88 87 85 84 84 84 83 82 81 79 78 74 74 76 67 64 66 72 73 73 75 74 72 72 73 73 72 71 68 68
100 99 103 99 95 97 96 94 93 91 90 89 88 88 88 86 85 84 83 82 80 78 76 74 72 71 73 63 62 64 72 73 73 74 73 72 73 68 62 69 68 67 69
103 101 102 99 96 95 98 93 92 90 89 89 89 89 88 86 84 83 80 78 77 76 77 73 73 70 73 63 61 63 75 73 73 71 71 65 70 61 59 67 66 65 67
100 102 97 94 92 94 95 89 90 88 90 90 89 88 87 85 84 82 79 76 76 77 74 73 74 74 71 72 58 58 72 71 69 69 68 71 59 57 57 58 67 64 62
100 99 95 92 92 93 90 87 86 88 88 87 86 84 84 85 83 79 76 76 75 73 72 72 71 71 74 62 57 56 59 63 70 70 69 68 55 54 57 56 59 57 58
95 97 91 89 90 89 87 84 84 85 84 84 82 82 82 79 78 76 75 74 75 74 72 73 72 71 73 72 55 55 56 57 62 71 60 55 54 58 55 55 58 58 62
90 90 87 85 84 85 86 85 84 84 83 80 79 78 76 75 76 75 76 75 74 74 75 73 72 71 71 71 69 67 62 57 62 59 59 60 60 61 63 61 57 61 64
86 86 84 84 83 83 82 84 83 82 78 77 76 75 74 74 72 65 68 75 65 65 74 73 74 75 73 73 66 66 68 67 63 64 67 65 65 66 64 64 64 64 64
79 79 80 80 79 81 81 82 82 81 79 76 75 73 74 72 73 69 65 47 48 46 46 49 68 64 52 49 48 48 48 51 58 67 67 68 70 69 69 64 64 62 63

GFSMW_sfc_temp_015.txt.gz
Temp
88 89 90 90 87 85 84 83 80 81 81 79 76 74 74 76 77 81 80 78 78 78 77 76 76 79 74 75 77 72 70 70 71 69 70 70 78 74 73 74 74 76 76
87 87 89 90 87 84 84 81 81 79 82 81 79 77 77 78 79 78 79 78 80 79 78 76 75 76 74 72 72 71 68 69 72 68 65 66 73 74 77 73 75 73 75
86 86 87 88 88 84 82 82 82 79 81 80 79 76 76 76 76 78 79 81 81 79 77 77 75 75 73 72 72 71 69 67 70 72 67 62 61 70 70 75 72 72 71
88 88 88 87 88 84 84 83 82 81 80 79 79 75 74 72 75 79 80 80 79 78 78 77 76 75 73 71 71 72 69 68 67 69 72 68 67 63 67 71 72 74 73
89 87 87 89 89 87 85 82 82 82 82 79 80 77 74 78 78 76 79 76 76 79 79 77 76 74 72 71 72 71 69 69 67 66 68 70 66 67 63 60 69 73 73
91 89 90 90 89 88 85 83 81 81 81 81 77 77 77 76 76 75 74 78 79 76 77 77 75 74 72 71 71 71 70 68 68 66 66 67 65 65 64 61 62 66 70
91 90 88 87 88 85 85 82 81 79 80 80 80 77 78 77 75 74 76 77 77 74 75 76 74 73 72 72 72 74 70 69 68 67 66 67 66 67 67 65 62 63 65
93 91 88 89 87 87 85 83 81 80 81 80 79 80 77 81 80 77 76 79 80 80 77 77 76 74 74 74 72 70 70 70 68 69 68 68 67 67 67 70 64 60 61
94 92 91 90 87 87 84 84 81 81 81 81 80 80 80 79 80 77 77 77 79 79 78 77 76 76 74 72 72 70 69 69 69 68 68 67 68 68 68 68 67 65 59
90 93 92 90 88 89 87 86 83 81 82 82 81 80 81 81 82 76 78 77 78 77 78 76 77 75 75 72 71 69 70 68 68 68 68 68 67 68 68 67 66 66 64
90 94 93 92 89 90 88 86 83 82 82 82 82 81 81 81 81 78 77 77 78 76 77 77 76 76 74 73 70 69 69 69 68 68 67 68 68 67 67 67 67 66 65
94 95 94 93 89 88 88 86 84 83 83 83 82 82 81 81 80 81 79 77 79 77 78 78 76 76 76 74 72 70 72 68 68 68 67 68 73 67 67 68 66 65 65
83 93 94 92 89 88 88 88 86 84 84 83 82 82 81 81 81 80 81 79 80 79 78 78 77 76 75 73 73 71 68 68 69 68 69 68 70 65 67 68 68 65 67
87 86 93 91 91 89 88 88 87 86 85 84 83 81 82 82 82 82 81 80 80 78 78 78 77 77 75 74 73 70 68 68 69 69 69 71 70 68 67 68 67 67 64
85 83 89 90 89 88 88 88 88 88 86 84 83 82 83 83 82 81 81 81 80 79 77 75 76 75 74 75 69 71 70 68 68 69 71 73 72 71 68 67 66 66 64
86 84 87 90 89 88 86 88 87 88 88 84 83 83 83 82 81 81 80 79 79 77 77 75 75 73 76 70 69 72 71 69 68 69 72 71 72 72 69 69 69 69 65
85 85 84 88 90 88 88 86 87 89 87 85 84 83 83 81 81 80 79 78 79 79 77 77 75 73 74 66 66 69 70 71 71 71 72 72 75 70 69 67 67 65 65
86 85 90 83 88 90 90 89 88 86 86 84 83 83 82 81 81 80 79 80 79 79 76 75 73 73 70 65 64 67 68 67 68 71 70 68 68 68 69 66 65 64 64
91 87 83 84 85 91 90 88 86 85 85 82 82 83 82 81 81 79 80 80 77 76 74 73 71 69 68 63 62 65 68 69 69 69 69 67 67 65 61 66 64 65 64
90 92 92 88 89 86 90 87 86 84 84 85 83 84 84 82 80 81 79 75 76 72 72 70 70 67 68 62 61 62 69 68 64 65 68 65 67 59 59 64 63 61 62
83 84 86 86 86 84 90 87 87 86 86 87 80 83 83 81 81 77 75 73 72 73 70 69 70 71 69 66 59 58 69 68 65 64 64 64 59 59 57 57 62 62 58
80 83 80 81 80 82 86 82 83 82 82 81 80 79 80 80 76 74 72 71 72 71 70 70 69 69 67 63 57 57 58 63 65 64 64 63 57 54 56 57 58 55 58
79 78 82 79 79 79 83 79 77 80 80 79 77 77 77 75 73 72 71 70 70 70 69 70 67 66 68 64 57 55 55 57 61 63 59 54 53 55 56 56 56 57 55
78 79 77 76 75 77 79 78 79 80 78 76 74 74 73 72 72 71 71 71 70 70 70 68 66 66 65 63 59 58 57 57 58 58 56 57 57 56 57 56 54 53 54
75 78 77 75 75 77 77 79 78 77 74 73 71 71 71 68 59 54 57 66 57 63 66 67 67 65 65 64 60 59 59 58 57 57 56 54 53 53 53 54 56 58 58
72 74 75 74 74 75 74 74 74 74 71 70 70 70 68 66 64 62 57 47 47 47 47 51 61 55 55 51 50 51 52 51 52 57 56 55 55 55 56 56 55 56 59

GFSMW_sfc_temp_018.txt.gz
Temp
85 86 85 86 85 83 81 80 80 80 79 76 73 72 72 74 74 76 77 77 76 77 75 74 73 74 72 71 72 70 68 68 68 67 68 68 72 71 70 71 72 74 73
84 83 84 85 83 82 80 80 80 79 79 80 79 75 73 74 76 75 76 77 77 76 76 74 73 73 71 71 70 69 65 66 67 65 62 62 70 69 74 69 72 71 72
82 83 84 83 84 81 80 80 80 80 80 80 76 73 73 74 73 74 74 76 79 78 76 74 73 72 71 70 70 68 67 66 67 67 65 60 60 68 70 70 69 69 68
85 84 85 84 83 82 82 81 79 80 80 79 78 76 77 73 73 74 75 76 78 77 76 75 74 72 71 70 70 70 67 66 65 66 68 65 65 61 62 67 67 68 70
85 84 85 87 86 85 82 82 79 78 80 79 80 78 76 77 73 73 74 75 75 76 77 75 73 71 70 70 69 68 67 67 66 64 65 64 63 62 61 60 63 67 67
86 86 87 88 86 86 84 82 80 78 78 79 79 78 77 74 72 72 72 73 75 76 76 75 74 72 70 69 68 68 67 67 66 65 65 65 64 62 61 59 59 61 66
86 86 84 85 85 84 83 81 79 79 78 78 78 78 77 76 74 73 74 72 74 72 73 73 72 72 70 69 69 68 67 66 66 65 64 64 64 64 63 62 59 60 63
88 87 86 86 86 85 82 81 79 79 79 78 78 78 78 78 77 74 74 75 78 79 76 75 75 71 71 69 69 68 67 67 66 66 65 65 65 64 64 64 62 58 58
88 89 87 87 86 85 82 81 79 80 80 79 79 78 78 79 78 73 74 75 78 78 75 76 75 73 71 70 69 67 67 67 66 65 65 65 65 65 64 64 64 63 57
91 92 90 88 87 87 84 83 81 81 80 80 80 80 79 79 79 75 74 75 76 77 75 75 75 73 72 70 69 67 67 66 66 66 65 64 64 65 65 65 64 62 62
87 89 90 89 88 88 84 82 81 81 80 80 81 80 79 80 78 77 76 77 76 76 76 75 75 74 72 71 69 67 67 66 66 66 66 66 65 65 64 64 64 62 65
88 88 90 90 88 86 85 83 81 82 82 81 80 80 79 79 79 79 77 76 77 76 76 76 75 74 74 72 71 68 70 67 65 66 65 66 69 64 66 64 64 64 64
83 83 90 87 87 86 86 84 82 82 82 82 80 80 79 78 78 79 80 76 77 75 76 75 75 74 74 72 72 70 69 68 67 67 66 66 65 67 67 66 63 64 65
84 84 88 89 88 86 86 84 83 83 83 82 81 79 79 79 79 79 79 79 78 75 75 75 75 75 74 73 72 71 69 69 68 68 68 67 68 69 68 67 64 64 64
83 85 89 88 87 85 85 85 84 83 83 81 80 80 80 80 80 79 78 79 78 78 75 74 74 74 74 74 72 71 70 69 68 67 67 68 71 71 69 67 65 63 64
84 85 89 89 88 86 85 85 84 83 83 81 80 81 80 79 79 78 78 77 77 74 73 73 74 72 75 70 68 72 69 69 68 67 65 67 71 70 68 67 68 68 64
85 82 87 89 89 87 87 85 85 85 82 81 81 80 80 78 78 78 77 76 76 76 73 73 73 72 73 66 66 68 67 68 68 67 66 68 73 68 69 66 66 63 63
81 78 87 89 90 90 88 87 86 84 82 81 81 80 79 78 78 78 77 76 77 76 74 73 73 73 72 65 64 67 69 68 69 69 67 67 68 66 65 65 63 63 64
82 79 80 85 89 89 88 86 85 84 83 81 80 80 80 78 78 77 76 78 77 76 75 75 73 72 71 62 61 65 67 67 68 68 68 67 66 62 61 65 63 64 64
80 82 78 80 85 88 89 85 83 83 82 83 82 82 81 79 78 78 78 79 77 76 75 73 73 69 67 59 60 63 68 67 67 66 66 63 66 60 58 64 63 62 65
79 80 79 80 84 89 87 85 84 82 85 85 84 81 81 80 80 78 77 75 75 74 72 69 68 69 68 64 58 58 68 67 64 64 65 66 58 55 55 58 62 62 60
78 79 75 76 81 84 87 84 83 85 85 84 81 79 80 80 78 76 75 74 73 71 68 67 67 67 67 61 57 57 59 63 67 65 64 62 55 53 54 57 57 56 57
74 76 75 76 75 79 86 84 84 82 81 80 79 79 80 79 75 74 72 71 71 69 67 67 66 66 66 63 57 55 55 57 63 63 60 55 52 52 55 56 56 54 54
68 72 71 71 71 74 83 85 80 81 80 79 76 76 75 74 74 72 72 71 69 68 67 66 66 65 64 62 60 57 56 56 59 58 56 56 55 55 56 55 54 53 52
60 63 66 70 71 73 74 78 80 79 76 74 74 73 71 69 63 57 64 68 63 68 68 66 66 64 63 62 58 57 59 58 56 55 55 55 56 56 52 52 52 51 51
61 60 58 58 57 60 73 75 76 76 72 71 69 67 64 63 62 60 56 49 49 49 52 54 61 58 55 50 48 46 46 48 50 55 53 53 52 53 52 52 52 53 55

GFSMW_sfc_temp_021.txt.gz
Temp
80 82 82 83 82 81 79 78 78 78 77 74 72 71 74 71 72 73 75 76 76 76 73 72 72 72 71 71 70 69 68 65 66 66 65 67 68 69 68 69 70 72 72
79 81 81 82 83 80 79 78 79 78 78 78 78 75 72 72 73 74 74 76 76 75 74 72 72 72 71 69 69 67 65 64 65 63 60 61 68 67 70 67 73 69 71
78 79 80 81 83 80 78 78 79 79 78 79 77 71 72 72 71 71 72 74 76 76 76 73 72 71 70 69 68 68 65 64 65 65 64 59 59 62 65 67 71 67 67
82 80 82 80 81 81 80 80 79 79 78 78 77 78 76 74 71 72 73 75 75 78 75 74 72 71 70 69 69 69 65 65 65 64 66 63 63 61 60 64 65 65 67
82 82 81 82 83 82 80 80 79 79 79 78 79 78 76 77 72 71 73 72 73 75 76 74 72 70 69 69 69 67 66 65 64 64 63 62 61 60 60 58 62 64 65
82 83 85 83 82 83 81 79 77 78 79 78 78 77 77 74 70 70 71 71 72 72 73 74 72 71 69 69 68 67 66 65 65 64 64 63 63 61 60 58 58 60 64
83 83 82 83 82 81 80 79 77 77 78 77 77 77 78 75 74 72 74 70 71 71 72 73 71 70 69 69 68 66 65 65 65 64 64 63 63 62 61 60 58 59 61
84 84 84 84 84 82 80 79 77 77 77 77 77 78 79 78 78 74 74 76 74 74 76 74 73 71 69 69 67 65 65 65 65 64 63 63 63 63 63 63 60 57 57
84 84 85 85 85 84 81 79 78 78 77 77 78 77 78 78 77 73 75 75 75 75 74 75 73 71 70 69 67 65 65 65 64 64 64 63 63 63 63 62 62 62 57
84 86 86 87 86 86 84 82 81 79 79 78 79 78 78 78 77 75 74 73 75 75 73 74 74 72 70 69 68 65 65 65 64 64 63 62 62 64 63 63 61 61 61
84 86 87 89 87 87 84 82 81 80 80 79 79 79 78 78 77 76 75 74 74 74 74 74 74 72 70 69 69 66 66 65 64 65 63 63 63 62 63 62 61 61 61
85 87 89 88 86 85 85 81 82 81 81 81 80 79 79 78 77 77 77 75 75 74 75 74 73 72 72 70 70 67 69 67 64 64 64 64 67 63 62 62 63 65 60
82 84 81 82 85 85 85 82 82 81 82 81 80 79 79 77 77 77 78 75 76 74 75 74 73 72 72 70 70 70 68 68 67 66 65 64 64 62 64 63 63 64 63
81 79 78 80 83 84 84 82 82 82 82 81 80 79 78 78 78 79 78 78 76 73 74 74 74 74 73 72 71 70 68 68 68 67 66 65 65 64 68 67 66 63 63
81 78 84 79 81 82 83 83 82 82 83 80 79 79 79 79 78 77 78 78 76 76 74 73 73 73 73 74 71 69 68 67 67 67 66 65 67 69 69 65 63 64 61
82 84 87 86 84 85 83 83 82 81 82 80 79 80 79 79 78 77 76 76 75 75 73 72 72 71 74 69 68 72 69 68 67 65 66 67 67 68 67 67 67 66 63
81 78 86 88 89 87 86 83 82 83 81 80 80 79 78 77 77 77 76 75 75 74 71 72 72 71 72 67 66 69 69 67 66 68 67 68 69 67 68 65 65 65 65
77 79 85 81 83 87 87 87 84 81 80 79 79 79 78 77 77 76 76 75 75 73 72 71 72 72 72 65 63 67 69 68 68 68 67 67 67 66 65 65 64 63 63
78 78 81 86 86 86 86 85 83 81 79 78 79 79 79 78 77 76 75 76 76 74 73 72 72 72 71 62 61 63 69 67 67 67 69 67 65 63 62 65 64 62 62
74 75 75 76 79 84 86 83 81 81 79 79 80 80 80 78 77 77 76 77 76 75 74 73 73 69 71 60 59 64 67 66 67 66 66 63 65 60 59 65 63 61 63
74 74 70 76 80 81 83 81 82 80 82 82 82 81 80 79 78 78 76 75 75 75 74 74 73 71 67 62 57 60 67 67 65 64 62 63 59 56 55 58 63 63 60
68 69 69 70 71 75 82 80 80 83 83 83 81 80 80 79 78 76 75 75 74 74 73 71 70 69 66 59 57 59 60 62 63 62 64 64 57 52 52 55 56 54 57
65 69 68 67 67 71 75 78 81 82 81 81 81 79 79 79 76 74 74 74 74 73 71 70 69 67 67 65 56 55 56 58 63 66 62 55 52 50 53 54 54 54 54
63 63 64 65 63 66 68 72 81 80 79 79 80 79 77 77 75 75 75 75 73 71 69 69 67 66 65 62 61 58 56 56 60 57 56 56 55 55 55 55 54 53 52
60 62 64 63 61 60 61 64 66 72 75 78 75 75 75 74 72 62 68 73 69 68 69 68 67 66 64 63 59 58 60 60 58 56 56 55 54 54 53 52 52 51 51
59 60 61 62 63 63 63 66 63 70 71 71 72 72 72 65 62 61 58 54 53 55 55 55 59 62 56 50 49 47 48 47 50 55 55 54 53 54 53 51 51 51 53

GFSMW_sfc_temp_024.txt.gz
Temp
77 79 79 80 79 77 76 75 75 75 74 73 71 71 73 73 73 74 75 75 75 76 75 74 74 74 73 74 74 72 72 70 69 70 71 71 71 72 72 75 76 77 78
76 77 78 79 79 77 76 75 75 75 75 75 75 74 74 73 75 75 75 76 76 76 76 74 74 74 74 73 72 72 69 69 69 68 67 67 71 73 73 73 75 75 76
75 76 77 78 80 76 76 75 75 76 76 76 75 72 72 72 73 73 74 75 76 76 76 74 74 74 74 73 71 71 70 69 69 69 68 65 66 67 70 72 72 72 73
78 77 78 77 79 78 78 77 76 76 76 76 75 74 74 74 74 74 74 75 76 76 76 75 74 74 73 71 71 71 70 69 69 69 69 68 68 67 67 70 71 71 73
78 78 78 80 80 81 79 78 76 76 76 76 76 75 75 76 73 73 74 73 74 75 76 75 74 74 73 72 71 70 69 69 69 69 68 67 67 66 66 66 69 70 72
80 80 81 81 80 82 80 78 75 75 76 75 76 74 75 73 72 71 73 73 74 74 75 75 75 74 72 72 71 70 69 69 69 69 69 69 68 67 66 65 65 68 71
80 80 80 79 80 78 78 77 75 74 76 75 75 76 75 74 73 73 74 72 73 73 73 74 74 73 72 72 70 69 69 69 69 68 69 69 69 68 67 67 65 67 68
81 82 82 80 80 79 78 77 75 74 76 75 75 76 76 77 77 75 76 75 75 76 75 75 75 74 72 72 70 70 69 69 69 68 68 69 69 69 68 68 67 65 66
81 82 83 82 80 80 78 77 76 75 76 76 76 75 76 76 76 75 75 76 75 77 75 75 75 74 72 72 70 70 69 69 69 68 68 69 69 69 69 69 69 68 65
82 83 83 84 83 83 81 79 78 76 77 77 77 77 77 77 77 76 74 74 75 76 75 75 75 73 72 71 70 69 69 69 69 69 67 67 68 69 69 69 68 67 68
81 83 84 85 84 85 82 80 79 77 77 77 77 77 77 77 77 76 75 75 75 74 75 75 74 73 72 71 70 69 69 69 68 68 67 67 67 68 69 68 68 67 67
80 83 85 85 85 83 84 80 80 79 79 78 77 77 77 77 76 76 76 75 74 75 75 75 74 74 72 72 71 70 71 69 68 69 67 68 69 67 67 67 67 67 67
76 78 82 82 83 83 83 82 81 82 81 79 78 78 77 76 76 76 77 75 75 74 75 75 74 73 73 71 72 72 71 70 70 70 69 68 67 67 67 68 67 68 68
73 75 77 82 83 82 81 81 81 82 82 81 78 77 77 77 77 76 77 76 75 74 75 74 74 74 74 73 72 72 71 71 71 70 69 69 68 67 67 68 68 68 66
72 71 76 77 77 78 79 80 80 80 81 79 79 78 77 78 77 76 76 77 75 75 75 75 74 74 74 75 72 71 71 70 70 69 69 69 69 68 68 70 68 67 67
73 73 75 76 76 78 78 80 78 79 80 78 78 78 77 77 76 76 76 76 75 75 74 74 74 74 76 70 68 72 71 70 69 67 69 70 68 67 66 67 67 68 67
73 72 75 78 78 80 80 80 79 81 79 78 78 77 77 76 76 76 75 75 74 74 73 74 74 73 74 66 66 68 71 70 69 69 68 67 70 68 69 65 66 65 65
72 73 76 80 82 83 84 80 80 79 78 77 77 77 76 76 76 76 75 75 76 74 73 73 73 73 73 64 64 67 72 70 70 69 69 69 69 68 68 68 68 67 68
73 75 77 78 78 77 77 78 78 78 77 77 76 77 77 76 76 75 75 76 75 75 73 74 73 72 73 62 61 65 71 69 69 69 69 69 69 64 62 68 67 67 65
73 73 73 73 75 75 78 78 78 77 76 77 78 78 78 76 76 76 76 76 76 75 74 73 73 71 73 60 60 64 70 68 68 68 69 64 67 60 59 68 68 66 64
71 72 72 72 71 73 76 76 77 76 79 79 79 78 78 77 77 77 77 76 75 75 74 74 73 74 72 69 58 59 70 70 67 68 67 67 59 56 55 59 67 64 64
68 69 66 64 65 71 73 73 73 77 77 77 77 77 77 79 79 76 75 75 75 74 73 73 73 73 73 64 56 57 62 65 69 67 67 66 56 54 53 56 58 55 60
66 68 67 65 64 67 67 69 67 74 76 75 75 76 77 78 78 75 74 74 74 74 73 72 72 72 70 61 55 57 59 59 67 68 63 56 50 50 52 55 54 55 64
62 65 65 64 63 65 66 66 68 71 73 73 73 75 76 76 78 77 77 76 74 73 72 72 72 70 66 64 63 64 61 58 62 58 59 57 57 56 58 57 56 62 63
61 62 62 63 62 64 65 66 66 69 71 70 72 73 75 74 74 65 69 74 75 73 74 72 70 67 66 65 60 60 61 62 59 58 60 60 60 59 58 59 58 60 60
62 62 62 63 62 62 63 64 65 68 71 69 69 70 72 73 63 62 58 49 54 54 52 54 63 63 56 51 50 51 49 48 50 62 62 61 61 61 60 59 58 58 58

GFSMW_sfc_temp_027.txt.gz
Temp
84 85 85 86 85 84 82 81 80 80 81 81 80 81 81 83 84 86 84 84 85 84 83 86 85 84 84 84 83 83 81 84 83 83 83 84 85 85 86 89 90 88 89
83 83 84 85 85 83 82 81 80 80 80 82 82 83 83 85 86 87 85 85 85 84 84 84 85 84 85 81 81 81 83 83 83 82 82 79 82 86 87 87 88 85 90
83 82 83 84 85 83 82 81 81 81 81 82 82 82 83 83 83 84 85 85 85 85 84 84 85 83 84 85 82 81 80 82 81 79 82 78 78 81 85 83 87 84 88
84 84 84 83 84 84 84 83 82 81 81 82 82 80 81 82 85 86 87 87 85 86 85 84 84 83 85 83 82 82 81 80 80 81 81 79 80 80 77 83 84 85 85
86 84 84 85 86 86 84 84 82 81 82 81 82 82 81 85 87 86 84 84 85 85 86 84 84 83 84 83 81 79 79 81 83 83 81 79 81 79 80 78 80 82 85
86 86 87 87 86 87 86 84 81 80 81 81 81 81 81 82 84 83 84 86 87 87 84 85 84 83 84 83 82 80 79 80 81 83 82 83 81 80 80 79 78 80 82
86 86 85 85 85 85 85 84 81 79 81 81 81 81 81 81 81 82 84 84 86 86 84 83 82 84 82 83 82 79 79 79 80 78 82 83 83 83 82 81 80 79 82
88 87 87 87 85 85 84 84 82 79 81 81 80 81 81 84 85 84 86 86 87 87 86 84 84 84 83 83 81 82 82 81 80 79 79 83 83 82 83 82 80 77 79
88 88 89 89 87 86 84 83 82 81 81 82 81 80 81 82 84 84 84 86 85 88 86 85 84 84 83 82 81 83 79 79 79 79 78 80 83 83 83 82 82 81 76
90 90 90 90 89 89 87 86 84 82 82 83 83 83 82 82 83 83 82 84 86 85 86 84 84 84 83 82 80 82 80 78 80 81 78 78 82 81 82 82 82 80 80
90 91 91 91 90 90 89 87 85 83 83 83 83 82 83 83 83 83 83 83 84 84 84 83 84 83 83 81 80 81 81 78 78 78 77 77 78 81 81 81 81 80 80
90 91 92 92 91 90 89 88 87 86 85 84 82 82 83 83 83 82 83 83 83 84 84 84 83 83 83 82 80 80 81 78 78 79 77 77 79 76 77 80 77 79 79
88 90 92 91 90 91 89 89 88 89 88 85 84 83 83 82 82 82 83 83 83 83 84 84 83 83 83 81 81 81 80 79 80 80 78 78 77 75 78 77 78 80 78
86 87 87 88 89 89 87 87 88 90 89 87 86 83 83 83 83 82 82 83 83 82 83 83 83 83 83 83 82 81 81 80 80 80 79 79 78 76 73 75 75 77 78
86 86 85 84 85 86 86 86 88 87 89 85 85 83 83 83 83 82 82 83 83 82 83 83 83 83 84 85 81 81 81 80 79 80 79 79 78 73 73 79 77 76 75
88 88 86 85 84 85 85 86 86 86 86 83 83 83 83 82 81 81 81 81 82 81 82 82 82 82 85 75 70 78 81 80 79 79 79 79 73 71 67 68 70 75 75
88 87 88 86 86 87 86 85 85 85 84 83 83 83 82 81 81 81 81 80 81 81 81 81 82 81 82 68 67 70 83 80 80 79 80 79 80 72 75 66 66 67 67
89 88 90 90 86 90 92 89 88 83 82 82 83 82 80 80 81 81 80 80 81 80 81 81 81 81 82 66 65 68 81 81 81 80 80 78 78 75 74 77 74 74 73
89 89 92 89 87 87 88 87 86 84 83 82 82 82 81 81 81 80 79 81 81 81 81 82 81 80 81 63 63 67 79 81 79 80 80 78 77 69 64 75 74 72 74
89 87 88 87 87 86 90 86 86 84 82 83 83 82 83 81 81 81 80 81 82 81 84 82 81 76 81 61 61 67 84 80 81 79 77 65 73 61 60 74 75 74 76
84 84 85 84 84 84 86 83 86 84 86 87 86 84 83 82 81 79 81 81 81 82 81 81 81 80 78 78 59 59 81 83 80 78 75 79 60 56 56 61 77 75 77
80 81 79 79 79 82 83 83 82 85 86 85 84 83 82 84 84 80 79 81 78 78 79 79 78 80 81 66 57 57 65 69 78 73 77 76 57 54 54 60 61 56 65
78 80 79 77 78 80 83 80 79 83 84 83 82 82 83 83 83 81 80 77 75 75 76 74 75 75 74 75 58 55 57 61 73 75 68 59 53 53 55 55 55 57 76
76 78 77 76 74 76 78 78 80 82 83 82 81 82 81 81 82 84 83 81 76 75 74 73 72 73 73 71 63 62 63 61 64 61 60 59 59 60 64 59 60 75 77
73 75 75 75 74 75 75 77 77 79 81 81 82 82 83 80 82 83 83 81 80 80 79 81 75 73 67 64 58 61 64 64 61 60 62 62 63 64 65 69 68 73 72
71 71 72 72 72 73 73 74 74 74 77 79 82 83 85 85 84 77 70 54 54 55 54 56 70 69 57 50 51 51 51 52 54 62 63 64 66 67 69 67 68 72 69

GFSMW_sfc_temp_030.txt.gz
Temp
93 93 93 94 93 92 89 87 86 86 87 88 87 88 89 90 92 93 92 90 90 90 89 92 90 91 90 86 88 89 86 90 91 89 89 90 91 92 95 97 96 93 96
92 91 92 93 93 90 89 86 86 85 86 88 88 90 90 93 93 94 92 91 91 90 90 88 90 89 93 86 86 85 90 91 91 88 89 83 87 91 96 95 94 92 95
90 91 91 92 93 90 88 87 86 86 86 88 89 88 90 90 90 92 92 92 91 91 89 89 90 88 89 90 86 86 85 89 88 86 87 83 84 86 90 89 94 90 93
94 93 92 91 92 91 91 89 87 86 86 86 88 85 87 87 91 92 94 94 91 91 91 89 89 88 92 89 85 89 88 85 86 87 89 86 85 85 82 89 90 91 91
94 94 93 93 94 93 92 90 87 86 87 86 87 87 86 91 93 94 91 89 90 91 93 90 89 88 90 89 87 86 84 88 89 88 87 85 88 86 85 84 85 89 91
96 95 96 95 94 95 93 91 87 85 86 86 85 86 86 88 91 90 91 92 93 93 90 91 89 89 89 88 88 86 85 85 86 90 88 88 86 86 85 84 85 86 89
96 96 94 94 94 92 92 91 88 85 86 86 86 85 86 86 87 89 90 91 93 94 92 89 88 90 88 89 88 85 86 85 85 83 89 90 90 91 89 87 88 86 90
98 97 95 95 93 93 92 91 89 85 86 86 86 86 86 90 90 90 93 92 94 95 93 90 90 89 90 89 88 89 88 87 86 84 84 90 90 90 90 88 87 83 85
98 97 97 96 94 93 92 91 89 87 87 88 87 86 86 87 90 90 90 94 92 95 93 91 88 90 89 88 87 89 86 87 85 85 84 86 91 91 91 90 89 86 82
98 99 99 98 97 97 95 93 91 88 88 89 88 88 88 88 89 90 89 90 93 91 92 90 90 89 89 88 86 88 87 85 87 88 85 84 90 90 90 90 90 88 85
100 101 100 100 100 99 97 94 92 90 90 90 89 88 89 89 88 89 89 89 90 91 89 90 89 89 89 88 86 87 89 84 84 85 85 82 85 89 90 89 89 88 87
102 103 104 103 101 99 98 97 95 93 92 91 89 89 89 89 90 88 89 89 88 90 90 90 88 89 89 89 86 86 89 85 84 84 83 83 86 82 84 88 84 86 86
99 101 103 102 101 100 97 98 97 97 97 92 91 90 90 89 89 88 88 89 88 88 90 90 88 88 89 88 87 87 87 87 86 86 84 83 83 81 86 83 86 86 84
96 98 100 101 101 99 97 96 97 98 98 96 93 90 90 90 90 89 88 89 88 88 88 89 89 89 89 89 89 88 87 87 87 86 86 85 84 82 81 82 81 83 84
95 96 96 97 96 97 96 94 96 97 98 95 94 92 90 90 89 88 88 88 88 88 88 88 89 90 91 92 89 89 88 87 86 87 86 86 83 77 79 84 81 82 81
96 99 98 97 96 95 94 95 94 95 95 93 92 92 89 88 88 87 87 87 87 87 87 88 88 88 92 80 74 84 89 88 86 85 86 86 77 76 70 70 71 78 80
95 97 99 100 99 98 96 94 94 95 93 91 91 90 89 87 86 87 86 86 85 87 86 87 88 87 88 73 70 73 90 88 87 86 86 86 89 78 83 69 67 68 68
96 98 103 103 101 103 106 99 97 91 91 89 89 89 88 87 87 86 85 85 86 86 86 86 86 87 89 70 67 71 86 89 88 87 86 86 87 84 81 82 77 79 80
99 100 103 103 101 101 101 99 96 93 90 89 88 88 89 87 87 85 85 86 86 86 86 87 86 86 87 66 64 70 85 87 87 88 88 87 85 75 67 81 79 78 79
100 99 101 102 101 97 99 96 95 93 89 90 89 90 89 87 86 86 85 86 87 86 89 87 87 81 86 65 61 70 88 86 88 86 86 70 81 65 62 77 79 76 78
95 97 96 94 95 96 97 93 94 92 93 92 92 90 89 87 87 86 86 86 86 87 85 85 86 86 85 84 59 60 85 91 89 91 88 88 64 58 58 64 74 74 78
94 95 90 91 94 93 92 91 89 93 92 92 91 90 88 89 90 86 86 85 85 83 83 81 84 89 87 70 60 59 64 77 90 89 92 86 59 55 55 61 63 59 63
92 92 92 89 89 89 90 88 88 90 91 89 88 89 88 88 89 86 85 86 85 86 84 86 87 89 89 87 63 58 59 63 78 93 80 63 54 54 56 58 58 59 77
86 89 88 87 85 87 88 89 87 88 88 86 86 87 87 86 87 90 89 88 88 87 88 89 89 89 87 87 85 74 68 62 68 63 65 61 60 60 61 60 62 71 80
85 86 85 83 82 83 83 84 85 87 87 87 88 88 89 86 87 88 91 90 90 89 88 89 90 88 84 84 73 65 67 68 65 61 63 63 63 63 63 66 67 71 78
80 80 80 80 80 81 80 81 81 82 84 86 89 91 93 93 90 90 88 53 56 53 52 53 70 91 70 53 50 50 51 51 54 63 64 65 64 63 64 66 66 72 72

GFSMW_sfc_temp_033.txt.gz
Temp
97 98 97 97 97 95 92 90 89 89 90 90 89 90 91 92 94 96 95 93 93 91 90 92 91 92 87 90 89 89 87 89 90 90 90 91 93 93 95 98 95 94 88
96 96 96 97 96 94 92 89 89 88 89 90 90 92 92 95 94 95 94 93 92 91 91 90 84 91 79 88 87 87 82 91 91 87 89 83 87 92 95 95 94 93 95
96 94 94 95 96 93 91 89 88 88 88 89 91 91 92 92 93 93 94 93 92 92 91 90 91 91 90 83 87 88 87 89 89 87 86 83 74 87 91 90 92 91 93
98 96 95 94 96 95 93 91 89 88 88 88 89 86 88 88 92 92 95 94 93 92 93 91 91 89 92 84 88 90 89 86 86 89 91 87 84 74 74 89 91 91 91
99 98 96 96 97 96 94 93 89 87 88 87 87 89 87 92 94 95 91 90 89 92 94 92 90 89 90 90 86 87 86 89 89 89 89 87 90 88 83 72 79 89 92
101 99 99 98 97 98 96 94 89 86 87 88 86 87 86 88 91 91 93 94 94 93 91 93 90 88 90 91 89 88 87 86 89 90 90 89 87 87 86 85 84 83 82
102 99 98 97 96 96 95 94 89 86 87 88 87 87 88 87 89 90 92 92 94 95 91 90 88 90 89 91 90 87 88 86 87 85 90 92 91 92 90 88 87 86 90
104 102 99 98 96 96 95 94 90 87 87 87 87 86 88 91 90 91 94 94 96 96 96 91 91 90 91 90 90 90 89 88 87 85 84 91 92 92 91 88 87 83 86
103 102 101 100 98 97 95 93 91 88 88 89 87 87 87 88 91 90 91 95 92 98 96 93 90 91 90 90 89 90 88 89 86 86 85 86 92 93 93 92 90 86 82
103 103 103 101 101 100 99 96 94 89 89 90 89 89 89 88 89 91 90 90 94 93 95 93 92 90 90 90 89 90 90 87 89 89 86 85 90 93 92 92 91 90 86
104 105 103 104 103 102 100 98 95 92 91 91 90 90 90 90 89 90 91 90 92 93 91 91 91 90 90 90 88 88 90 87 86 87 87 84 85 90 92 91 91 89 88
105 105 105 105 104 102 101 99 98 96 94 93 90 90 91 90 91 89 90 91 90 91 91 91 90 90 90 90 88 87 90 88 85 85 86 85 87 83 85 90 86 87 88
104 105 106 104 104 104 102 102 100 99 98 94 94 92 91 91 90 90 90 90 90 90 93 90 90 89 90 89 89 88 88 90 88 87 86 85 85 83 85 84 87 87 86
101 104 106 106 105 104 102 101 102 102 101 99 97 92 92 91 92 91 90 90 90 89 89 90 90 90 90 90 90 89 88 88 90 88 88 87 85 83 82 84 82 84 86
98 100 101 101 103 103 102 101 102 102 102 98 98 94 92 92 91 90 90 90 90 90 90 89 90 90 91 93 89 89 88 87 88 89 88 88 85 79 80 85 82 81 82
98 100 101 101 100 102 101 101 99 101 101 97 97 95 92 90 90 90 89 89 89 89 89 89 89 89 93 81 75 85 89 88 87 86 88 88 79 77 72 72 72 80 81
98 99 101 103 102 103 102 100 99 99 98 95 95 94 92 90 89 90 89 87 87 88 87 88 89 88 89 74 72 74 91 89 88 87 87 89 92 80 84 71 71 69 70
98 100 104 105 105 109 109 103 102 96 94 93 93 93 92 91 90 89 88 87 88 87 87 87 88 88 90 72 68 71 87 88 88 88 87 87 87 86 84 83 80 80 80
100 102 105 107 106 107 107 105 100 99 94 93 91 92 92 90 89 87 87 88 88 87 87 89 87 87 87 69 66 69 87 87 86 88 89 88 87 78 70 83 81 79 79
102 102 104 106 106 104 107 104 102 99 94 93 93 92 92 90 89 88 87 88 88 88 90 89 88 82 87 71 64 69 90 87 88 86 87 72 84 69 65 81 80 77 78
94 97 98 98 99 102 104 99 100 99 98 96 95 92 91 89 89 88 88 87 87 88 86 87 88 87 85 86 62 62 86 90 89 90 89 91 67 63 60 68 80 78 81
92 95 96 97 97 98 98 95 93 97 97 96 93 91 90 92 93 87 87 88 87 85 85 85 87 91 88 73 65 60 67 78 89 89 92 90 63 60 57 63 67 61 68
92 97 97 95 96 96 94 92 92 95 95 93 91 91 91 90 90 88 86 87 86 88 86 89 88 90 94 90 64 58 59 64 81 92 84 74 58 57 58 62 59 60 72
91 94 93 92 91 91 92 91 93 93 92 90 90 90 90 89 89 92 91 90 90 89 88 91 90 92 92 94 94 81 71 61 70 68 76 66 66 66 69 63 63 70 71
87 88 89 89 87 87 87 90 90 91 89 89 89 89 91 89 90 90 93 93 91 90 93 92 93 93 92 94 83 84 89 82 76 75 71 68 68 65 65 65 65 67 69
84 84 84 83 83 84 83 84 85 87 90 89 91 93 95 94 91 92 89 61 62 58 51 48 62 85 62 56 53 53 53 55 54 70 68 66 67 65 65 66 66 67 67

GFSMW_sfc_temp_036.txt.gz
Temp
95 95 95 96 96 92 88 86 86 85 85 84 83 84 84 86 87 88 90 86 87 87 86 82 77 84 84 83 84 84 80 78 82 80 80 80 85 84 83 82 84 82 84
94 93 94 95 95 90 87 85 85 84 84 85 84 85 85 87 87 87 88 89 88 88 87 84 83 85 77 82 84 83 78 80 82 77 76 73 77 81 84 83 84 84 83
93 92 91 93 93 89 87 85 84 84 85 85 86 85 86 86 85 86 87 87 88 87 85 85 83 83 82 78 80 82 83 77 80 82 77 69 70 75 80 82 81 83 79
95 93 93 92 93 91 89 86 84 84 85 85 84 83 83 82 85 85 86 86 86 87 86 85 85 84 82 81 81 84 83 81 77 80 83 81 78 72 71 78 79 81 83
97 94 94 93 94 93 90 87 84 83 84 83 84 84 83 85 86 86 84 84 84 86 89 85 85 85 84 82 81 83 82 82 80 78 78 79 78 79 74 71 74 79 79
99 96 95 94 94 95 92 89 84 82 84 83 83 83 82 83 84 84 85 86 86 87 86 86 84 84 84 83 82 83 83 81 81 80 80 78 76 76 75 73 74 75 77
99 97 93 93 92 92 90 89 84 81 83 83 82 82 84 82 82 84 85 85 86 87 85 85 83 84 83 84 84 82 82 82 81 80 79 80 80 81 79 76 75 74 76
102 99 95 94 91 92 90 88 84 82 83 84 82 82 83 85 85 86 87 86 87 88 86 85 85 84 84 84 84 84 83 82 81 81 79 78 80 82 80 78 76 73 74
102 99 98 96 93 92 90 88 85 83 83 84 84 83 82 84 85 84 86 88 86 91 88 86 85 85 85 84 84 84 82 83 81 80 80 78 79 82 81 80 79 75 71
102 101 99 98 95 95 93 91 88 84 84 85 85 85 83 84 85 85 84 85 87 86 89 85 85 85 84 85 83 84 84 82 82 82 79 78 78 80 81 80 79 78 75
101 102 100 100 98 97 95 93 90 87 85 85 85 85 85 84 85 85 85 86 86 87 86 85 84 84 84 84 83 82 83 82 81 81 79 78 78 79 80 80 79 78 77
102 103 102 101 100 96 96 94 93 91 88 87 85 85 85 85 85 84 86 86 86 86 87 86 85 85 84 84 83 82 84 83 81 81 80 79 82 77 78 79 77 77 78
101 102 103 100 100 98 96 96 94 95 93 89 87 86 86 85 85 85 85 86 85 86 87 87 85 84 84 84 84 83 83 82 83 82 80 80 79 77 78 77 77 78 78
98 101 101 99 100 98 95 95 96 97 95 92 90 86 86 86 86 86 85 85 86 85 86 86 85 86 85 85 85 84 83 83 84 83 82 81 80 78 77 77 75 77 76
99 99 100 95 95 95 94 95 97 95 96 92 90 88 87 87 87 86 86 86 85 86 85 85 86 86 87 88 84 84 84 83 82 84 84 83 82 77 77 79 77 75 75
97 99 98 99 100 96 94 95 95 96 95 91 91 89 87 86 86 86 85 85 85 85 85 85 85 85 89 79 75 82 85 84 82 82 83 84 78 76 73 73 74 77 74
96 98 99 98 97 100 97 95 94 96 94 91 91 89 87 86 85 86 85 84 84 85 84 84 85 84 85 73 72 73 86 84 83 82 82 84 87 78 79 71 71 70 71
96 96 100 99 99 103 105 99 98 92 91 89 89 89 88 87 86 85 85 84 85 84 84 84 84 84 85 72 69 71 84 84 84 84 83 82 83 82 81 78 76 77 75
96 97 100 100 97 99 98 96 96 93 91 90 89 89 89 87 86 85 84 85 85 84 85 85 84 83 84 69 67 69 82 84 83 84 84 83 82 77 69 80 76 75 76
91 91 94 96 101 100 104 95 95 93 90 90 90 89 89 87 87 86 85 85 86 85 87 85 85 80 84 71 64 67 84 83 84 83 83 72 81 71 64 78 78 75 75
89 92 91 90 94 95 95 93 93 92 93 92 91 89 88 87 87 86 86 85 85 85 84 84 85 85 83 83 63 61 83 85 84 84 84 85 67 64 60 67 80 77 78
89 93 90 90 92 97 94 89 89 92 95 91 89 88 87 89 91 85 85 85 84 82 82 82 83 86 85 71 67 59 62 76 83 84 86 85 65 60 58 62 70 64 68
89 92 92 90 91 96 93 87 89 92 93 91 88 87 87 87 86 85 84 85 83 84 83 83 84 84 87 87 64 59 59 61 72 85 80 62 58 58 59 60 64 62 75
87 89 87 88 90 92 91 89 89 91 91 90 88 87 86 85 86 88 87 86 86 84 83 84 83 86 87 87 87 79 67 61 66 72 77 77 65 64 66 67 65 75 75
83 85 84 86 86 86 84 85 86 89 88 88 88 87 88 84 86 86 88 87 87 85 87 86 86 86 86 82 62 68 84 78 72 75 80 79 78 76 71 70 72 74 74
79 82 84 84 84 84 83 83 84 85 87 87 88 88 89 89 87 86 85 64 66 57 50 50 63 80 58 50 51 54 56 52 55 71 77 75 73 71 71 69 70 71 70

GFSMW_sfc_temp_039.txt.gz
Temp
87 88 88 89 88 85 83 83 79 79 80 78 77 74 77 76 77 79 80 79 79 80 77 76 76 76 75 76 77 75 76 74 74 72 72 73 77 80 80 78 77 77 77
86 87 88 90 87 84 83 82 79 79 80 80 80 76 76 76 78 79 78 81 80 79 79 76 75 76 75 76 76 75 72 73 72 70 71 70 73 75 76 75 78 74 76
85 85 87 87 86 82 81 81 80 79 80 80 79 76 76 76 76 77 77 79 80 80 79 78 76 76 74 73 75 75 74 70 72 75 71 66 66 67 76 74 74 74 73
87 86 86 86 86 83 83 82 80 79 80 79 80 79 80 76 74 77 76 78 80 80 80 79 78 77 75 75 74 77 75 73 70 72 76 73 71 66 67 71 74 74 76
87 86 86 88 88 85 83 81 81 80 81 81 81 79 76 75 76 76 77 75 77 79 81 79 78 77 76 75 75 76 75 73 72 70 71 71 71 70 67 64 71 72 72
90 88 88 89 88 86 84 81 80 80 81 80 78 79 76 75 74 74 76 74 79 79 79 80 78 78 76 76 75 76 75 74 74 72 71 71 70 70 68 66 69 68 71
90 87 86 87 86 84 83 81 79 79 80 80 81 77 78 77 76 75 77 75 77 79 79 78 77 77 77 77 77 76 75 74 73 73 72 72 72 73 71 70 67 68 70
90 88 87 87 87 86 83 82 80 79 80 80 79 81 77 79 81 76 77 76 79 81 82 79 81 78 78 77 77 76 76 75 74 74 72 71 72 72 73 72 70 66 66
91 89 88 88 87 87 84 83 80 80 80 80 80 79 79 78 81 81 77 78 78 81 81 82 80 79 79 77 77 78 76 76 74 73 73 72 72 72 73 74 72 70 64
92 90 89 89 88 89 86 85 82 80 80 81 80 80 80 81 80 79 80 77 80 79 79 81 81 80 80 79 77 76 76 75 75 75 73 72 71 72 72 73 73 71 68
92 91 90 90 89 90 87 85 83 80 80 80 81 81 80 80 81 80 80 77 79 79 77 79 80 80 80 79 79 76 76 75 75 75 73 72 72 72 71 71 72 71 70
93 92 91 91 89 89 88 86 85 82 81 82 81 81 81 80 81 81 77 82 77 81 78 80 80 80 80 80 77 77 79 75 74 74 73 73 76 71 71 71 71 72 71
91 92 91 90 89 89 89 87 87 84 83 82 82 81 81 81 80 81 82 78 82 80 82 79 80 80 80 79 80 79 79 77 77 77 75 75 74 73 75 70 70 70 72
89 92 92 91 90 90 89 88 88 88 85 84 82 81 81 81 82 81 81 82 81 82 80 82 79 81 81 81 81 80 79 79 79 77 78 78 75 76 75 73 70 71 69
86 89 92 91 91 90 89 90 89 89 89 84 83 82 83 83 83 82 82 81 82 82 83 82 82 81 82 83 81 81 81 80 79 79 79 79 79 76 76 77 73 72 69
83 84 86 91 91 91 89 90 89 89 90 87 84 85 83 83 82 82 82 81 81 82 82 81 83 82 84 76 73 80 81 81 80 78 79 80 76 75 71 71 73 76 75
83 83 84 81 80 86 91 90 90 91 89 88 86 85 84 82 82 83 82 81 81 82 81 82 81 82 83 71 70 72 83 82 81 81 80 80 83 75 78 70 70 71 70
81 82 82 83 80 81 90 92 91 88 88 87 86 86 84 82 83 83 82 83 83 82 82 81 82 82 83 70 68 70 82 83 82 82 81 81 81 81 78 78 74 75 75
77 77 79 79 78 82 84 89 89 89 85 86 85 85 84 83 83 82 83 83 84 83 83 83 82 81 82 67 66 67 80 82 82 83 82 82 81 76 67 78 75 75 76
78 79 81 80 80 80 81 83 88 89 85 86 85 84 85 84 83 83 84 84 84 84 84 83 83 78 82 68 63 66 81 81 82 83 83 71 78 69 64 77 78 74 75
78 79 79 78 78 80 81 79 80 83 88 87 80 81 83 84 84 84 84 84 83 83 83 82 83 83 81 81 61 61 79 82 82 82 82 83 66 61 60 63 81 78 78
75 80 78 77 79 79 80 77 78 81 81 79 80 81 80 83 81 80 81 82 82 81 81 81 81 83 83 68 63 59 61 74 80 81 84 83 65 60 59 60 67 64 66
73 77 77 77 77 77 80 77 77 79 81 79 79 79 79 81 80 79 78 80 81 81 80 80 79 80 82 82 62 59 59 61 72 83 79 70 61 58 59 60 62 61 73
71 75 76 75 75 75 75 75 76 77 78 78 77 76 78 76 77 78 81 81 80 79 79 77 77 79 80 78 82 77 66 60 64 70 75 72 69 68 69 66 62 70 76
70 72 72 75 74 75 75 75 75 76 76 77 78 77 77 76 76 79 76 80 81 79 79 78 79 76 77 74 60 62 71 70 67 69 74 76 76 74 75 71 72 69 71
68 69 71 74 74 74 72 74 74 75 75 75 77 76 77 75 76 76 73 52 54 54 52 50 66 62 53 48 47 47 48 49 50 63 70 72 74 75 75 74 72 69 69

GFSMW_sfc_temp_042.txt.gz
Temp
80 82 83 85 84 80 81 81 80 78 77 74 72 72 73 73 74 76 78 76 77 78 75 74 76 74 73 74 74 73 74 72 70 70 71 70 77 74 74 73 74 74 74
78 81 82 83 84 79 80 81 80 78 78 79 78 73 73 73 75 75 76 77 77 77 76 74 74 74 74 74 73 73 70 70 70 69 66 65 69 70 72 71 74 72 74
77 79 81 82 84 79 80 79 80 78 79 78 75 72 73 73 73 73 73 76 77 78 76 76 74 74 73 72 73 73 72 68 70 71 69 63 63 65 70 70 71 71 71
83 80 82 82 84 82 81 80 79 79 79 77 77 77 78 75 74 74 73 75 77 77 77 77 76 74 73 73 73 74 72 69 69 70 73 70 68 65 64 68 69 70 72
83 83 84 84 85 86 81 81 78 78 78 77 78 78 77 76 72 73 74 73 76 77 79 76 76 75 73 73 73 73 72 71 69 68 69 68 68 66 64 63 67 69 69
84 86 87 85 84 84 82 81 77 77 78 78 78 78 76 73 73 71 74 72 75 76 76 77 76 75 74 73 73 74 73 72 70 69 69 70 69 67 66 64 64 67 69
83 85 84 85 82 81 81 80 78 76 78 78 78 77 77 75 74 73 72 71 73 72 74 76 75 75 74 74 74 73 73 71 71 70 70 69 69 69 68 67 65 65 67
84 86 85 86 85 81 81 80 78 78 78 78 78 78 77 78 78 75 73 75 77 77 78 78 78 77 76 75 74 73 73 73 71 72 70 69 70 70 69 70 67 63 63
85 86 86 86 86 82 80 80 79 79 79 79 79 77 77 79 79 76 76 73 74 78 78 79 78 78 76 76 74 74 73 74 72 71 72 69 70 70 70 69 69 68 62
86 87 86 86 87 85 83 81 80 80 80 80 80 80 79 78 80 79 74 73 74 77 78 78 79 78 78 76 74 74 74 74 73 72 71 70 70 70 69 69 68 67 67
87 88 87 87 87 87 84 82 80 80 79 80 80 80 79 80 77 77 77 77 75 76 77 78 78 78 78 77 74 74 75 74 74 73 72 71 71 71 69 68 68 67 66
89 89 88 87 87 86 84 82 81 80 80 80 80 79 79 78 78 77 77 78 78 76 77 76 78 78 78 78 77 75 77 75 74 74 72 73 75 69 68 68 68 68 67
88 89 88 86 86 86 85 83 82 81 81 80 79 79 78 78 77 78 78 79 78 79 76 76 76 77 78 78 78 78 77 75 76 75 74 75 73 73 71 67 69 67 69
88 88 87 86 86 86 85 83 83 82 81 80 79 78 78 78 78 79 79 78 79 78 75 76 77 78 78 79 79 79 77 77 76 76 76 76 74 74 72 70 69 68 67
87 86 86 86 85 85 86 84 84 83 82 80 79 78 79 80 79 78 79 80 79 78 80 78 78 79 79 80 79 79 79 78 77 76 76 77 76 74 75 76 74 68 69
87 87 87 87 85 85 85 85 84 83 83 80 79 80 79 79 79 79 77 78 78 79 78 78 78 77 81 74 72 78 79 79 78 77 77 77 74 73 70 70 73 74 72
82 87 87 88 88 87 87 85 85 85 83 81 81 80 80 78 78 79 79 77 78 78 78 79 79 80 79 69 69 71 81 80 79 79 79 78 80 74 76 69 69 70 69
77 76 78 80 79 82 88 88 86 85 83 82 81 81 80 79 79 79 78 79 79 78 78 79 79 79 81 68 67 69 79 81 80 80 80 79 79 79 76 77 73 73 75
72 74 76 76 76 81 88 88 87 85 84 83 82 81 81 80 79 78 79 80 80 80 80 80 79 79 80 66 65 67 77 79 80 81 80 80 80 74 67 76 75 74 74
72 74 76 76 77 74 78 86 86 85 84 84 84 83 82 82 80 80 80 81 81 81 81 81 81 76 80 67 63 65 79 78 79 81 82 70 76 67 63 74 77 75 76
72 74 74 72 73 75 75 76 81 85 87 86 86 83 83 82 83 82 82 82 81 81 81 80 82 81 78 78 61 60 78 79 79 80 81 82 66 61 59 62 78 78 80
71 73 74 73 73 73 77 74 75 78 78 78 78 81 82 83 83 82 81 82 81 80 79 80 80 81 81 66 60 59 62 73 79 80 82 82 65 59 58 60 65 63 65
70 72 71 72 74 74 73 71 71 74 76 75 76 76 76 77 78 79 79 80 80 80 79 79 78 79 79 77 61 58 59 61 71 81 77 67 61 58 59 59 61 60 71
67 69 69 69 69 71 72 71 72 73 73 73 75 73 73 74 75 79 79 80 78 78 79 77 77 78 76 76 76 69 65 60 63 66 72 69 65 61 66 66 65 66 72
65 66 66 67 69 70 70 71 72 72 71 72 72 74 73 72 73 69 68 77 79 78 78 77 77 76 75 74 63 65 71 70 65 67 70 71 72 73 73 74 73 73 68
63 63 64 65 67 69 70 71 71 70 70 70 72 73 73 73 74 67 61 51 49 49 52 56 66 58 53 49 49 49 49 49 51 64 66 68 69 70 71 73 74 74 71

GFSMW_sfc_temp_045.txt.gz
Temp
77 79 80 82 81 79 78 78 77 76 75 71 71 70 71 71 72 73 76 75 75 76 74 72 73 73 71 73 73 71 71 69 68 69 69 69 70 71 71 71 72 72 72
76 78 79 81 79 78 79 78 78 77 76 78 77 72 71 71 73 74 75 75 76 75 75 73 73 73 72 72 72 71 69 68 68 67 64 64 68 68 70 69 73 71 72
75 77 78 79 81 77 78 78 78 78 78 78 72 70 71 71 71 71 72 74 76 76 75 74 73 73 72 71 71 71 70 68 68 68 68 62 62 63 68 69 69 71 69
77 77 78 79 81 78 78 79 79 79 78 76 76 73 75 74 71 70 72 73 75 76 76 75 74 73 71 70 71 72 70 68 68 68 71 67 66 64 63 67 68 69 70
78 77 78 80 82 82 78 78 78 78 79 76 79 76 73 72 69 70 72 72 73 75 76 75 74 73 72 72 72 71 71 68 68 68 67 67 66 64 63 62 65 67 68
79 80 81 82 81 83 80 78 77 77 78 76 77 76 75 69 69 69 69 70 71 74 74 75 73 73 73 72 72 72 71 69 68 67 68 68 67 65 64 62 62 64 68
80 81 79 80 81 81 78 78 76 76 77 76 77 76 75 73 73 70 70 68 70 70 73 73 73 72 73 73 72 72 72 71 69 68 68 67 68 67 66 65 63 64 65
80 81 81 81 81 82 80 78 76 76 77 76 76 77 77 76 76 75 71 72 74 75 77 75 75 74 74 74 72 72 72 71 71 70 68 68 68 67 68 68 65 62 61
79 81 83 83 83 82 81 78 77 78 77 77 77 77 77 77 76 74 75 74 72 75 74 76 76 74 74 74 73 71 72 72 71 70 70 68 68 68 68 67 67 67 62
78 80 84 84 83 83 82 81 79 78 78 78 78 78 77 77 78 75 72 72 74 75 75 75 76 74 74 74 73 72 72 72 72 70 69 69 68 68 67 67 66 65 66
80 81 84 86 86 83 82 80 80 79 78 78 79 78 77 78 78 76 74 74 72 74 73 74 75 75 74 74 73 74 73 72 72 72 71 70 69 68 67 66 65 65 64
81 84 86 86 86 85 81 80 80 80 80 79 79 78 78 77 77 76 75 75 74 72 75 73 74 76 76 75 75 74 76 73 72 73 72 72 73 68 67 66 66 66 64
82 84 86 85 85 85 83 81 80 80 81 80 79 78 78 77 76 76 76 75 75 73 73 73 75 75 76 76 75 76 75 74 75 74 73 74 71 71 69 67 66 65 66
82 84 85 85 85 86 84 81 80 81 81 80 79 77 77 77 77 77 77 77 76 75 74 75 76 77 76 76 76 76 76 75 75 75 74 75 73 74 73 69 68 67 66
84 85 85 84 84 84 84 82 81 80 81 79 78 77 77 78 77 77 77 77 77 77 77 75 76 76 77 78 76 76 76 75 75 74 75 75 75 73 74 75 72 68 68
84 85 86 85 84 84 83 82 81 80 80 78 77 78 77 77 76 76 76 76 76 76 76 77 76 76 78 72 71 76 77 76 76 75 74 76 74 73 69 69 72 74 72
84 85 86 85 85 85 85 82 81 82 79 78 78 78 77 76 76 77 75 75 75 76 76 76 77 76 77 69 68 70 79 77 77 77 77 77 78 73 76 69 68 69 68
78 85 87 86 86 86 86 84 82 80 78 78 77 78 77 76 76 76 75 75 76 75 76 76 76 77 78 68 66 69 77 79 78 78 78 78 78 78 75 75 74 71 73
68 71 78 80 79 84 85 83 81 80 79 78 77 78 78 77 76 76 76 77 76 76 76 77 76 76 77 65 65 66 75 77 77 79 79 79 78 73 66 75 74 74 75
70 70 72 75 78 79 84 82 80 80 78 79 79 79 79 78 77 77 77 78 78 78 78 77 77 74 77 66 63 65 77 75 76 78 79 69 75 67 63 73 75 73 75
69 72 71 69 70 73 84 83 82 81 84 82 81 79 80 79 79 78 78 78 78 78 77 77 78 78 76 77 61 60 77 78 78 78 78 80 65 61 60 61 78 77 78
68 70 70 70 70 70 73 70 72 73 77 78 79 79 79 80 81 78 78 78 77 76 76 76 77 79 79 66 61 60 61 72 78 78 79 79 64 59 58 60 65 62 64
66 68 68 69 70 71 71 70 69 72 73 74 76 77 78 80 81 79 78 77 77 77 76 76 76 77 77 77 62 59 59 60 71 80 76 65 59 57 58 57 59 59 68
63 66 66 66 67 68 70 69 70 71 71 71 71 72 72 74 80 81 80 79 78 77 77 76 75 76 74 75 75 68 66 61 64 67 70 67 64 62 65 66 64 65 68
62 63 63 64 65 67 67 69 69 70 70 70 70 71 71 69 71 66 66 75 78 76 78 78 77 74 73 74 69 70 73 71 67 68 69 70 71 71 71 72 72 72 69
59 62 63 63 64 66 67 68 69 70 68 68 68 68 70 70 70 64 60 49 47 46 49 53 67 61 55 52 51 50 51 53 53 66 68 68 68 68 68 68 69 70 70

GFSMW_sfc_temp_048.txt.gz
Temp
75 77 78 78 77 76 74 73 73 71 71 69 70 70 71 72 73 74 75 75 76 76 74 74 74 75 74 76 76 74 73 72 72 72 72 72 73 75 76 77 77 77 78
73 75 76 77 77 75 74 73 73 71 73 74 72 72 71 72 74 74 75 76 76 76 75 74 74 75 74 73 75 75 73 71 72 70 70 68 72 73 75 76 77 76 77
73 74 75 77 78 75 74 73 73 73 74 73 71 71 72 72 73 73 74 75 76 77 76 75 75 74 73 72 74 74 74 71 72 72 70 67 68 68 72 74 75 75 76
75 75 76 76 78 76 76 75 74 73 75 74 73 72 72 72 71 72 73 74 76 76 76 76 75 75 73 73 74 75 74 71 71 72 73 71 70 69 70 73 73 74 75
75 75 76 78 79 78 77 76 74 74 75 74 74 74 73 72 71 72 73 73 74 76 77 76 75 75 75 74 74 74 73 72 71 72 72 71 70 69 69 69 72 73 74
75 77 78 79 79 81 77 76 73 73 74 74 74 73 73 70 70 70 71 72 73 74 76 76 75 75 75 75 74 75 74 72 71 71 72 72 72 71 70 69 69 71 74
76 76 76 77 78 78 76 76 74 73 74 74 74 74 74 71 72 71 71 70 72 73 74 75 75 75 75 76 75 74 75 74 73 71 72 72 73 72 71 71 70 70 71
77 78 78 78 78 78 78 76 74 74 74 74 74 74 75 75 75 73 72 73 73 74 75 75 76 76 76 76 75 75 75 75 75 74 72 73 72 72 72 72 71 70 70
77 78 80 80 79 79 78 76 75 75 74 75 75 74 75 74 74 73 73 73 73 76 75 76 76 76 76 76 75 75 75 75 74 74 74 73 73 73 73 72 73 72 70
79 80 81 81 81 82 81 78 77 75 76 76 76 76 75 75 75 73 73 72 73 75 75 75 76 76 76 76 75 75 75 75 75 75 73 73 74 73 73 73 72 71 72
79 80 81 83 82 83 82 79 78 76 77 76 76 76 76 76 76 74 74 74 74 74 74 75 75 76 76 76 75 75 76 75 75 75 74 73 73 75 73 72 72 71 71
80 80 82 82 83 82 82 81 79 78 78 77 76 76 76 76 76 75 74 74 73 74 75 75 75 76 76 76 75 75 77 75 75 75 75 75 75 73 73 73 71 71 70
77 79 81 81 82 82 81 81 80 79 80 78 77 77 76 76 75 75 75 75 75 74 75 75 75 75 76 76 76 76 76 76 77 77 76 76 75 75 74 73 73 72 72
75 78 79 80 83 82 79 79 80 80 80 79 78 76 76 76 76 76 76 75 75 74 74 75 75 76 76 77 77 76 76 76 77 77 77 77 76 76 76 75 74 74 72
75 77 78 80 81 81 78 78 79 79 80 77 77 76 76 76 76 76 76 76 75 75 76 75 76 76 77 79 76 77 76 76 76 76 77 78 77 74 75 78 76 74 73
72 78 79 80 81 81 81 78 78 78 79 77 77 77 76 76 75 75 74 75 75 75 75 75 76 75 79 72 70 75 77 76 76 75 76 77 74 73 69 69 71 75 73
70 77 80 82 83 83 82 79 78 79 77 76 76 76 75 75 75 75 74 74 74 75 75 75 75 75 76 68 68 70 79 77 77 77 77 77 79 74 77 70 68 68 68
65 77 83 83 83 85 85 81 80 77 76 76 75 76 75 75 75 75 74 74 75 74 75 75 75 75 76 67 66 68 76 78 78 78 78 77 78 78 76 77 77 76 75
67 70 79 79 79 82 81 79 78 77 76 75 75 76 76 75 75 74 74 75 75 75 75 76 75 75 76 64 64 66 76 76 77 79 78 78 78 72 66 76 76 76 77
69 68 75 75 77 76 80 78 77 76 75 76 76 77 76 76 75 75 75 76 76 76 77 76 76 72 76 65 62 65 77 76 77 78 78 69 75 66 63 75 76 75 77
68 70 69 72 75 78 79 76 76 76 78 78 78 77 77 76 76 76 76 76 76 76 76 76 77 77 75 75 61 60 76 77 77 77 78 80 65 61 59 61 77 76 77
66 68 70 69 70 73 78 75 74 75 76 76 76 76 76 78 79 76 76 76 76 75 75 75 76 78 78 65 62 59 61 71 78 78 80 79 63 59 58 60 63 61 63
64 67 67 69 70 71 74 73 72 74 75 75 75 75 76 77 78 76 75 76 76 76 75 75 76 77 78 79 61 58 58 60 71 80 75 66 59 57 58 57 58 58 66
63 65 65 66 67 68 70 70 72 73 73 73 73 73 74 75 77 78 78 77 76 76 76 76 76 77 77 77 77 72 67 60 64 66 71 67 65 63 66 67 65 65 67
62 63 63 64 66 67 69 71 72 73 72 72 73 73 74 73 74 72 72 77 79 75 77 78 78 75 75 76 69 70 74 74 69 69 71 71 71 72 72 72 72 73 72
60 62 63 64 66 67 68 69 70 71 71 71 71 70 73 71 73 66 62 49 48 48 49 53 67 67 58 58 54 52 53 54 55 68 70 70 70 69 69 69 69 70 67

GFSMW_sfc_temp_051.txt.gz
Temp
81 83 83 84 83 83 81 80 80 80 80 80 81 82 83 84 85 86 85 84 85 85 84 87 86 86 83 84 85 84 82 83 84 85 84 77 80 87 88 90 91 88 89
80 81 82 84 83 82 81 79 79 79 79 82 82 84 84 85 87 86 85 86 85 85 85 83 85 83 84 83 84 83 84 84 84 85 84 81 83 87 88 88 88 88 91
79 79 81 82 83 82 80 80 79 80 80 81 82 81 82 83 84 84 85 86 85 86 85 84 85 83 83 86 84 84 83 84 84 82 85 80 81 84 85 84 88 86 88
81 81 81 82 83 83 82 81 80 80 81 80 81 80 83 82 85 86 87 86 85 86 86 85 84 83 85 82 85 85 85 83 84 84 85 83 83 83 81 85 86 86 87
81 81 81 83 85 84 83 82 80 79 81 80 81 82 81 85 85 86 83 84 84 85 86 85 84 83 85 81 82 82 82 85 86 85 84 82 85 82 84 83 85 86 88
82 83 84 84 84 85 84 83 79 79 80 80 80 80 81 82 82 83 84 86 87 87 85 85 84 84 85 83 84 83 83 82 83 85 85 86 85 85 84 83 83 83 88
82 82 81 82 83 84 83 83 80 78 80 80 81 81 81 81 81 81 84 85 86 86 84 83 83 85 84 85 84 83 83 82 83 81 85 86 87 87 86 84 85 83 87
84 83 83 83 83 83 83 82 80 79 80 80 80 81 81 84 84 83 86 85 87 87 87 85 85 85 85 85 84 85 86 84 84 82 82 87 87 86 86 86 84 82 84
84 83 84 85 84 84 83 82 81 80 80 81 81 80 81 81 83 83 83 85 84 87 86 86 85 85 85 85 84 86 84 84 84 84 83 84 87 87 86 85 85 84 80
85 85 85 86 86 86 86 84 83 81 81 82 82 82 82 82 83 83 82 83 85 83 85 85 85 85 85 85 83 85 85 83 86 86 83 83 87 86 86 86 85 84 83
86 86 86 87 87 88 87 86 84 82 82 82 82 82 83 83 82 82 82 83 84 83 83 84 85 85 84 84 83 83 85 83 83 84 83 83 83 86 87 85 85 84 83
87 87 88 88 88 87 88 87 86 85 84 83 82 82 83 83 82 82 83 83 83 83 83 84 84 84 85 85 83 83 86 83 83 83 83 83 86 81 83 85 81 83 84
87 88 89 88 88 88 87 88 87 87 88 85 83 83 83 82 82 82 83 83 83 83 85 84 83 84 85 84 84 84 84 85 85 85 84 84 84 82 85 83 84 85 83
85 86 86 87 87 87 85 86 87 88 88 87 85 83 82 83 83 83 82 83 83 82 83 83 84 85 85 85 85 84 84 84 85 85 86 85 85 83 83 84 83 83 83
83 84 85 84 84 85 85 85 88 86 87 84 85 83 83 83 83 82 82 83 83 83 83 83 83 84 86 88 85 85 84 83 84 85 85 86 83 77 79 86 85 83 83
78 80 84 85 84 85 84 84 85 85 85 82 83 83 82 81 81 81 81 81 81 82 83 83 83 83 87 76 71 80 85 84 83 83 85 85 78 77 70 69 71 79 82
74 76 79 83 86 86 85 84 84 85 83 82 83 82 81 80 80 81 81 81 81 81 81 82 83 82 83 69 68 70 86 86 85 84 84 86 90 79 85 74 68 68 67
71 74 79 82 87 90 91 87 87 83 82 81 81 82 81 81 81 80 80 80 81 81 81 81 82 82 84 68 66 68 81 85 85 85 85 85 85 86 84 85 85 85 85
70 74 80 84 88 89 89 85 85 83 82 81 81 81 82 81 81 80 80 81 80 80 81 82 82 81 82 65 64 68 82 83 83 85 85 85 85 76 67 81 82 83 85
70 76 81 90 89 88 90 84 83 82 81 82 82 82 82 81 81 81 80 81 81 81 84 82 83 77 82 66 62 67 84 83 84 84 84 70 78 67 63 80 82 81 83
70 79 84 86 86 87 87 83 83 82 84 85 84 82 82 81 82 81 82 81 81 83 81 81 83 82 80 81 61 59 81 85 85 85 87 88 65 61 60 61 82 81 82
71 75 78 80 85 86 84 82 80 84 84 84 83 82 82 84 84 81 81 81 81 80 80 80 81 85 83 67 63 59 61 74 84 84 88 86 64 59 58 62 64 61 64
69 75 77 77 79 83 84 81 82 82 82 82 82 82 82 83 84 81 80 81 81 83 81 83 83 85 87 85 61 58 58 60 76 86 79 67 60 57 61 58 59 58 68
67 74 76 74 74 77 79 80 81 83 81 80 81 81 81 81 83 84 84 84 84 83 84 84 84 86 87 87 87 81 74 61 68 70 78 75 68 64 70 71 65 67 67
65 70 71 72 73 76 76 78 79 82 82 81 81 81 83 80 82 84 84 85 86 81 85 86 87 86 85 86 76 78 86 84 75 74 77 75 75 74 74 75 74 74 72
66 69 70 71 73 74 74 74 75 76 79 80 81 82 84 73 81 84 75 49 50 49 50 53 71 85 63 56 54 52 54 54 54 72 74 74 72 72 73 73 73 72 71

GFSMW_sfc_temp_054.txt.gz
Temp
89 90 90 91 92 90 88 87 86 86 87 87 87 89 90 91 92 94 92 91 91 90 89 91 89 91 92 92 90 90 86 92 92 91 91 91 92 93 96 99 99 93 96
88 88 89 91 91 89 88 86 86 85 85 88 88 91 91 93 94 94 92 92 92 90 91 89 89 89 91 88 88 88 91 92 92 88 91 85 89 94 97 97 97 95 99
87 87 87 89 90 88 87 86 85 85 85 88 89 88 90 91 90 91 92 92 92 91 90 89 88 89 91 90 88 88 88 89 90 89 89 85 85 90 93 91 95 93 95
89 88 88 88 90 89 89 87 86 85 86 86 87 85 88 88 92 93 95 94 92 92 92 90 89 88 93 88 89 91 91 89 88 90 92 89 87 83 84 92 94 94 93
90 89 89 90 92 91 90 89 86 85 86 85 86 87 86 92 94 94 91 90 90 91 92 90 90 88 88 88 88 87 87 91 92 91 91 89 92 90 88 87 89 93 95
91 91 92 92 91 92 91 90 86 83 85 85 84 85 86 89 91 90 91 92 94 93 90 91 90 89 90 88 88 88 87 88 89 92 92 92 90 91 90 89 88 89 94
92 91 90 90 90 90 90 89 86 83 85 85 85 85 86 86 87 88 90 91 93 94 91 89 88 91 88 90 87 87 88 87 88 86 92 94 93 94 93 90 91 89 95
95 93 91 91 90 90 89 89 87 84 85 85 85 85 86 90 90 89 93 93 94 94 93 90 91 90 90 90 89 91 90 90 89 87 87 93 93 94 93 91 89 87 91
94 93 93 92 91 90 90 88 87 85 86 87 86 85 86 87 90 90 89 93 92 95 93 92 90 91 90 90 89 91 89 89 88 89 88 89 94 94 94 94 92 88 84
95 96 94 93 93 93 92 90 89 86 87 88 88 88 87 87 88 90 88 89 92 90 92 90 90 90 90 90 88 91 90 88 91 92 89 88 94 93 93 93 93 92 89
96 96 96 96 95 95 93 92 90 88 88 89 88 88 89 89 88 88 88 88 89 90 88 89 89 90 90 90 88 88 90 88 88 89 89 87 88 92 94 94 93 92 91
98 97 98 97 96 94 94 93 92 91 90 90 88 88 89 89 89 87 88 88 87 89 88 89 88 89 90 90 88 88 91 88 88 88 88 88 91 87 87 92 88 90 91
99 99 99 97 96 95 93 95 94 94 94 91 90 89 89 89 89 88 88 88 87 87 90 89 88 88 90 89 89 88 89 89 89 89 89 88 88 86 90 90 91 93 90
95 97 97 97 96 95 93 94 95 96 96 94 92 89 89 90 90 89 88 88 88 87 88 89 89 89 90 90 90 89 89 89 90 90 90 90 89 88 87 88 87 88 88
92 94 95 95 94 94 94 92 94 95 96 94 92 91 89 90 89 88 88 88 88 88 88 88 89 89 91 94 90 90 90 88 89 90 90 91 88 80 82 91 89 88 89
88 91 93 94 94 93 93 92 92 94 94 92 92 91 88 88 88 87 87 87 87 87 87 88 88 88 93 79 74 83 90 89 88 88 90 90 81 80 72 71 71 77 85
84 86 88 91 94 95 94 92 92 94 92 90 90 90 88 86 86 87 87 86 86 87 86 87 88 88 89 71 70 72 90 90 89 89 89 91 96 84 91 74 69 70 69
80 82 87 89 91 96 100 96 94 90 90 89 88 88 87 86 87 86 86 85 87 86 86 86 87 88 89 69 67 70 87 89 90 90 90 89 90 90 90 91 90 90 90
78 80 84 86 87 92 95 96 93 91 89 88 87 88 88 86 86 85 85 86 86 86 86 87 86 86 87 67 65 70 87 87 87 89 90 90 89 79 69 87 86 87 89
76 77 82 86 89 89 95 95 93 90 88 88 88 88 88 87 86 86 85 87 87 87 90 88 88 81 87 68 63 69 89 88 90 88 88 73 82 70 65 84 85 84 87
74 81 86 87 89 92 96 94 92 90 90 90 90 88 88 87 87 86 86 86 86 88 86 87 88 88 85 85 61 60 85 90 92 92 94 95 67 64 63 62 85 83 84
73 85 87 91 94 94 94 90 88 90 89 89 89 88 87 89 90 86 85 85 85 84 85 84 87 90 88 69 62 59 62 76 89 91 96 93 64 59 59 64 66 62 66
68 78 83 86 90 92 92 87 87 89 88 88 87 86 86 87 89 85 84 86 85 88 86 88 88 91 94 91 63 58 58 61 79 91 84 65 60 56 62 58 60 59 82
64 67 73 74 76 82 87 88 88 88 87 85 85 86 85 85 87 90 89 89 90 88 91 90 91 93 94 95 95 85 75 62 70 73 83 79 70 64 71 77 74 83 86
64 65 64 70 71 74 76 79 81 87 86 85 87 87 89 86 87 89 89 91 92 83 92 94 95 94 94 95 83 84 93 90 80 81 87 87 85 84 85 84 83 82 78
64 63 64 66 68 71 76 78 81 81 83 85 88 90 92 89 90 89 85 50 50 49 49 51 69 95 69 59 58 57 54 55 55 81 85 79 78 78 79 79 78 77 73

GFSMW_sfc_temp_057.txt.gz
Temp
93 94 95 96 95 94 91 90 89 89 89 89 89 91 91 91 88 93 93 92 92 91 90 83 90 91 87 75 91 92 89 93 92 92 91 92 94 93 96 98 97 94 96
92 92 93 94 95 92 90 88 88 88 88 90 90 93 93 95 96 97 93 93 93 91 91 83 91 90 91 90 90 90 80 91 90 80 88 83 88 95 97 97 97 95 98
91 90 91 93 94 91 90 88 87 87 87 89 90 91 93 94 93 91 93 93 93 93 93 90 86 90 88 91 88 89 88 82 92 90 85 83 72 88 94 92 96 93 94
93 92 92 92 93 92 92 90 88 87 87 88 88 86 89 89 93 94 95 94 93 93 93 91 90 89 84 87 89 89 85 84 89 92 93 88 88 78 76 93 94 94 94
94 93 92 92 95 94 93 91 88 86 87 86 87 89 87 92 95 96 91 93 91 93 94 91 90 89 90 89 84 88 88 92 85 92 91 90 92 90 80 84 89 94 96
95 95 95 94 94 95 94 92 87 85 86 86 85 87 85 88 93 92 92 93 94 93 92 93 88 90 90 89 90 89 88 86 91 91 93 91 88 84 90 89 87 89 93
96 95 93 93 92 93 93 93 88 85 86 86 86 86 87 87 89 90 92 92 95 96 91 91 90 91 89 90 90 88 87 88 89 87 92 95 94 95 93 91 91 90 94
99 97 95 94 93 93 93 93 89 85 86 87 85 85 87 91 91 91 94 94 96 97 93 91 92 91 91 91 89 90 90 90 89 88 87 93 94 95 94 92 90 87 91
99 98 97 96 95 94 93 91 90 87 87 87 86 85 86 87 90 90 91 95 93 98 95 93 91 92 91 91 90 91 89 90 89 89 88 89 94 96 96 95 93 89 84
100 100 99 98 97 97 95 94 93 89 88 89 89 88 87 87 89 90 90 90 94 93 94 93 92 91 91 91 90 91 91 90 91 92 89 88 93 95 95 95 95 93 89
100 101 101 100 99 99 97 95 93 91 89 90 89 89 89 89 88 91 90 91 92 92 91 91 91 90 90 91 89 89 92 88 89 90 91 89 89 92 95 95 94 93 92
102 102 103 102 100 98 97 97 95 93 92 91 89 89 90 90 90 88 90 91 89 91 91 90 90 90 91 91 89 88 91 90 89 89 89 89 92 88 88 91 90 91 91
102 103 104 102 100 99 97 98 97 96 96 92 92 91 91 90 90 89 90 90 89 89 91 90 89 89 90 90 90 89 89 90 90 90 90 89 89 87 90 90 91 93 91
100 102 102 101 100 99 97 97 98 98 98 95 94 91 90 91 91 91 89 90 89 89 89 90 90 90 90 91 91 90 89 90 91 91 91 91 90 88 88 88 88 88 88
99 101 102 100 99 98 97 96 98 98 99 95 95 92 91 91 91 90 90 90 90 89 89 89 90 91 91 94 90 91 90 89 89 91 91 91 89 81 83 91 88 87 88
95 97 99 100 99 98 97 96 96 98 97 94 94 93 90 89 89 88 88 88 89 89 88 89 89 90 94 80 75 85 91 90 89 88 90 91 81 82 73 72 72 77 83
92 93 95 97 100 101 99 98 95 97 96 93 93 92 90 88 88 89 88 87 87 88 87 88 89 88 90 73 72 74 92 91 90 89 89 91 96 84 91 75 72 72 70
87 89 92 95 97 102 104 100 99 93 93 92 93 91 90 88 88 88 87 87 88 87 87 88 88 88 90 72 67 71 89 89 90 91 90 89 90 91 90 92 91 88 88
85 86 90 91 91 95 99 100 99 95 93 93 91 91 91 89 88 87 86 88 88 88 88 89 88 87 88 69 66 70 88 88 88 90 90 91 90 79 71 88 86 87 89
83 84 86 88 90 90 94 97 98 97 91 92 92 92 91 90 88 88 87 88 88 88 91 90 90 83 88 68 64 70 91 88 90 88 87 73 82 71 65 84 86 84 86
77 79 84 87 88 91 93 91 95 96 96 95 94 92 91 89 89 88 88 88 88 89 87 89 90 89 87 86 62 61 87 91 92 92 94 95 69 66 64 63 86 84 84
70 74 81 90 93 94 93 91 89 95 95 93 92 90 89 91 92 87 87 87 87 86 87 86 89 92 90 72 63 60 64 77 90 92 98 95 68 61 62 65 68 62 66
64 68 74 87 91 93 95 90 89 94 93 91 89 89 89 90 90 87 86 87 87 88 87 89 88 92 95 92 63 59 60 63 80 91 81 64 60 58 60 57 62 61 83
61 64 66 71 77 80 82 90 92 93 90 88 88 89 88 87 90 91 90 90 90 88 91 90 91 93 95 97 97 83 73 62 71 74 84 81 71 63 72 78 72 83 86
61 62 62 63 66 69 71 75 78 89 89 88 89 88 89 87 88 90 91 92 93 88 93 95 96 95 95 97 87 87 91 87 80 81 86 87 87 87 88 88 86 83 82
61 60 61 61 62 64 65 67 71 77 82 82 86 90 91 90 91 91 85 52 57 53 54 54 69 85 62 59 55 55 59 60 58 80 87 87 88 89 89 89 86 83 78

GFSMW_sfc_temp_060.txt.gz
Temp
92 93 94 95 93 90 87 86 86 83 84 84 84 80 85 79 84 83 80 86 87 88 85 83 85 82 76 80 82 84 82 81 83 79 80 81 86 86 84 85 85 87 86
90 90 92 93 93 89 86 85 85 83 83 85 83 86 81 80 76 85 83 88 86 87 87 85 86 80 77 81 81 74 77 82 82 78 76 74 77 82 86 85 87 87 87
89 89 90 91 92 87 85 84 84 82 83 85 84 85 86 84 82 85 86 88 89 86 86 85 86 84 82 82 82 78 80 78 79 83 78 73 70 75 81 84 83 84 83
92 90 90 90 91 88 87 84 84 83 83 84 83 83 83 82 85 82 84 87 88 88 87 87 87 85 77 83 83 84 81 77 78 81 85 81 80 73 72 80 82 84 87
93 90 90 91 92 90 88 86 83 83 83 82 83 84 83 86 85 87 83 84 85 88 89 86 86 83 82 82 83 83 83 80 78 79 80 81 80 79 76 73 77 81 83
93 92 92 92 92 92 89 87 82 81 82 82 82 82 81 83 85 84 85 85 86 87 87 86 85 85 83 83 83 84 84 82 81 80 80 80 78 79 77 76 78 78 81
94 92 90 90 90 89 88 87 82 80 82 82 82 82 82 82 82 85 83 85 85 87 85 85 83 84 85 85 83 83 84 84 83 83 81 80 81 81 81 79 78 78 80
96 94 92 91 89 90 88 87 82 80 82 83 80 81 83 85 85 86 87 86 87 86 85 86 85 85 85 84 84 84 84 83 83 83 82 81 82 84 83 80 78 75 78
80 94 94 92 90 90 88 87 83 82 82 83 82 80 82 83 84 84 86 87 86 89 86 86 86 86 85 85 82 82 81 82 83 82 83 82 82 83 84 83 82 78 73
73 79 96 94 93 93 92 90 87 83 83 83 84 83 82 83 83 83 84 84 87 87 84 85 85 86 86 86 84 83 83 81 81 84 81 82 82 83 85 84 82 81 78
74 70 76 97 95 94 93 92 89 85 84 85 84 83 83 83 83 84 83 84 85 87 87 87 86 85 85 86 84 83 84 83 82 84 84 81 82 83 83 83 82 81 81
77 72 70 80 96 94 94 93 91 90 87 85 84 84 84 83 84 82 85 85 85 86 86 85 86 85 85 85 84 83 85 83 83 83 83 84 87 82 82 82 80 82 82
78 76 76 81 96 96 94 94 93 93 92 87 86 85 85 84 83 83 84 85 84 85 87 86 84 84 85 84 84 84 83 83 84 84 83 83 83 81 82 82 81 81 82
79 82 87 89 97 94 92 92 94 95 94 90 88 85 85 85 85 84 83 85 85 84 85 85 85 85 85 85 85 85 84 84 85 85 84 84 83 82 82 82 80 82 81
93 96 95 91 93 92 91 92 94 93 94 90 88 86 85 85 85 84 83 84 84 85 85 84 85 85 86 89 84 85 84 83 83 84 85 85 84 79 79 84 81 81 81
95 95 94 93 88 92 92 92 92 93 93 89 88 87 85 84 84 83 84 83 83 84 84 84 84 84 89 79 75 82 85 84 83 82 83 85 78 79 74 72 72 77 79
91 87 90 92 77 73 79 92 92 93 91 89 88 86 85 84 83 84 83 83 82 84 83 83 84 83 85 73 72 74 86 84 84 83 83 85 91 80 85 75 72 71 71
84 85 89 89 87 72 73 96 95 90 90 88 88 87 86 84 84 83 83 83 84 83 83 83 83 84 85 72 68 71 83 84 84 84 84 83 83 83 83 84 83 81 81
74 84 87 88 86 88 89 91 95 91 90 89 87 87 87 85 84 83 83 84 84 83 83 84 83 83 84 69 68 69 80 83 82 84 84 84 83 77 72 80 80 81 82
75 78 81 82 85 86 90 89 91 92 88 89 89 89 87 86 84 83 83 84 84 84 86 85 85 80 83 69 65 69 85 82 83 82 82 72 79 71 64 78 81 79 80
69 73 74 77 80 86 89 85 87 88 92 91 91 89 88 86 86 84 84 84 84 84 83 84 85 85 83 83 63 61 83 85 84 84 84 85 68 64 63 63 81 80 81
65 67 68 73 80 83 86 84 83 87 89 90 89 88 87 90 90 84 84 84 83 82 82 82 84 87 86 71 62 60 65 75 84 84 87 85 67 63 63 64 67 64 64
62 64 64 67 69 73 77 81 85 86 87 89 86 87 87 87 87 85 83 84 83 84 83 84 83 86 88 87 65 59 60 64 78 85 77 63 60 59 58 59 62 60 74
61 62 63 62 63 66 71 75 76 84 86 86 85 86 86 85 86 88 86 85 85 84 85 84 85 85 87 89 87 75 68 63 68 72 78 73 72 64 69 72 65 75 79
60 62 61 59 60 63 67 70 72 75 85 87 87 86 87 84 85 86 86 86 87 85 85 87 87 87 86 88 78 78 81 80 74 76 80 80 80 80 81 82 83 79 80
59 60 60 59 60 62 63 66 69 68 74 86 87 87 88 87 86 85 78 54 60 55 58 59 80 77 60 53 52 52 60 62 59 75 79 79 80 80 81 82 83 83 79

GFSMW_sfc_temp_063.txt.gz
Temp
87 86 89 87 84 82 81 77 78 78 77 75 75 75 74 75 76 78 79 80 80 80 76 76 77 75 75 73 76 75 75 77 78 74 76 76 78 80 77 78 78 78 79
85 86 86 86 83 81 81 77 79 78 77 76 76 76 76 76 75 77 77 80 81 80 79 76 76 78 74 75 75 74 72 74 76 73 71 71 73 77 78 77 80 78 80
82 84 84 84 83 80 79 78 79 78 78 77 76 75 76 75 74 75 77 78 80 80 79 78 76 75 75 74 75 78 75 71 73 75 77 70 68 70 75 75 77 77 76
85 84 84 84 82 81 82 79 79 78 77 78 75 75 77 74 76 78 78 79 80 80 81 80 78 75 73 75 76 77 75 73 71 73 78 75 73 73 68 73 76 77 79
85 83 85 86 84 83 82 80 78 79 80 78 77 75 75 79 76 81 81 77 77 80 81 80 79 77 75 75 76 76 77 74 73 72 72 74 72 76 70 67 71 74 75
86 85 87 87 85 83 82 81 77 78 78 77 75 75 75 75 80 80 76 80 76 78 79 80 78 77 76 76 76 77 77 75 75 74 73 72 71 72 72 68 69 71 75
87 84 84 85 84 81 81 80 78 76 78 77 77 75 76 75 75 75 80 81 79 76 77 78 77 77 77 77 76 76 76 75 75 74 74 74 76 75 78 72 70 71 73
77 86 84 86 85 82 81 80 79 78 78 78 77 76 75 78 75 77 77 82 82 83 79 79 78 78 78 78 77 76 76 76 75 75 75 75 78 75 74 75 72 70 70
72 78 86 86 86 84 82 81 79 79 78 78 78 77 75 77 76 77 78 79 80 82 80 80 80 78 78 77 77 76 75 76 75 75 75 75 75 75 76 75 75 73 67
72 71 73 82 84 87 84 83 80 79 79 80 79 79 78 76 75 77 77 78 79 80 79 81 81 79 78 78 76 75 76 75 75 77 75 74 74 75 76 75 76 74 72
70 70 71 73 75 80 87 84 81 79 79 80 80 79 79 78 77 75 77 77 78 78 80 79 78 79 79 78 77 76 77 75 75 76 75 76 76 75 75 76 75 73 73
74 71 72 71 71 71 87 86 84 80 80 81 81 80 79 79 79 76 75 79 77 77 80 81 81 78 78 78 77 76 79 77 75 77 76 76 80 76 75 75 75 74 75
75 76 75 76 80 76 78 88 87 83 82 82 80 80 80 79 80 80 76 77 77 77 79 79 80 80 80 78 77 77 77 77 77 77 77 76 76 75 75 75 74 74 76
75 75 79 77 79 83 80 88 88 88 84 82 82 80 80 80 80 81 81 77 81 78 79 78 79 78 79 78 78 78 77 77 77 78 78 78 77 76 76 76 75 75 74
75 75 78 77 71 78 77 86 89 89 88 83 82 81 81 82 81 80 79 80 79 82 78 79 77 80 79 82 77 78 78 78 77 77 78 78 78 76 75 78 75 75 74
66 70 75 74 78 77 76 82 89 89 89 86 83 83 82 82 81 80 80 78 79 80 82 80 79 77 83 76 73 78 77 79 79 77 76 78 77 76 73 71 72 76 75
65 67 73 69 71 71 75 73 78 87 88 87 84 83 82 81 80 81 80 78 79 80 79 81 81 80 81 71 71 73 82 79 78 79 79 79 85 76 78 73 71 71 69
64 65 67 69 71 69 71 70 70 72 75 84 84 83 82 81 81 81 80 80 80 80 81 80 80 80 81 70 68 71 80 81 81 80 79 80 81 77 77 77 78 76 77
64 64 66 66 68 74 70 72 73 72 72 80 83 83 83 81 81 80 81 81 81 80 81 82 80 80 81 67 67 68 77 80 80 80 81 79 79 73 69 75 74 75 75
66 63 64 68 68 72 73 72 71 72 76 85 85 84 84 83 81 81 82 83 83 83 82 82 82 77 81 68 65 67 80 76 79 79 78 69 77 69 67 76 78 75 76
63 64 64 64 67 69 69 72 72 79 75 82 84 84 84 84 83 83 83 83 82 82 82 81 82 82 79 80 62 62 81 81 79 80 80 81 66 62 61 62 76 76 78
62 64 61 62 66 66 65 66 69 71 77 81 78 81 84 85 84 82 82 82 82 81 80 80 80 82 83 69 64 60 62 75 81 80 82 82 67 62 61 62 65 64 64
61 62 60 62 64 64 64 64 66 68 70 75 79 78 83 84 86 81 81 80 81 80 80 80 79 81 83 83 64 60 60 62 77 84 79 70 65 61 61 61 62 61 68
59 61 58 60 59 62 64 64 65 66 66 69 78 81 83 83 85 84 83 82 81 80 80 80 80 81 82 83 83 71 65 62 66 71 72 67 68 67 68 68 61 66 70
59 59 58 59 60 60 60 63 63 64 64 67 76 80 84 80 84 85 83 83 84 82 82 82 82 81 80 83 77 75 75 75 71 72 77 73 72 75 72 71 71 66 69
57 57 58 58 58 60 59 60 60 60 62 63 71 80 84 82 84 82 69 52 57 58 60 63 77 82 64 67 61 57 59 59 57 70 74 73 74 74 74 73 73 73 72

GFSMW_sfc_temp_066.txt.gz
Temp
84 85 84 83 81 81 78 78 76 74 75 73 72 71 73 73 74 75 77 76 77 76 74 74 74 73 72 72 75 73 75 75 74 72 72 72 75 74 74 75 74 75 76
82 84 82 82 82 79 77 77 78 74 75 74 73 74 73 73 74 76 76 78 78 77 76 74 74 75 72 73 73 72 71 72 73 71 68 66 71 72 75 73 75 74 76
78 83 80 80 81 79 76 77 77 76 75 75 74 73 73 73 73 73 74 76 78 78 76 76 74 73 72 72 73 73 72 70 71 71 75 65 65 66 71 72 73 75 72
83 82 81 78 79 80 78 78 77 76 75 75 73 73 72 70 72 73 75 75 78 78 78 77 75 73 72 73 73 76 72 71 69 71 75 71 70 66 66 71 72 73 74
82 82 81 80 80 81 79 77 77 76 77 76 76 75 72 73 73 74 75 74 75 77 78 77 76 73 73 73 74 74 73 72 71 69 70 70 69 69 67 66 70 72 72
80 84 83 82 80 81 80 77 76 76 77 75 73 74 73 73 72 73 73 73 74 75 76 77 76 74 73 74 74 74 74 72 72 71 71 73 72 70 68 65 66 68 73
79 82 82 79 79 79 79 77 76 75 77 76 73 73 75 73 73 74 77 76 75 74 75 75 74 74 74 75 74 74 74 73 73 73 72 71 71 71 71 69 67 67 70
79 82 83 81 79 79 79 78 76 76 77 76 75 72 74 74 74 74 78 80 80 79 76 77 76 76 75 75 74 73 74 74 73 73 73 72 72 72 71 71 69 68 67
75 83 84 83 79 80 79 79 76 77 77 77 77 76 73 73 73 74 75 78 80 79 76 77 76 76 76 75 74 73 73 74 73 73 73 72 73 72 72 71 71 70 66
72 81 81 82 81 81 81 80 79 78 77 78 78 78 77 75 73 74 74 75 76 77 76 77 77 76 75 75 73 73 74 73 73 73 73 72 72 72 73 73 71 70 69
72 75 75 75 79 82 81 80 79 78 77 78 78 78 79 77 72 74 76 76 75 77 77 78 77 77 76 75 73 73 73 73 73 73 73 73 73 72 72 73 72 71 69
75 75 76 75 75 79 81 80 80 79 79 79 78 78 78 78 76 73 75 76 75 75 77 78 78 78 77 75 74 73 76 73 73 74 73 74 77 73 72 72 73 72 71
71 72 73 73 78 77 82 82 81 79 80 80 79 78 78 78 78 78 73 74 76 74 75 77 78 78 78 77 76 76 75 74 74 75 74 74 74 73 73 73 72 72 73
70 67 71 74 77 74 73 77 82 81 81 80 79 78 78 78 78 80 79 72 73 76 75 77 78 79 79 78 78 77 75 74 75 75 75 75 74 73 73 73 73 73 72
66 66 68 72 72 73 73 75 80 83 81 80 79 78 79 79 79 79 79 78 74 77 77 76 77 78 79 80 78 78 76 74 73 74 75 75 76 74 74 76 73 73 72
64 66 67 68 69 75 73 72 72 77 82 80 79 80 79 79 78 77 78 77 77 77 76 75 77 77 81 74 71 76 77 76 75 74 73 75 74 73 71 70 71 75 73
63 63 63 64 65 68 69 70 71 71 82 80 80 80 79 78 78 78 77 77 77 78 78 77 76 76 78 70 69 71 78 76 77 77 78 76 81 74 76 70 68 68 68
60 60 62 63 66 67 70 70 72 72 72 74 80 80 80 78 78 78 77 77 78 77 78 78 79 78 78 68 67 69 78 76 77 78 78 77 78 76 75 75 74 74 74
61 61 63 63 64 67 68 70 71 69 69 72 74 79 81 79 79 78 78 78 78 77 78 79 78 78 80 66 66 67 76 78 77 78 79 78 78 72 66 76 73 74 75
62 60 63 64 65 66 65 68 69 68 67 71 72 76 81 81 79 80 79 80 80 79 79 79 80 75 79 67 64 66 78 77 78 78 78 69 75 67 64 74 76 74 76
62 62 60 62 64 64 62 64 66 67 68 70 73 76 81 82 82 81 81 81 80 80 79 79 80 80 78 79 62 61 78 79 78 77 78 79 64 62 60 62 79 77 79
61 60 57 58 62 63 60 61 62 63 66 66 67 70 76 82 84 82 81 81 80 79 79 78 78 80 81 68 64 60 62 73 80 79 80 80 64 59 59 59 63 61 63
58 60 57 57 59 63 63 61 61 62 63 64 65 67 73 78 78 82 81 80 80 80 78 78 78 78 80 81 63 60 60 62 75 82 77 67 62 59 60 59 62 60 66
53 58 57 58 58 60 61 62 63 62 60 61 63 65 69 78 80 81 82 81 80 79 80 78 78 79 80 80 82 72 66 62 65 71 76 72 67 66 69 67 64 66 68
53 55 55 55 57 58 59 60 61 60 59 60 61 64 69 74 81 83 82 82 83 81 80 81 80 79 78 80 74 74 76 75 70 71 75 68 67 69 68 68 69 65 64
53 53 57 55 54 54 57 57 55 56 56 58 60 62 63 67 77 82 71 53 56 59 58 61 74 81 69 62 58 56 56 57 57 64 72 72 73 72 74 74 72 70 67

GFSMW_sfc_temp_069.txt.gz
Temp
81 82 81 81 79 78 77 77 76 73 74 71 70 70 71 71 72 73 74 73 74 74 72 71 72 71 70 71 73 71 72 71 71 70 69 70 72 71 72 72 72 74 74
77 80 80 80 78 77 77 76 76 73 74 73 71 72 71 71 72 74 73 73 76 75 74 73 72 72 71 71 71 71 69 69 70 69 66 65 69 70 72 71 73 72 74
77 78 77 78 78 77 75 76 76 74 73 73 72 70 71 72 71 72 73 75 75 75 76 74 73 72 70 70 71 71 71 69 69 70 69 63 63 64 69 71 70 72 71
80 79 77 77 78 77 77 77 76 74 73 73 72 71 71 69 71 72 71 74 76 76 74 75 74 72 71 71 72 73 70 70 69 69 72 69 68 65 66 68 70 71 72
80 78 78 78 80 79 77 77 75 74 75 74 75 72 70 71 72 72 72 72 74 75 77 75 74 73 71 71 72 72 71 70 69 68 68 68 67 66 65 65 68 70 71
78 80 80 80 79 80 78 77 75 74 74 74 72 72 72 71 71 70 71 71 72 73 74 76 74 73 72 72 72 72 72 71 71 69 69 69 69 68 66 64 64 66 71
76 78 78 78 78 78 77 76 75 74 74 74 73 72 74 72 71 71 71 71 71 72 73 73 73 72 73 73 72 72 72 72 71 71 70 70 69 69 68 66 65 66 68
76 79 80 78 78 78 77 76 75 75 75 75 73 72 73 74 73 72 72 74 76 76 75 74 74 73 73 73 73 72 72 72 72 72 71 70 70 70 69 69 68 67 66
76 80 80 80 78 78 77 76 75 76 76 76 75 72 73 73 73 72 72 75 76 77 75 75 74 74 74 73 73 72 72 72 71 72 71 71 71 70 70 69 69 69 64
73 76 80 79 80 80 79 79 77 76 77 77 77 75 74 73 72 72 72 73 74 75 74 74 73 74 74 74 72 72 72 72 71 72 72 71 70 71 70 70 69 68 68
73 72 77 81 80 81 80 79 78 77 77 77 78 78 75 72 71 72 73 73 74 74 74 74 74 74 74 73 72 72 72 72 71 71 71 71 71 70 70 70 71 69 68
73 72 73 74 75 76 78 77 79 78 77 78 78 77 77 74 72 72 72 73 73 73 74 74 74 74 75 73 73 72 74 71 71 72 71 71 74 71 71 70 71 70 69
67 66 68 67 69 70 72 72 74 75 78 78 77 77 77 76 75 73 71 72 72 73 73 73 74 75 76 75 74 74 72 72 72 73 72 72 72 71 71 71 71 71 72
64 65 65 66 67 70 71 70 74 76 75 78 77 76 76 76 77 77 74 72 72 73 73 73 74 75 76 77 76 74 73 73 73 73 73 74 73 72 72 72 72 71 71
62 62 62 64 66 68 71 73 73 75 76 76 77 76 77 78 77 77 77 74 71 74 74 74 73 75 76 78 76 76 74 74 73 73 74 74 74 73 72 74 71 71 70
60 61 62 64 65 66 67 68 71 72 77 77 76 77 77 76 76 76 76 76 76 72 71 73 75 74 78 73 71 75 76 75 73 73 73 74 73 72 70 69 70 73 71
58 59 60 62 63 64 67 67 69 70 72 77 77 77 75 75 76 76 75 75 76 76 75 74 73 75 77 69 69 71 79 77 76 75 74 73 78 72 74 70 68 68 68
57 58 60 60 62 65 67 67 69 69 71 72 77 78 77 74 75 76 75 75 76 76 75 76 76 75 77 68 67 69 76 78 77 77 76 75 76 73 73 73 73 72 73
58 58 60 61 63 64 64 66 70 69 68 70 70 74 78 76 76 75 76 76 76 75 75 76 76 76 77 65 65 67 75 76 76 76 76 76 76 71 65 73 72 72 74
59 59 60 62 62 62 62 64 65 65 65 67 69 71 72 76 76 76 77 77 75 77 77 76 77 74 77 66 63 65 77 75 76 77 76 68 74 66 63 71 74 71 74
57 61 60 60 62 62 61 61 62 61 63 66 67 67 69 70 72 78 79 78 78 78 76 76 77 77 76 76 61 61 76 78 78 77 78 77 64 61 59 61 75 74 76
54 60 58 59 60 61 60 59 59 61 63 64 65 66 67 70 75 77 80 79 78 76 76 76 76 77 78 66 62 60 62 73 78 78 79 78 62 59 58 59 62 61 61
52 56 57 58 60 61 60 57 59 60 60 61 62 64 65 67 71 73 77 78 78 78 75 75 76 76 78 79 62 59 59 62 73 80 76 67 60 58 58 58 60 59 65
51 53 55 55 57 58 58 58 60 59 57 58 60 62 64 64 69 72 73 73 73 73 73 73 73 72 77 78 79 69 64 61 64 70 73 71 66 64 67 65 62 65 68
51 52 53 56 57 55 56 57 58 57 55 56 59 60 61 62 63 67 73 74 77 76 75 78 75 74 76 78 72 73 74 73 69 70 73 74 69 72 70 68 70 67 66
51 52 55 55 54 51 51 53 52 52 53 54 57 57 58 60 61 65 68 57 58 56 57 57 70 78 68 60 56 54 54 55 54 66 72 73 73 72 73 73 71 70 67

GFSMW_sfc_temp_072.txt.gz
Temp
79 78 78 78 77 74 73 73 73 71 72 71 70 71 71 72 73 74 75 75 75 75 73 73 74 74 74 74 75 75 75 74 74 74 74 75 76 76 76 77 77 78 79
76 76 77 77 77 74 74 72 73 71 73 74 72 73 72 73 73 73 75 75 75 74 74 73 74 74 74 74 74 74 73 73 74 72 70 70 73 75 77 76 77 77 79
74 76 75 77 77 74 74 73 73 72 73 72 72 71 72 72 73 73 74 75 76 76 75 75 74 73 73 73 74 74 74 73 72 74 73 70 69 69 74 76 76 76 76
76 76 76 75 75 75 76 75 74 72 73 72 72 72 71 71 72 73 73 76 76 76 76 75 74 74 73 74 74 76 74 74 73 73 75 73 73 71 71 74 75 76 77
77 75 76 76 77 77 76 76 74 72 73 73 73 73 71 72 72 73 73 74 75 77 76 76 75 74 74 74 75 75 74 74 73 74 73 72 72 71 71 70 73 76 77
75 77 78 77 77 78 77 76 73 72 73 73 72 72 72 71 71 72 73 73 74 75 76 77 76 75 74 74 75 76 76 75 74 74 74 74 74 73 72 70 71 71 76
75 76 76 76 76 75 76 75 73 72 72 72 72 72 73 72 72 72 73 72 73 74 75 76 75 73 75 75 75 75 75 75 75 75 75 74 74 74 73 72 72 72 75
76 77 77 76 76 76 76 75 74 73 72 73 72 72 72 74 73 73 73 74 74 76 76 76 76 76 75 76 75 75 76 76 76 76 75 76 76 75 74 74 73 73 73
74 76 76 77 76 76 75 75 74 74 74 74 73 71 72 72 73 73 74 74 75 78 77 76 76 76 75 75 75 75 75 75 75 76 76 76 77 76 76 75 74 74 72
70 74 76 77 77 78 77 77 76 75 75 75 75 74 73 73 73 74 73 74 75 76 76 76 76 76 75 76 75 75 75 75 76 76 75 75 76 76 75 76 75 74 74
70 72 75 78 78 79 78 77 77 76 75 76 75 75 73 73 72 74 74 74 75 75 75 76 77 76 75 75 73 74 75 75 75 75 75 75 75 76 76 76 76 75 74
69 70 71 71 72 72 76 74 77 77 77 76 75 74 73 73 73 73 74 74 75 75 75 76 76 76 76 76 76 75 77 75 75 76 75 75 77 75 75 75 75 75 75
63 65 67 67 69 71 72 71 73 75 77 74 76 75 74 73 73 73 73 73 74 74 75 75 75 76 76 76 76 76 76 76 76 76 76 76 76 75 76 76 76 76 77
61 62 62 64 66 68 70 71 73 72 74 76 76 75 74 75 75 74 73 73 74 74 74 75 76 76 77 77 77 76 76 76 76 76 76 77 76 76 76 76 76 77 76
60 61 61 63 64 65 67 69 72 73 73 75 76 75 75 75 75 74 74 74 74 75 75 75 76 76 77 79 76 77 76 76 76 77 77 77 76 72 74 78 77 76 75
59 60 61 62 63 64 66 68 69 70 75 75 75 76 75 74 74 74 73 73 73 73 73 74 75 76 79 71 70 75 77 76 76 76 76 77 74 73 69 68 69 74 76
56 58 59 60 61 63 65 65 67 70 70 74 73 73 75 74 74 74 73 73 73 73 73 73 74 74 76 68 68 70 78 77 77 76 77 77 80 74 78 70 67 68 67
53 55 58 59 61 63 64 64 68 70 70 71 72 74 74 74 74 74 73 73 74 73 72 73 73 74 76 67 66 69 77 78 78 77 77 77 78 77 77 77 77 77 77
52 54 58 60 61 62 63 63 66 66 67 68 68 72 75 74 74 73 73 74 74 74 74 75 73 73 74 65 64 67 76 77 77 78 78 78 77 70 65 77 76 76 77
53 54 56 60 61 63 61 61 63 64 63 65 66 67 69 72 74 73 73 73 74 75 76 76 75 71 74 65 62 65 77 76 77 77 76 67 75 65 62 74 76 75 77
52 54 55 57 60 61 61 59 60 61 62 64 65 67 67 68 71 73 74 72 73 73 75 75 76 75 73 74 61 60 75 77 77 77 78 79 63 61 58 62 77 75 77
51 54 53 54 58 60 60 59 58 61 61 62 63 65 66 67 68 69 70 75 75 73 73 74 75 77 76 65 62 59 61 71 77 77 79 78 61 58 58 59 62 61 62
51 53 52 53 57 59 59 58 59 59 59 59 60 62 65 66 67 67 69 72 74 76 74 75 75 76 78 77 61 58 58 61 74 80 75 66 59 57 59 58 59 58 69
49 51 51 51 53 58 60 58 59 59 57 56 58 60 62 62 64 67 66 69 73 72 74 75 75 76 77 78 78 71 66 61 65 70 74 71 68 65 69 68 65 69 72
49 50 49 50 53 58 57 56 57 56 54 55 56 58 60 60 61 63 65 67 71 73 74 76 76 74 75 77 69 69 72 71 67 67 74 76 75 74 74 73 74 73 72
49 49 50 51 53 57 56 54 54 53 52 53 55 56 56 57 59 61 63 57 55 53 52 54 68 76 65 59 54 53 52 53 54 66 72 72 74 74 74 75 75 74 71

GFSMW_sfc_temp_075.txt.gz
Temp
81 84 85 85 84 83 81 81 80 80 81 81 82 83 83 84 85 86 84 84 84 83 82 84 85 85 86 85 84 85 84 87 87 87 89 88 88 88 89 91 91 90 90
79 81 84 85 84 82 81 80 80 80 80 83 83 84 84 85 86 85 84 84 84 83 83 82 84 84 86 84 83 84 86 87 87 86 85 83 88 92 92 91 90 89 91
81 77 82 83 84 82 81 80 80 80 81 82 82 81 82 83 83 84 85 85 85 84 83 83 84 84 85 86 83 84 83 85 85 82 84 82 81 84 90 89 92 88 90
83 80 82 83 84 83 83 82 81 80 81 81 81 80 83 83 86 85 86 86 85 85 84 84 84 83 86 83 85 86 86 84 85 85 87 83 83 82 83 91 91 91 92
84 83 82 84 86 85 84 83 81 80 81 80 81 82 82 86 87 86 83 84 83 85 86 83 83 83 85 84 84 83 83 87 87 87 87 84 86 83 83 83 87 92 94
84 85 86 86 85 86 85 83 80 79 80 80 81 80 81 83 84 84 84 85 86 87 85 85 84 83 84 83 85 84 83 84 85 87 87 87 85 86 85 84 85 85 91
83 84 83 84 84 84 83 83 80 79 80 80 81 81 81 82 82 83 85 84 85 86 85 84 82 81 83 84 84 83 83 84 85 83 88 88 88 87 86 86 86 86 90
85 85 84 84 83 83 83 82 81 79 80 80 80 81 81 85 86 84 87 86 87 87 86 85 85 84 84 84 83 85 86 85 85 83 82 88 88 88 88 86 85 85 88
84 85 85 85 84 83 83 82 81 80 81 82 81 80 81 81 84 84 84 87 85 88 86 86 85 85 84 84 84 86 81 82 84 85 84 86 89 88 89 88 87 85 82
78 84 86 85 85 86 85 84 83 81 82 83 83 83 82 82 83 83 83 84 86 85 86 85 86 85 85 84 83 84 84 83 86 87 83 84 88 87 88 88 88 86 85
77 81 85 87 86 86 86 85 84 82 82 82 83 83 83 83 82 83 83 84 85 85 84 84 85 85 85 84 83 83 85 83 83 84 83 83 84 87 88 88 88 87 86
70 76 79 83 85 83 85 85 85 84 83 82 82 79 82 83 83 81 83 84 83 85 85 85 84 85 85 85 83 83 85 82 83 84 83 83 86 83 83 86 83 85 85
65 66 69 70 75 81 84 86 82 86 87 82 81 77 78 80 83 82 83 83 83 84 86 85 84 84 85 84 84 84 84 85 85 85 84 84 84 82 86 84 86 87 86
62 62 63 65 66 70 74 79 82 86 87 87 84 79 77 77 82 83 83 83 82 83 84 84 84 85 86 85 86 85 84 85 85 85 85 85 85 83 84 85 84 85 84
61 62 61 62 64 66 68 73 77 78 81 83 84 83 82 80 78 80 83 83 82 83 83 83 84 85 86 89 85 85 85 84 84 85 85 86 84 77 79 87 85 84 84
61 63 63 63 63 64 65 67 69 73 74 76 81 83 83 82 81 81 81 81 81 81 82 82 83 84 87 77 72 80 86 85 84 84 85 85 78 76 70 69 71 77 82
61 61 62 63 63 63 64 64 65 70 74 75 77 80 81 80 80 81 81 80 80 81 80 81 82 82 84 70 68 70 87 86 85 84 85 87 90 80 86 72 68 68 67
60 61 63 65 66 67 65 64 65 67 72 76 76 78 79 79 81 80 80 79 81 80 80 80 81 81 83 69 66 68 83 86 86 86 86 85 86 86 85 86 86 86 86
61 62 64 65 66 68 69 66 64 65 65 68 71 73 75 79 80 79 79 80 80 80 80 81 80 80 81 66 65 68 83 85 84 86 86 86 85 76 67 83 84 84 85
61 61 63 65 66 67 69 68 68 68 67 64 65 69 73 73 77 79 79 80 80 81 83 82 82 76 80 67 62 67 83 83 85 84 84 69 80 69 63 79 83 82 84
60 60 62 62 63 65 67 65 67 67 67 68 66 65 69 69 70 75 78 79 79 79 80 80 81 81 80 79 61 60 80 84 85 85 87 87 65 62 59 63 83 82 84
58 60 60 61 63 64 65 65 64 67 66 66 66 66 66 68 70 69 69 72 74 74 76 77 80 84 82 67 63 59 60 73 83 84 88 86 63 58 58 61 67 62 65
58 59 59 59 61 62 63 62 65 67 65 62 61 65 65 66 67 66 69 74 76 78 78 79 78 81 86 85 61 58 58 60 77 85 80 68 58 57 61 58 61 59 79
57 58 58 57 58 61 61 63 65 66 64 62 60 62 64 64 67 67 68 67 70 78 79 77 80 82 83 85 86 80 71 61 67 73 80 76 71 68 75 75 68 78 82
56 57 56 57 57 59 60 63 65 65 63 63 63 63 64 65 66 68 68 71 72 67 73 73 76 79 81 84 75 77 84 77 73 75 81 82 81 81 80 81 83 83 83
52 53 54 54 55 58 60 62 65 62 61 61 63 64 63 61 65 62 67 59 54 52 51 49 55 72 65 58 54 53 52 53 54 72 79 80 82 80 77 77 78 80 77

GFSMW_sfc_temp_078.txt.gz
Temp
90 92 92 92 92 91 89 87 87 86 87 88 89 90 90 92 93 94 90 90 91 89 88 93 91 92 93 90 91 92 89 93 94 93 95 96 96 97 100 102 102 97 99
88 90 91 92 92 90 88 86 86 85 86 89 89 92 92 93 94 94 91 91 91 89 90 89 91 90 93 89 90 89 93 95 95 90 90 90 92 97 101 101 100 98 102
88 88 90 91 92 90 88 87 86 86 86 89 89 88 89 90 90 91 92 91 90 90 89 88 92 89 90 92 89 90 88 92 93 89 88 80 86 92 97 95 100 96 101
90 90 90 90 92 91 91 88 86 86 87 87 88 86 88 89 93 92 93 92 91 90 89 90 89 88 93 90 90 93 91 88 90 93 96 89 87 87 89 95 96 98 99
91 91 90 91 93 93 92 90 87 86 87 86 87 88 86 92 93 94 89 89 89 90 91 89 89 88 92 89 90 89 88 93 92 94 94 91 94 90 89 89 92 97 100
92 92 92 93 93 94 93 91 86 84 86 86 85 85 86 87 91 90 90 92 93 92 90 90 89 88 90 89 90 89 88 89 90 93 92 93 91 91 92 92 90 92 95
88 91 91 91 92 92 92 91 87 84 85 86 86 86 86 86 86 86 90 91 93 93 89 89 87 90 88 88 89 86 88 88 90 87 93 95 95 95 94 92 92 93 96
93 92 92 92 92 92 91 91 88 84 85 86 85 86 86 90 90 90 93 93 94 94 93 90 90 90 90 90 89 90 91 90 90 88 88 94 96 96 95 92 90 91 93
91 92 93 93 93 92 91 90 88 86 86 88 87 86 86 86 90 90 90 93 92 95 92 92 90 90 90 89 88 91 88 88 88 90 88 90 96 95 97 95 94 90 88
84 92 93 93 94 94 94 92 91 88 88 88 89 89 88 87 88 89 87 89 92 91 92 90 91 90 90 90 88 90 89 87 90 92 89 88 94 94 95 95 95 93 90
75 79 89 92 94 95 95 94 92 90 89 89 88 88 90 89 88 88 88 88 90 90 90 90 89 89 90 90 88 88 90 88 88 89 88 87 89 92 95 95 94 93 93
65 66 70 83 93 93 94 94 94 92 92 89 86 87 87 89 90 88 89 89 88 90 90 90 87 90 90 90 88 88 91 88 88 88 88 88 92 87 88 92 89 92 91
64 65 66 66 69 73 87 93 93 94 93 89 87 87 87 88 88 89 89 89 88 88 91 90 88 88 90 89 89 89 89 89 89 89 88 88 88 86 90 90 92 93 92
64 65 64 63 64 67 70 74 86 93 94 94 91 85 87 87 86 89 89 89 88 87 88 89 90 90 90 90 90 90 89 90 91 90 90 90 89 88 87 88 88 89 89
67 67 66 65 64 65 67 70 72 77 86 88 91 90 89 87 87 83 87 89 88 88 88 88 89 90 91 94 90 90 90 89 89 90 90 90 87 80 82 91 89 88 88
69 70 71 71 69 68 67 65 66 69 77 81 84 87 88 88 86 85 79 86 87 87 87 87 88 88 93 79 73 83 91 90 89 89 90 90 81 80 72 71 72 78 85
68 69 71 72 73 72 71 68 66 69 70 75 82 82 83 84 84 86 85 84 84 86 85 86 87 87 88 73 70 72 90 91 90 89 90 92 97 84 90 73 69 69 68
68 69 72 72 73 76 72 71 70 69 68 67 68 69 77 80 81 81 82 84 85 85 85 85 86 86 89 71 69 70 87 89 89 91 91 89 90 92 90 90 90 89 88
70 70 72 73 73 74 75 74 73 75 69 67 66 67 68 71 76 80 79 82 81 83 85 86 85 85 86 67 66 70 86 87 87 89 91 91 90 79 69 88 88 89 90
70 69 70 73 73 72 75 73 75 74 74 73 68 68 69 66 68 75 75 78 82 83 86 86 87 80 85 69 63 68 88 87 89 88 88 73 83 71 66 84 86 85 88
68 68 69 69 71 72 72 70 72 73 74 75 74 72 69 67 68 67 72 75 77 80 82 84 85 86 84 84 61 60 84 88 90 91 92 93 68 64 61 63 87 84 88
67 68 67 67 69 70 70 68 67 71 73 73 72 72 72 71 70 70 69 69 74 74 77 77 79 86 86 70 65 59 61 75 87 89 94 92 66 60 60 64 69 63 66
65 67 67 66 67 68 68 66 67 68 70 71 70 71 72 73 74 72 71 69 70 75 76 74 74 77 87 91 63 59 59 60 77 89 84 67 59 56 61 58 61 60 82
62 64 64 64 63 66 66 66 67 68 68 68 69 71 71 71 73 76 78 79 76 74 78 83 74 75 78 82 94 82 73 62 69 72 80 79 72 65 74 78 71 80 85
59 58 59 57 55 57 60 65 66 68 68 69 70 70 73 74 72 73 76 75 75 73 70 70 74 74 76 79 62 63 79 82 76 75 85 85 86 86 87 87 88 89 87
57 58 56 57 58 59 60 62 61 58 61 66 70 72 72 72 74 73 74 63 55 51 50 49 54 71 62 55 54 51 53 54 56 73 83 85 87 88 89 88 89 89 85

GFSMW_sfc_temp_081.txt.gz
Temp
91 93 93 96 95 93 91 90 90 88 90 90 91 93 93 93 85 85 92 92 93 92 90 90 92 90 83 81 92 90 90 90 95 84 95 95 96 97 99 102 102 97 99
88 89 91 94 95 92 90 89 89 87 88 91 91 94 92 96 89 84 92 93 93 91 92 91 88 90 81 90 90 83 88 94 90 85 79 83 92 97 100 100 100 97 102
86 85 86 90 95 91 90 88 88 86 88 91 91 91 91 93 93 88 93 93 93 92 91 90 86 91 86 89 90 91 81 81 93 88 86 79 79 84 97 95 98 96 99
86 88 88 88 95 92 92 90 88 87 88 89 90 85 88 90 93 91 85 88 93 93 91 91 91 90 86 84 91 94 90 88 83 93 88 91 89 80 85 96 96 97 98
86 87 90 89 97 95 93 91 88 87 88 88 86 90 83 84 93 82 89 82 90 92 92 92 91 89 88 91 90 90 89 84 89 89 91 91 95 93 85 88 92 97 100
89 86 90 90 97 96 95 93 88 86 87 87 87 87 88 87 84 88 90 86 89 93 91 91 90 90 90 90 91 90 90 88 89 90 91 83 79 84 89 89 90 93 96
85 88 84 87 95 94 94 93 88 85 87 87 87 87 87 88 88 89 92 81 79 86 89 90 89 90 89 90 91 88 88 89 89 89 90 91 94 95 92 85 93 83 96
86 83 92 92 89 95 94 93 89 86 87 87 87 88 88 90 91 91 87 86 83 84 90 91 91 90 91 90 90 90 91 91 90 88 88 89 95 97 95 89 91 87 93
88 88 91 88 91 93 94 93 91 88 88 89 88 87 88 88 91 92 92 94 90 85 93 93 91 91 91 91 89 90 90 89 88 90 88 90 94 98 98 96 95 90 82
75 70 82 92 90 91 96 95 94 90 90 90 90 90 89 89 89 91 90 92 93 93 79 92 90 91 91 91 89 89 90 88 91 92 88 88 93 97 96 96 96 95 91
70 70 77 79 81 95 97 97 95 93 91 91 91 90 91 91 90 90 90 90 91 91 92 91 91 90 90 91 88 89 85 88 88 88 90 89 89 92 96 97 96 94 94
68 66 70 72 73 72 81 94 97 96 95 93 91 91 90 91 91 89 90 90 89 90 90 91 89 90 90 91 89 89 92 90 88 89 89 89 92 87 88 91 90 91 90
70 67 64 64 67 73 76 74 74 88 98 94 94 91 90 89 90 91 90 90 89 89 91 91 88 89 90 90 90 90 89 90 90 90 90 89 89 88 90 90 91 93 92
66 68 64 63 64 65 69 74 78 81 76 86 94 91 90 90 90 91 91 90 90 89 89 90 91 90 90 91 91 91 87 88 91 91 91 91 90 89 87 88 88 89 88
71 68 66 64 64 65 64 66 71 75 78 82 83 90 90 90 90 89 89 91 90 90 89 89 90 91 92 95 90 91 91 87 90 91 92 92 89 81 83 90 87 87 88
73 74 74 74 72 69 68 67 67 70 73 73 77 76 82 79 89 88 88 87 87 90 90 88 89 89 94 81 75 83 92 91 90 89 90 91 82 81 73 73 73 77 84
72 73 75 75 77 76 75 71 70 72 70 70 70 71 74 76 78 83 85 86 84 87 87 88 89 88 89 75 71 74 92 91 91 89 88 92 97 84 91 74 72 72 70
73 74 76 76 77 80 78 74 74 73 71 69 69 69 70 73 76 76 79 81 84 82 84 87 87 88 90 72 69 70 88 90 90 90 91 90 90 91 90 91 90 87 87
74 75 77 77 76 77 78 77 78 76 78 74 70 69 69 69 72 74 72 76 80 79 80 82 84 84 87 69 67 70 87 88 87 89 90 90 90 80 72 88 88 88 90
74 73 75 77 77 75 78 76 77 77 76 76 76 76 72 70 70 70 72 73 76 79 81 83 81 79 85 71 65 68 88 87 89 88 87 74 82 72 67 85 86 84 87
72 73 74 73 73 75 75 72 73 73 74 76 77 76 76 74 72 70 72 71 73 76 78 80 81 83 82 83 63 61 84 87 89 91 93 94 69 66 64 63 86 84 86
71 72 72 72 73 73 72 70 69 72 72 73 74 74 75 76 78 73 73 74 73 72 74 75 77 79 81 71 68 60 61 76 85 88 94 93 67 62 62 66 71 66 67
68 70 70 70 71 71 70 68 68 70 70 70 70 72 74 75 75 74 75 78 79 72 71 77 75 74 76 80 66 60 59 60 75 88 83 63 60 57 60 58 61 60 82
65 65 65 64 64 64 66 66 67 68 67 68 69 72 73 73 75 79 79 80 81 80 80 76 71 70 75 77 79 71 68 64 68 68 80 78 71 61 68 76 71 80 86
63 62 61 61 60 61 61 63 66 66 65 66 68 71 75 75 76 77 78 78 78 74 75 75 76 76 76 72 58 58 66 63 62 59 74 84 86 85 87 89 89 90 87
62 62 60 60 60 59 60 62 64 62 60 63 66 69 70 73 75 76 76 65 58 57 53 50 59 74 61 55 51 48 50 52 53 61 71 75 79 87 89 89 90 90 85

GFSMW_sfc_temp_084.txt.gz
Temp
92 93 94 95 93 90 88 88 84 85 85 86 84 82 84 82 81 86 88 81 82 88 86 83 84 79 81 80 85 83 82 84 84 82 80 83 87 88 87 89 89 88 91
89 90 92 93 92 88 87 86 84 83 85 85 84 86 82 86 84 82 87 86 84 88 87 81 81 78 78 84 83 78 81 83 83 79 78 73 79 85 90 87 90 88 90
86 87 87 91 91 87 86 85 83 83 84 86 86 88 86 83 83 81 86 89 87 88 82 86 82 81 82 80 83 85 82 79 82 84 79 74 72 77 83 85 85 86 85
87 87 86 90 90 88 88 85 85 83 84 85 85 86 84 83 85 83 83 86 88 88 89 88 84 79 77 77 81 85 81 82 80 82 85 84 80 76 74 82 84 86 89
87 85 87 90 89 90 89 86 84 82 84 85 85 84 83 76 78 81 80 82 87 89 89 87 88 82 80 77 81 86 84 80 80 79 81 82 82 82 77 75 78 82 85
84 84 89 87 87 91 90 87 83 82 84 84 84 83 84 76 72 77 78 79 84 86 86 88 86 84 78 78 84 86 86 83 83 81 81 80 76 78 77 77 80 80 84
72 81 87 88 87 88 88 86 83 82 83 83 84 84 84 83 83 79 76 79 75 76 81 85 84 84 83 81 84 85 84 85 82 81 81 82 81 79 82 79 79 78 83
72 72 89 86 87 88 88 87 83 82 83 84 83 84 84 85 86 86 87 80 75 77 83 84 85 86 84 85 84 84 84 84 84 83 82 81 83 84 84 81 79 77 79
79 78 84 87 90 88 88 87 83 83 84 85 84 84 84 84 84 85 86 88 82 77 83 77 85 86 87 84 83 81 83 84 83 83 82 82 82 83 85 84 83 79 75
70 70 71 70 91 90 91 90 86 84 85 86 86 86 85 85 85 86 87 88 84 79 74 76 77 85 85 85 83 82 82 82 83 84 82 82 82 83 84 85 83 83 80
66 68 68 67 73 84 85 92 89 86 87 87 86 86 86 86 86 86 87 87 89 81 76 72 75 84 85 84 82 82 83 82 81 82 82 81 82 82 83 82 82 82 82
65 66 67 66 66 69 75 76 79 91 90 88 86 86 86 86 86 85 86 86 85 87 86 82 84 84 84 83 82 83 85 81 81 82 82 82 87 82 82 82 80 82 82
68 66 66 65 65 66 66 71 75 77 80 89 90 88 87 87 87 85 86 86 85 85 87 86 84 84 85 85 84 82 83 84 82 84 82 82 83 82 81 81 81 81 83
69 69 67 65 65 65 65 68 72 73 76 76 73 86 87 87 88 87 85 86 86 85 85 85 86 85 85 86 85 84 83 84 84 84 84 84 83 82 81 82 80 82 81
70 70 69 68 66 65 64 66 68 70 72 74 74 72 74 84 87 85 84 85 86 86 85 85 85 86 87 90 85 85 84 82 83 84 83 86 84 80 80 84 81 80 80
72 73 73 73 70 68 64 65 66 66 68 70 70 72 75 75 77 81 84 84 84 85 85 84 84 84 89 80 74 81 85 84 82 82 84 85 81 78 73 73 74 76 79
72 72 73 74 74 73 72 68 69 68 66 68 70 70 72 72 72 75 78 79 80 81 83 84 84 84 84 75 71 71 85 85 82 82 83 85 91 80 85 74 72 73 70
72 73 75 75 75 77 76 73 73 70 69 68 70 70 69 70 72 73 72 73 75 78 78 81 82 82 85 72 71 71 79 82 83 84 83 83 83 84 83 83 82 81 81
73 74 76 75 74 75 76 75 74 75 74 73 72 70 69 68 68 70 69 70 71 72 76 79 80 81 82 70 66 68 77 82 81 83 84 84 83 77 72 81 81 82 83
73 73 75 76 74 74 75 74 74 73 71 72 73 74 74 73 72 70 70 71 71 71 73 76 78 76 80 71 66 67 82 81 83 82 82 73 77 70 68 77 81 79 81
73 73 74 72 72 73 73 70 70 69 70 72 72 73 74 73 74 74 73 72 72 72 74 75 77 78 77 79 64 62 76 82 82 83 84 86 69 66 64 63 81 80 82
72 73 71 71 72 71 70 67 66 68 69 70 70 70 71 74 75 72 72 72 73 73 73 73 75 78 78 68 65 59 58 64 72 77 82 82 61 58 58 63 68 66 67
68 70 69 68 68 66 66 63 64 67 66 66 66 69 70 71 72 71 70 72 73 76 75 76 76 76 76 74 59 59 59 61 66 70 69 61 60 58 61 59 60 59 74
64 65 65 64 63 63 63 63 64 65 64 63 64 66 66 69 71 73 75 75 75 75 75 74 73 74 72 71 68 64 64 62 64 64 64 64 61 61 66 68 76 70 76
63 63 61 61 61 61 61 63 63 62 60 60 62 65 68 67 68 72 73 74 73 72 72 72 72 70 70 69 56 55 63 63 62 58 63 67 74 77 79 81 81 81 78
62 61 61 61 60 60 60 60 60 60 59 58 60 61 63 65 67 68 69 65 57 55 52 51 59 71 61 54 52 47 45 45 48 59 63 64 67 71 72 73 75 77 78

GFSMW_sfc_temp_087.txt.gz
Temp
86 85 87 86 84 81 80 82 79 77 76 76 75 73 73 75 76 80 80 80 77 81 78 76 76 75 75 74 77 75 76 76 77 74 75 75 79 78 78 80 81 81 82
83 83 84 84 83 79 78 78 78 77 77 76 76 77 77 76 78 80 79 80 80 79 79 77 75 78 75 75 76 75 74 74 75 73 70 70 75 78 80 78 82 80 82
83 80 83 82 82 80 78 77 76 77 77 77 79 78 80 76 75 77 78 79 81 80 80 77 76 74 74 74 75 77 75 72 75 76 74 69 67 69 75 78 79 81 79
84 82 80 82 82 81 81 78 76 76 77 77 77 76 75 73 75 73 77 79 82 82 81 79 77 77 73 72 74 79 75 74 72 75 79 76 75 70 70 75 76 79 82
73 83 81 84 83 83 81 79 77 76 76 77 76 76 76 72 72 74 74 77 78 82 82 80 77 76 76 75 75 76 76 75 73 73 73 75 74 77 71 68 73 76 78
71 72 83 83 82 83 82 79 77 75 75 76 77 76 74 73 72 72 74 74 75 77 80 80 77 75 75 75 74 76 77 76 75 75 73 73 73 72 73 70 72 72 77
70 70 70 81 82 81 81 80 76 75 75 75 76 76 76 75 75 75 73 72 72 73 74 77 77 76 75 75 75 76 76 77 75 74 73 74 74 75 74 72 72 73 76
70 69 71 77 79 82 80 80 76 76 75 75 75 75 75 75 76 77 74 77 72 73 75 77 77 77 77 78 77 76 76 76 76 75 74 74 75 75 75 78 74 73 73
68 69 72 74 77 80 81 80 78 77 77 77 75 76 75 76 77 78 75 78 74 76 77 75 77 79 78 77 77 75 75 76 76 76 75 74 75 75 76 80 75 74 69
71 71 72 71 70 73 83 82 80 78 78 78 77 77 75 77 77 77 77 77 75 77 76 75 75 76 78 77 77 75 76 75 75 77 75 75 75 76 76 76 75 74 73
67 69 69 68 68 69 75 77 78 79 79 80 78 77 78 78 76 77 78 77 75 74 73 73 73 75 77 77 76 75 77 77 75 75 75 75 75 76 75 75 75 75 74
64 66 67 67 68 67 68 69 70 71 73 82 81 80 78 79 78 77 78 78 76 74 73 72 71 74 75 77 76 77 79 76 75 76 75 76 81 76 75 75 75 74 73
63 63 64 64 65 66 67 68 69 69 71 70 75 74 77 80 80 79 78 79 78 78 77 75 74 75 78 77 76 77 77 76 76 76 75 76 76 75 74 74 75 75 77
64 63 62 63 63 64 65 67 68 69 70 70 69 70 71 72 77 77 79 79 79 78 78 77 77 78 78 79 78 77 76 77 78 77 77 77 77 76 76 76 74 74 73
63 62 61 62 63 64 65 66 66 68 68 68 68 68 71 72 74 75 76 76 77 79 79 78 78 78 79 82 78 78 77 77 77 77 78 79 78 77 76 78 75 74 72
66 66 65 63 62 62 62 65 64 65 68 67 67 68 70 70 70 72 73 75 76 76 77 77 78 77 83 76 74 77 78 77 77 77 76 78 78 76 73 71 73 76 73
65 65 66 65 64 64 64 63 64 65 65 65 65 67 68 68 69 70 69 68 69 73 74 75 76 76 76 71 71 70 76 77 75 75 76 78 86 77 79 73 71 70 70
64 64 64 63 65 66 66 65 66 66 66 65 66 67 67 67 68 68 68 69 69 69 71 73 74 75 76 68 66 68 71 75 76 77 76 77 80 78 78 77 76 75 78
63 63 65 64 63 65 66 66 66 66 67 67 67 68 68 67 66 66 66 67 68 70 70 71 72 72 74 68 64 65 70 71 75 77 77 77 76 73 69 76 75 76 76
63 63 64 64 63 63 64 63 63 63 63 65 66 67 68 68 65 66 66 67 67 69 71 71 72 70 73 68 62 64 71 72 75 76 76 68 75 69 65 74 77 78 80
63 64 62 61 60 61 61 59 59 58 61 63 64 66 66 66 66 66 65 66 66 66 67 70 70 71 71 68 60 59 67 71 72 73 74 79 62 57 57 57 74 79 78
62 62 59 58 59 59 58 55 55 58 59 59 59 60 64 66 68 64 64 64 63 64 65 67 68 71 67 59 57 57 57 61 66 67 69 69 58 57 55 59 61 60 63
58 59 57 56 56 56 55 53 54 56 56 55 56 57 59 61 64 62 63 62 63 62 64 65 65 67 67 67 57 57 60 60 64 66 64 59 56 55 61 58 59 59 64
55 56 55 53 52 53 54 53 54 54 53 52 53 55 56 57 59 61 65 64 64 62 62 62 61 62 63 62 65 61 62 61 63 64 64 62 59 59 62 62 67 70 74
54 54 53 52 51 52 52 52 52 52 51 51 52 52 55 55 56 60 58 61 62 57 59 63 61 60 61 63 58 54 61 60 58 55 60 62 65 68 71 74 74 74 71
53 52 52 51 51 52 50 50 51 51 48 48 50 51 52 52 54 56 57 56 54 53 52 50 50 62 57 52 49 48 47 44 45 55 57 60 61 63 65 67 70 72 71

GFSMW_sfc_temp_090.txt.gz
Temp
81 82 82 83 82 79 78 76 75 74 74 73 71 71 73 76 76 77 78 78 77 77 75 74 73 74 73 72 75 74 75 73 73 72 73 73 75 75 76 77 77 77 78
81 80 81 81 80 78 78 75 75 73 74 74 73 73 73 74 74 76 77 77 77 77 77 74 73 74 73 73 74 73 72 72 73 70 67 68 72 74 76 76 78 77 78
78 77 78 80 79 77 76 76 75 75 74 75 76 74 74 74 73 74 76 77 80 78 78 76 74 73 72 72 73 73 73 71 73 73 71 66 66 67 72 74 74 76 75
80 79 77 78 79 79 79 77 75 75 75 75 78 76 74 70 71 72 73 75 80 78 78 78 75 74 71 71 72 77 73 71 71 72 76 72 71 68 69 72 73 74 77
76 79 78 79 81 80 78 78 76 74 74 75 75 74 72 71 72 73 74 73 74 79 79 77 75 73 73 72 73 74 74 72 72 71 72 71 71 71 68 67 71 74 75
73 73 77 81 80 81 79 78 75 73 73 74 74 73 72 71 71 71 71 71 72 73 76 77 75 74 73 73 73 74 75 73 73 72 72 71 71 71 69 68 68 69 75
70 71 71 75 79 78 77 77 75 72 72 74 73 74 73 72 72 71 72 72 71 72 74 75 74 74 73 73 73 74 74 74 73 72 72 71 72 74 71 69 70 70 73
71 71 70 70 75 79 77 77 75 73 71 73 73 73 73 73 73 74 72 73 71 71 74 75 75 75 75 75 75 73 74 74 73 73 72 71 72 72 72 72 70 70 70
71 71 69 71 71 75 77 77 75 75 72 73 73 73 73 74 75 75 72 75 72 72 75 75 75 76 76 75 74 73 74 73 73 73 72 71 72 72 73 73 72 70 67
68 69 69 71 70 71 71 78 78 76 75 73 73 74 73 74 74 73 74 74 73 74 74 74 75 75 75 75 74 73 73 74 73 74 73 72 72 73 73 73 72 71 70
66 69 69 68 69 70 70 71 73 75 73 73 73 74 73 74 74 74 74 75 74 73 73 73 75 74 75 75 74 73 74 74 73 73 73 73 73 72 73 73 72 72 71
65 68 68 68 68 68 69 69 70 70 70 71 72 75 74 74 74 75 75 75 74 73 73 73 71 72 73 74 74 74 76 74 74 73 73 73 77 73 73 72 72 72 71
63 64 65 66 67 67 68 69 69 69 70 70 70 71 72 72 75 75 75 75 74 73 73 73 71 70 73 74 74 74 75 74 74 74 73 74 73 72 71 72 72 71 73
62 62 63 63 65 66 66 67 69 69 69 69 68 67 69 70 71 73 74 73 74 74 73 73 73 74 75 76 76 75 72 74 75 75 75 75 75 73 74 73 73 72 71
61 61 62 62 64 65 65 66 68 68 69 68 68 68 70 70 71 72 73 75 74 74 75 75 75 75 76 79 75 75 75 74 74 75 75 76 76 74 73 76 73 72 71
62 62 62 62 62 63 64 64 65 66 67 67 67 67 69 69 70 69 69 70 71 73 73 74 74 74 79 71 70 73 75 75 74 74 75 76 75 74 71 70 70 72 72
62 62 62 61 62 61 62 62 64 66 64 65 65 66 67 68 68 68 69 68 68 69 70 71 73 73 74 69 68 68 71 73 73 73 74 76 82 75 77 73 69 68 68
61 60 60 62 62 63 66 64 63 63 65 65 65 65 66 65 66 66 66 67 68 68 68 70 70 70 73 67 65 67 70 71 73 74 74 74 75 75 76 75 75 75 74
59 60 61 61 63 62 62 62 61 61 62 63 63 64 66 65 66 65 66 66 67 67 68 69 69 70 71 64 62 64 70 70 71 73 74 75 75 70 66 72 73 73 75
60 60 59 60 59 57 60 59 58 58 58 59 60 63 64 64 64 64 65 66 66 66 68 68 70 68 72 58 58 62 68 69 71 72 73 66 70 64 59 69 74 74 77
59 58 57 55 54 55 57 54 54 53 55 57 58 59 60 62 64 63 64 64 64 63 64 66 67 68 65 62 57 58 65 64 66 68 70 70 59 55 55 55 64 68 71
57 57 54 53 53 54 54 51 51 52 54 54 54 55 56 59 62 62 63 63 63 62 65 67 66 67 66 59 57 56 57 60 63 64 65 66 58 53 53 57 60 58 60
54 55 53 51 51 51 51 48 49 51 52 51 51 52 53 56 57 59 61 62 62 62 62 62 62 63 64 64 55 57 59 60 61 64 64 57 54 54 57 59 58 58 63
52 52 50 48 48 49 49 48 49 50 49 48 49 50 50 51 52 57 59 59 57 56 57 59 58 60 62 58 58 60 57 58 59 61 60 61 58 57 58 59 65 66 67
51 51 48 48 47 47 47 48 49 48 47 47 48 47 49 47 49 51 52 55 53 52 53 55 53 55 57 59 51 49 55 54 52 48 54 56 60 62 63 65 67 69 71
49 48 47 47 46 46 47 48 48 47 45 45 46 46 46 46 48 48 49 52 50 49 46 45 47 55 51 47 46 45 46 44 44 50 52 54 55 57 60 61 62 64 66

GFSMW_sfc_temp_093.txt.gz
Temp
79 79 80 80 78 76 74 74 72 72 73 71 70 70 71 72 73 74 75 75 74 76 74 73 71 72 71 71 73 73 71 72 71 71 71 71 72 73 74 75 75 75 76
76 77 77 78 78 76 74 72 73 71 73 73 71 73 71 74 73 74 75 75 76 76 75 73 72 72 72 71 73 72 70 70 71 69 65 66 71 73 73 73 75 75 75
73 75 76 77 77 75 74 73 72 72 73 74 73 72 72 72 72 73 73 74 77 77 76 75 73 72 71 71 71 72 71 70 71 71 70 65 64 65 71 72 72 74 73
76 77 76 76 77 77 77 75 73 72 73 73 74 73 71 70 70 71 72 73 76 76 75 75 74 72 70 71 71 75 71 70 70 71 73 70 70 66 68 71 72 73 75
78 76 77 78 78 79 77 76 72 71 72 72 73 73 70 70 70 71 73 72 73 76 76 75 73 72 71 71 73 73 72 71 70 70 70 70 69 68 66 66 70 72 73
76 77 79 80 79 79 78 76 72 70 71 72 72 72 71 70 70 71 71 71 71 72 75 75 73 73 72 72 72 73 73 72 71 71 70 70 69 69 68 66 66 66 72
72 73 74 76 76 76 75 75 72 70 71 72 72 73 72 71 71 71 72 70 70 71 72 74 73 73 73 72 71 72 72 72 71 71 70 72 71 70 69 67 67 67 71
70 69 69 72 73 76 75 76 72 71 70 71 72 72 72 71 70 71 71 72 71 72 73 74 74 73 74 73 72 72 72 72 72 72 70 70 71 72 71 70 68 67 65
70 71 70 71 71 73 73 76 74 75 71 71 71 71 72 72 72 72 72 73 73 72 73 73 73 72 73 73 73 72 72 72 72 71 71 70 71 71 71 71 70 69 66
68 68 69 70 70 70 73 74 73 75 72 70 70 72 72 73 72 72 73 72 73 73 73 73 73 74 74 74 72 72 72 71 71 72 72 71 71 71 71 71 70 70 68
65 67 68 69 69 70 70 72 72 72 72 71 70 71 71 73 73 72 73 73 73 72 72 73 73 73 73 73 72 72 73 72 72 71 71 71 71 71 71 71 70 70 70
66 66 67 68 68 68 69 69 70 70 69 69 71 71 72 73 72 71 73 74 73 71 71 72 72 72 72 73 73 72 74 72 72 73 71 71 75 71 71 71 70 70 70
64 66 67 67 68 68 69 69 69 69 69 68 69 70 70 71 72 72 73 74 74 72 72 72 71 70 72 72 73 73 72 73 73 73 72 72 71 71 70 70 70 70 72
62 63 64 65 66 67 68 69 69 70 69 69 68 69 69 69 70 71 71 72 73 73 72 72 72 72 72 73 73 74 72 72 73 73 73 73 73 71 71 71 71 71 69
62 62 62 64 65 66 67 68 69 69 69 68 68 68 69 70 70 69 69 70 72 73 72 72 73 73 74 76 73 73 73 72 72 73 73 74 74 72 71 72 72 71 70
61 62 62 63 64 64 65 66 66 67 68 67 67 68 68 68 68 68 68 68 69 70 71 71 71 71 76 72 70 72 73 73 73 72 73 73 73 72 70 69 69 71 71
60 61 62 62 62 63 65 64 64 65 65 65 66 66 67 66 66 67 67 67 67 68 68 70 70 71 71 66 65 68 71 71 71 72 72 74 79 73 75 71 67 68 67
61 60 60 62 63 64 64 64 64 63 63 63 65 65 65 65 65 65 65 66 66 66 67 68 68 68 70 63 63 65 68 70 70 71 72 72 73 73 73 73 72 73 73
61 59 60 61 62 62 61 60 60 60 61 60 61 62 63 63 64 64 64 65 65 64 65 67 68 68 69 59 60 65 69 69 70 70 71 71 71 67 62 69 70 72 73
61 59 60 61 58 55 58 58 56 56 56 57 58 59 60 61 60 62 62 64 63 63 64 66 68 65 66 58 60 64 67 66 67 68 69 61 62 58 56 64 65 66 70
56 57 56 53 52 53 55 52 52 51 53 56 56 56 57 59 60 61 62 63 63 62 64 66 66 66 64 64 56 58 63 62 62 63 65 66 60 59 57 55 61 65 67
54 55 52 50 50 51 52 48 48 50 52 52 52 52 53 56 58 57 58 61 61 61 61 62 65 61 62 58 57 55 56 59 60 61 62 62 55 53 53 55 57 55 57
53 53 50 49 48 48 49 47 47 49 50 49 49 50 51 52 52 52 53 55 55 56 57 58 57 58 61 58 54 54 55 57 58 60 59 57 55 55 58 59 58 57 62
51 50 49 47 45 47 47 47 48 48 48 47 46 47 47 47 48 51 52 51 50 51 53 53 53 55 57 54 53 53 53 54 53 55 53 56 56 56 57 58 61 62 64
48 48 47 46 44 45 45 46 46 47 45 45 46 45 45 44 45 47 47 49 48 48 47 47 49 51 50 50 47 45 49 48 47 45 51 53 55 58 60 60 60 62 62
47 46 45 45 44 45 45 45 46 45 44 43 44 44 43 43 44 44 44 48 48 47 45 44 45 48 48 45 44 43 44 44 44 49 49 51 51 52 54 57 59 61 62

GFSMW_sfc_temp_096.txt.gz
Temp
76 76 79 79 75 74 72 73 72 71 71 71 70 71 72 73 74 74 76 76 76 77 76 74 74 74 73 74 76 75 75 75 74 75 75 75 77 78 78 79 80 80 81
72 75 76 76 75 73 73 72 72 71 72 72 71 73 72 73 74 73 75 76 76 77 76 74 74 75 75 75 75 74 74 74 74 73 70 70 75 77 79 78 79 80 80
72 75 73 75 75 73 72 72 71 71 72 72 73 72 73 73 73 74 75 76 76 77 75 74 74 74 74 74 74 75 74 74 74 74 73 71 70 70 76 77 78 77 79
75 74 74 74 75 75 75 72 71 71 73 72 73 73 72 70 72 72 74 75 77 78 78 77 75 74 74 74 75 77 74 75 73 75 76 74 74 72 72 76 77 77 80
74 73 75 76 77 77 75 73 71 71 72 73 73 73 71 72 72 72 73 74 74 76 77 77 75 75 75 75 76 76 75 75 75 74 74 75 74 73 72 72 74 77 78
74 75 78 79 78 79 75 73 71 70 72 72 72 72 72 71 71 72 72 73 74 75 77 77 75 75 75 75 75 76 76 76 75 75 75 75 74 74 73 72 73 73 77
72 74 74 75 77 76 75 73 71 70 71 72 72 73 73 72 70 73 73 73 73 74 75 76 74 74 75 75 75 75 76 76 76 75 76 75 75 75 74 73 73 73 76
72 73 71 70 71 74 76 74 72 71 71 72 72 72 72 72 71 72 74 74 73 74 76 76 76 75 75 75 75 75 76 76 76 76 75 75 76 76 76 76 74 74 72
71 72 71 70 71 73 75 75 73 73 71 72 72 72 73 72 73 74 74 74 74 75 76 76 76 75 75 76 75 75 76 76 75 76 75 75 76 76 77 76 76 75 73
69 70 70 71 71 72 74 77 75 72 72 72 72 73 73 74 74 74 74 73 73 75 75 75 75 76 75 76 75 75 75 75 76 76 75 75 76 77 77 77 76 75 75
67 68 68 70 71 71 72 73 72 71 72 72 71 72 73 74 74 74 74 75 75 74 73 74 74 74 75 76 75 75 75 75 75 76 75 76 76 76 76 77 76 76 75
65 67 68 68 69 69 70 71 70 70 72 72 72 71 72 73 73 72 74 75 75 74 72 74 74 75 75 75 75 75 76 73 75 76 75 74 78 76 75 76 75 75 76
65 65 67 67 68 68 69 69 69 69 69 70 70 71 71 72 72 73 74 75 75 74 74 73 73 72 74 74 75 75 75 75 75 74 75 74 75 75 76 75 76 76 77
65 66 66 67 68 68 69 69 69 69 69 69 69 69 69 70 70 71 72 73 74 75 74 73 74 73 74 74 74 75 75 75 76 75 75 75 75 74 75 75 74 76 75
63 64 65 65 66 67 68 69 69 69 69 68 68 68 69 69 70 69 69 70 71 72 73 74 74 75 75 77 75 76 76 76 76 77 76 77 75 72 72 76 76 75 75
62 63 64 64 65 66 67 67 66 68 69 68 68 68 68 68 67 69 69 69 69 70 70 72 72 72 74 68 68 73 76 76 76 76 77 77 74 74 69 68 68 72 75
62 62 62 63 63 64 65 64 65 66 66 66 66 67 66 66 66 67 67 67 67 68 69 70 70 70 71 63 64 66 72 74 75 75 75 77 81 75 77 71 68 68 66
60 60 61 61 59 60 61 63 64 62 62 61 63 64 66 65 65 65 65 65 65 66 67 68 69 70 68 60 61 65 71 72 72 73 73 73 74 69 69 73 76 77 78
59 59 59 59 58 59 60 60 59 61 61 60 58 61 63 62 63 64 64 64 63 63 63 66 69 66 63 59 61 66 70 69 70 71 69 69 66 61 60 70 70 71 74
59 58 59 59 58 59 61 58 57 57 56 57 58 58 59 60 60 62 63 63 62 63 64 66 66 62 63 56 57 61 63 63 65 68 68 62 62 59 59 64 64 66 70
58 59 58 55 55 55 57 55 55 54 56 58 57 56 57 58 58 59 60 61 62 62 62 61 59 58 56 54 54 55 59 60 63 64 64 66 56 55 55 54 63 65 66
54 55 53 51 52 53 54 51 50 52 53 54 54 54 54 57 58 56 56 56 58 58 58 58 60 59 58 54 54 54 54 56 60 61 61 62 54 52 52 57 57 54 56
52 53 51 49 49 51 52 50 49 51 51 51 50 51 52 53 54 54 53 54 54 55 55 56 56 57 56 55 53 53 53 55 55 58 56 54 53 54 59 59 57 58 65
50 50 50 48 48 49 50 49 50 50 50 49 49 49 50 50 51 53 53 52 52 51 52 52 52 53 52 51 51 52 53 55 55 54 56 57 57 55 58 62 64 66 66
51 50 49 48 47 49 48 49 49 49 48 48 48 48 48 49 49 50 50 51 49 50 49 48 50 49 47 47 45 45 48 49 49 48 56 57 59 60 61 62 64 65 66
49 49 48 47 46 47 47 48 48 48 47 47 47 47 47 47 47 48 48 47 47 45 44 43 46 48 45 43 42 42 42 43 44 52 51 53 54 56 58 59 60 62 62

GFSMW_sfc_temp_099.txt.gz
Temp
82 85 85 85 85 84 82 82 82 81 82 82 82 83 84 84 85 86 84 84 85 85 84 87 86 87 86 85 85 88 85 89 87 89 92 91 92 93 94 95 96 93 95
82 82 84 84 85 83 82 81 82 81 81 84 82 85 83 85 87 85 85 85 85 84 86 84 86 85 87 84 84 84 88 87 86 85 86 85 90 94 95 94 95 93 95
82 82 82 84 85 83 82 81 81 81 81 82 82 82 83 84 84 85 85 83 85 86 84 84 86 85 86 87 85 85 84 86 86 84 85 84 82 86 92 91 94 91 95
83 84 83 83 84 84 84 83 82 81 81 81 83 80 83 80 85 84 83 83 86 86 87 85 84 84 87 84 86 88 85 86 85 87 87 84 83 84 86 93 93 93 95
83 83 84 84 86 85 84 84 82 81 81 81 83 82 82 85 84 84 81 83 82 85 86 84 84 84 87 84 84 85 83 87 86 86 87 85 87 84 85 85 88 94 94
83 84 85 84 85 86 84 83 80 79 81 81 81 82 82 82 82 83 84 85 86 87 85 85 84 83 84 84 86 84 84 85 85 87 87 87 86 85 86 86 86 86 91
81 82 79 77 83 82 83 83 81 79 80 81 81 82 81 82 81 81 85 84 80 82 83 83 81 84 84 85 84 83 84 85 87 84 88 88 88 88 87 86 87 86 90
79 81 81 77 80 80 82 83 81 79 80 81 80 81 81 86 85 84 86 86 85 87 85 85 84 84 84 84 83 86 87 86 87 84 84 88 89 89 88 87 85 86 88
79 75 80 80 82 77 81 82 82 81 81 82 82 81 80 82 84 83 83 86 84 86 85 85 84 85 83 84 83 86 84 84 85 85 84 86 89 89 89 88 88 85 83
77 77 73 74 74 77 76 81 84 82 82 82 83 83 83 82 83 83 83 82 83 83 83 83 84 84 83 84 82 84 83 82 86 87 83 84 88 88 89 88 88 87 85
76 77 76 73 72 77 75 77 78 78 82 81 81 81 83 84 83 82 82 83 83 82 82 82 82 82 83 83 82 82 83 82 82 83 83 83 84 88 88 88 87 86 86
75 75 77 76 72 70 71 76 78 75 80 81 77 82 82 82 82 82 83 83 82 83 82 82 82 83 82 83 83 83 84 82 82 83 82 82 86 83 84 86 83 85 85
70 72 72 74 75 72 69 70 73 75 73 76 78 79 81 80 82 82 83 82 82 82 84 82 82 82 82 82 83 82 84 84 83 84 82 84 82 81 85 84 81 87 86
71 72 70 72 73 73 70 69 70 71 70 73 73 74 76 78 79 80 79 81 82 81 82 82 82 82 80 82 83 83 83 83 84 85 85 84 83 82 82 84 82 85 82
68 70 71 71 72 72 73 73 71 69 68 69 69 69 72 73 77 77 77 76 79 80 81 81 82 82 84 85 83 83 83 83 84 85 85 86 81 74 75 80 81 83 82
64 66 69 70 71 71 72 72 70 69 69 68 68 70 69 71 74 75 75 76 76 78 79 79 78 77 79 63 65 72 82 84 83 83 84 86 77 78 67 67 68 72 78
64 64 65 64 65 67 68 67 68 69 69 69 69 69 68 68 69 73 73 73 75 76 76 77 78 73 69 61 62 66 79 80 82 81 81 82 85 76 80 76 69 69 66
61 62 60 60 60 61 62 63 64 64 64 64 65 66 66 66 67 70 72 72 74 74 75 76 71 70 68 59 61 65 78 78 76 74 73 72 68 67 69 77 81 83 83
60 60 59 58 59 59 61 61 63 63 63 62 62 65 69 66 67 66 68 70 71 73 74 70 70 67 64 57 58 68 70 71 69 70 68 69 68 61 61 71 73 76 80
59 58 58 58 57 57 58 60 59 60 63 63 63 64 66 69 64 68 67 70 70 68 66 64 63 58 61 55 55 62 71 69 66 71 70 59 63 56 56 70 72 73 75
58 58 57 56 57 60 62 61 64 62 64 65 65 64 66 66 66 65 65 66 65 63 61 61 59 58 54 53 53 54 62 61 69 68 72 70 56 54 53 53 72 69 66
57 58 57 57 59 61 62 59 57 61 63 63 63 63 63 67 65 64 64 62 64 62 64 63 64 61 57 53 53 52 53 55 62 62 64 63 53 52 53 63 55 55 60
60 62 60 59 62 63 65 62 59 61 61 61 61 61 61 62 62 63 62 65 63 63 60 61 62 59 59 58 53 53 54 55 62 66 60 55 55 57 64 59 58 61 76
62 63 63 61 59 60 61 60 60 61 61 59 59 61 61 60 62 64 64 63 63 63 63 60 57 56 56 55 57 57 58 57 60 58 66 61 59 58 63 69 71 74 73
61 62 61 60 58 59 59 60 60 61 60 59 60 60 61 60 58 58 59 58 55 56 59 58 58 58 55 51 46 45 53 58 55 56 64 63 64 67 68 69 70 71 71
57 58 59 59 58 57 57 58 59 60 60 59 60 61 61 61 60 58 54 46 46 44 43 43 49 53 45 43 42 41 42 44 46 59 60 58 59 60 59 62 63 65 64

GFSMW_sfc_temp_102.txt.gz
Temp
91 92 92 93 92 91 89 88 88 86 88 89 90 90 91 91 92 94 90 90 91 90 90 95 92 94 94 90 93 95 91 95 96 95 96 97 99 99 100 102 103 99 103
90 91 92 93 93 90 89 87 86 85 87 90 89 93 92 93 93 93 91 91 91 90 91 91 93 92 92 90 90 89 95 95 94 93 94 91 94 99 102 103 102 101 104
88 88 90 92 92 90 88 87 87 86 87 89 88 88 89 90 90 90 91 92 91 91 90 90 92 90 93 93 92 91 89 92 93 91 92 89 89 94 99 97 101 99 103
89 91 91 90 92 92 91 89 87 86 87 87 88 85 87 86 92 91 92 92 90 91 91 90 90 90 94 90 92 94 92 91 91 95 94 91 89 91 90 98 99 100 102
89 92 92 92 94 93 92 90 88 86 88 86 88 85 88 91 92 93 88 88 88 90 92 90 89 88 92 90 90 90 89 94 93 93 95 91 95 92 93 91 95 99 103
91 92 94 94 94 94 93 91 87 85 86 86 86 86 86 88 90 90 89 89 91 91 90 91 89 88 91 89 91 90 89 88 90 94 94 93 92 92 93 94 92 93 97
90 91 91 92 92 92 91 91 87 84 86 86 86 86 87 86 86 87 90 90 90 91 87 89 88 90 88 89 90 87 89 90 91 89 94 95 94 95 94 93 93 93 97
87 91 91 91 90 91 91 90 88 85 86 87 86 85 86 89 90 90 93 91 91 92 91 90 90 89 89 90 89 91 92 90 92 89 88 94 96 96 95 92 91 90 94
83 88 91 90 90 90 90 90 88 87 87 88 87 86 87 86 89 89 88 92 89 92 89 90 89 90 90 89 88 91 89 89 89 90 89 91 96 96 97 95 94 90 87
80 83 89 90 84 92 92 89 91 88 88 88 89 89 88 88 89 88 87 88 88 88 89 89 90 90 89 89 88 90 89 87 90 92 89 88 94 94 96 95 95 94 90
81 79 79 88 90 91 87 80 90 89 89 89 89 88 89 89 88 89 89 89 88 87 88 87 88 88 87 88 87 87 89 87 87 88 88 87 88 92 95 95 94 93 93
82 79 75 74 76 78 76 78 76 84 87 89 88 85 89 89 90 88 89 89 88 88 88 88 86 88 89 87 87 88 90 87 86 87 87 87 91 87 88 92 88 90 90
83 84 83 79 79 75 71 71 73 78 79 86 87 83 86 88 88 88 89 88 88 88 90 87 88 88 88 86 87 88 88 89 88 88 87 87 88 86 88 87 90 92 92
78 81 81 80 82 81 78 72 71 73 79 81 83 86 86 88 88 88 87 88 87 86 88 89 88 89 89 88 87 88 88 88 89 89 89 89 88 87 86 88 86 88 88
75 77 76 77 78 77 78 77 70 70 71 76 74 77 80 82 84 85 86 86 87 87 86 88 88 88 90 92 88 88 87 88 88 88 90 91 85 74 76 84 84 85 86
74 77 77 77 77 77 77 76 75 73 74 70 69 70 70 74 78 79 82 83 84 85 85 85 86 87 91 63 64 73 88 88 87 87 88 90 80 79 69 69 68 74 79
72 76 77 77 78 79 77 77 75 73 74 70 70 69 70 71 71 74 78 80 81 83 82 84 82 78 77 61 63 66 84 86 87 86 87 88 87 79 84 77 72 70 67
65 64 64 65 65 69 72 72 72 73 72 71 71 73 71 69 68 69 70 73 77 80 82 78 78 76 71 59 62 67 83 77 75 76 75 75 75 72 72 82 84 86 86
63 62 63 62 61 60 63 64 64 65 66 66 68 70 68 67 66 66 69 71 74 78 76 77 74 72 67 56 57 72 77 76 74 75 76 78 77 59 59 79 79 80 83
61 59 59 59 59 58 60 59 61 62 62 65 65 68 70 72 73 74 71 70 73 68 70 72 69 62 63 54 55 67 83 77 79 78 75 59 63 56 56 76 78 77 78
59 59 58 56 57 60 60 59 58 59 63 67 71 70 69 70 72 72 73 68 64 63 66 65 58 58 57 59 53 54 72 78 79 79 79 76 57 54 54 55 74 72 70
56 57 57 56 57 59 60 58 59 63 65 69 70 70 72 74 73 70 70 67 66 65 65 65 67 65 63 54 54 53 54 58 64 65 66 68 54 53 56 66 57 57 61
56 57 58 59 58 60 61 58 61 67 68 69 68 69 70 70 70 70 66 66 70 71 71 72 71 66 69 66 55 54 56 57 61 63 57 56 55 56 60 60 60 61 80
56 60 59 57 57 60 60 62 64 67 68 67 67 68 68 68 71 74 74 74 74 74 72 71 71 70 64 62 58 63 67 61 66 64 72 65 61 59 65 73 74 78 76
61 61 60 59 58 60 61 64 64 68 68 68 68 68 70 69 66 63 64 65 57 56 71 70 70 70 69 58 48 49 57 59 56 57 70 70 69 69 71 73 72 73 72
62 61 62 61 60 61 61 62 64 67 69 68 71 72 71 70 68 64 59 45 45 44 42 42 52 57 46 43 42 41 43 45 46 66 67 62 64 63 65 62 63 66 66

GFSMW_sfc_temp_105.txt.gz
Temp
91 95 95 96 95 93 91 90 90 88 91 91 90 82 82 84 85 85 92 92 93 92 91 85 93 93 91 91 93 94 92 96 97 95 97 97 99 99 99 103 104 100 103
89 92 89 94 95 92 90 89 89 88 89 93 85 86 84 89 85 86 92 92 92 91 92 91 90 83 93 91 91 90 93 96 96 92 95 90 94 100 102 102 102 101 104
88 91 87 92 93 92 90 89 89 87 88 87 84 90 92 89 93 92 92 92 93 93 92 91 88 92 87 87 90 92 91 92 94 93 86 88 82 94 99 97 101 98 101
89 90 90 92 93 93 93 90 89 87 88 89 86 80 87 88 82 89 86 93 93 93 92 92 92 90 91 90 89 93 90 90 92 96 97 93 91 84 89 98 99 100 101
93 90 92 95 95 95 94 92 89 88 89 88 82 88 86 78 75 83 88 89 89 91 92 92 91 90 92 91 90 91 89 94 91 94 95 92 96 94 92 81 94 99 102
91 90 91 91 96 96 93 94 88 87 88 87 88 87 84 81 78 86 86 90 92 92 92 92 91 90 88 90 91 90 90 89 90 93 93 94 83 83 86 91 90 91 97
81 92 80 93 91 86 91 93 89 86 87 88 88 88 88 88 87 88 89 78 87 92 89 90 89 90 89 90 90 88 89 90 89 88 91 96 96 96 95 94 78 93 92
87 87 92 93 87 83 89 93 89 86 87 88 87 88 88 91 91 91 83 81 86 86 88 90 91 91 91 91 90 91 91 92 91 90 89 91 97 97 96 93 91 89 84
85 80 94 92 80 94 85 92 90 88 88 90 88 87 88 87 87 73 84 90 92 88 92 92 91 92 91 91 90 90 90 90 90 91 90 90 95 98 98 97 96 91 85
85 88 86 89 96 94 95 90 91 90 90 90 90 90 89 89 90 88 88 74 86 87 85 91 91 91 91 90 89 91 90 89 90 93 91 89 93 94 96 97 96 95 91
82 74 82 77 95 95 92 91 88 88 90 91 91 91 91 92 91 90 90 90 89 88 90 88 88 88 90 90 87 87 86 88 88 89 89 88 89 91 93 94 95 94 94
83 77 75 81 85 88 92 92 89 86 90 85 90 89 91 92 92 90 91 91 88 88 88 89 89 89 89 88 87 87 92 89 88 88 88 88 92 89 89 92 90 91 89
85 85 84 78 84 87 86 86 85 83 83 90 91 88 89 90 90 91 91 90 89 89 90 89 88 88 90 89 88 88 90 90 90 90 89 88 88 87 89 87 88 91 91
84 84 82 81 73 73 74 76 74 76 77 78 81 82 87 90 90 87 90 91 89 88 89 89 89 90 90 90 90 89 88 89 91 90 85 88 88 88 87 88 86 89 86
81 82 76 80 81 81 79 82 78 78 73 74 76 76 82 87 87 87 87 90 90 89 88 88 87 90 92 91 85 89 88 88 89 91 91 90 82 77 76 86 86 85 85
77 81 80 80 79 81 82 80 81 80 76 74 76 76 79 81 81 83 85 84 86 88 88 87 87 87 90 64 64 71 88 87 86 86 90 91 86 79 72 71 71 74 81
76 77 78 79 81 82 82 80 78 79 78 73 73 74 75 75 73 74 79 79 81 83 83 83 83 81 78 60 62 67 83 86 85 86 86 86 84 82 85 74 71 70 68
73 72 72 73 74 78 79 80 78 79 76 77 76 75 71 71 73 72 70 72 74 79 78 79 78 77 72 58 59 64 82 83 81 82 81 81 81 70 71 78 85 86 85
67 65 67 67 66 69 73 76 75 75 76 75 76 76 76 72 68 68 70 72 72 73 72 74 76 73 69 55 57 65 81 78 78 78 75 80 76 59 60 78 80 81 83
64 62 61 61 60 60 64 64 63 66 65 67 70 71 73 68 68 68 67 71 70 68 69 70 71 62 68 54 55 61 85 80 80 77 72 59 65 57 57 74 77 76 78
60 60 58 57 59 60 60 58 59 59 62 65 68 69 70 69 70 72 73 70 69 68 68 69 66 64 62 58 54 55 69 72 82 82 81 76 58 55 55 56 74 71 69
57 58 57 56 57 59 58 57 57 60 62 64 67 68 69 70 71 71 67 66 66 66 66 66 69 69 66 56 55 54 55 59 75 71 71 69 55 54 55 63 59 58 61
55 58 58 56 58 59 60 56 58 62 62 63 66 68 72 73 73 71 69 67 66 67 68 72 73 71 70 68 57 56 58 59 69 70 63 58 56 56 58 59 62 61 79
55 56 57 57 57 59 59 60 62 63 63 63 65 69 70 72 74 76 74 74 76 76 76 75 74 72 70 70 68 69 71 63 66 63 67 66 62 60 65 71 74 76 75
59 60 58 56 56 61 61 62 61 64 64 65 67 68 70 73 66 61 56 68 56 53 63 75 75 70 72 60 49 49 63 66 60 58 71 67 67 68 68 67 68 70 70
59 59 59 61 61 60 60 61 65 62 64 64 66 67 74 73 72 68 61 45 45 44 43 43 54 59 47 45 43 42 43 44 47 66 71 69 69 68 66 65 64 66 63

GFSMW_sfc_temp_108.txt.gz
Temp
91 94 94 94 90 90 88 84 82 82 82 82 79 84 79 82 81 82 87 88 89 90 86 86 83 74 73 86 86 85 84 85 87 84 84 85 89 90 88 90 91 90 92
85 91 91 92 91 88 87 86 82 83 83 85 79 82 83 83 82 85 88 85 87 89 87 86 79 80 83 86 86 85 83 85 86 81 79 77 81 87 92 89 92 91 91
79 89 90 89 91 87 86 86 83 84 84 84 83 83 79 84 81 83 86 86 86 88 79 88 80 83 83 84 86 85 82 80 84 86 82 75 74 80 85 87 88 88 88
83 87 90 85 90 88 88 86 85 84 85 81 81 77 82 79 82 84 82 86 86 86 89 90 89 85 75 77 84 87 83 81 80 85 88 85 74 65 73 83 86 87 91
80 85 90 86 90 88 89 88 85 83 82 79 83 83 81 73 74 74 78 85 87 89 87 88 88 87 83 84 86 84 82 82 80 80 83 82 83 77 72 65 74 84 86
76 83 89 85 91 91 91 87 84 82 82 82 81 81 77 74 74 72 73 79 84 86 87 87 86 87 85 80 86 85 83 83 83 82 82 78 71 68 70 66 67 69 74
80 76 87 90 87 85 90 87 83 81 84 83 83 82 82 77 73 75 74 71 76 79 85 86 87 86 85 84 86 85 83 83 82 82 83 83 72 73 72 70 66 66 70
80 79 88 83 82 83 80 88 84 81 83 84 83 84 84 86 81 77 74 70 72 73 83 86 86 86 86 86 86 85 84 84 84 84 82 83 84 84 84 81 77 72 76
83 84 85 81 78 85 80 78 84 84 84 85 84 84 85 86 81 78 76 74 74 74 79 85 87 86 87 87 85 84 82 79 76 83 84 82 83 83 85 83 83 79 74
85 86 84 76 78 83 88 80 78 85 85 86 85 85 85 86 84 80 73 73 71 74 72 76 88 88 84 85 86 82 81 84 84 84 81 84 83 83 84 83 84 82 78
86 86 81 79 75 84 84 85 86 86 86 87 85 85 85 86 86 85 83 76 76 77 76 78 87 87 84 83 85 82 82 83 84 84 82 83 84 82 82 82 82 81 81
88 86 81 78 75 73 81 84 86 87 88 87 86 86 86 86 86 86 84 87 84 84 84 83 83 85 86 86 83 82 82 80 82 84 84 83 87 82 83 82 79 79 81
85 84 82 72 69 68 68 73 78 78 78 81 79 80 86 87 87 84 86 86 85 84 86 85 82 83 83 81 84 83 82 83 83 85 85 83 84 81 80 81 81 81 82
82 84 85 78 72 67 67 72 75 79 78 77 79 74 81 85 86 83 85 86 85 83 85 83 81 82 83 82 85 85 83 83 84 84 84 82 82 82 81 81 79 80 79
83 83 83 83 77 74 73 72 72 77 79 78 77 74 77 82 80 82 84 84 84 83 83 85 83 84 76 72 71 80 84 82 81 83 82 84 79 75 74 80 79 78 78
81 78 81 80 79 77 77 76 77 78 79 76 76 77 76 76 75 77 81 82 81 83 84 82 83 82 70 63 64 68 80 82 82 80 81 80 79 75 73 72 71 72 76
78 77 81 79 78 79 80 78 81 81 78 76 76 77 78 77 74 75 78 75 77 79 80 80 78 72 67 60 61 65 75 79 81 81 81 81 74 70 73 75 72 70 69
69 70 74 75 78 78 77 77 79 77 77 76 77 76 74 74 73 73 76 75 72 72 72 72 72 72 64 58 59 63 73 78 79 77 77 74 67 63 66 72 79 79 80
63 63 63 64 67 68 74 76 76 76 75 76 75 76 75 73 71 69 71 71 70 70 68 68 67 68 61 56 57 63 79 75 69 68 66 70 67 60 60 74 73 74 74
61 61 61 61 60 62 66 65 65 69 69 74 73 74 74 73 72 71 68 71 70 67 65 63 63 63 62 56 56 62 72 73 69 69 65 60 61 58 58 68 70 67 69
58 59 59 58 59 60 61 60 61 60 63 65 68 70 72 72 70 69 71 69 68 67 65 63 61 61 59 58 55 56 64 65 69 71 69 66 58 56 56 57 68 66 63
57 59 57 56 58 60 59 58 58 60 62 63 64 65 68 70 68 66 64 67 66 65 64 63 66 65 63 57 56 56 56 60 69 67 67 66 56 54 56 60 58 58 61
56 57 58 57 57 58 59 57 58 61 61 61 62 64 67 68 69 66 66 65 65 64 64 66 68 67 67 65 58 58 58 59 66 65 61 58 55 56 60 61 60 63 69
55 57 57 56 55 58 58 59 61 61 61 60 62 62 62 62 61 64 67 66 61 64 67 70 70 70 67 66 63 64 65 62 65 64 65 63 62 60 63 64 65 65 63
57 58 56 55 56 59 59 59 60 62 61 61 63 62 63 63 55 54 55 58 50 49 58 57 59 63 64 54 49 49 55 56 53 52 65 64 64 63 61 61 61 61 60
58 57 58 57 57 57 57 59 63 62 60 60 62 61 62 62 63 62 56 46 46 44 43 44 54 52 48 46 44 43 43 44 45 59 65 63 64 63 63 62 62 61 61

GFSMW_sfc_temp_111.txt.gz
Temp
83 84 86 85 83 80 81 80 78 78 77 79 74 75 75 77 77 80 82 82 81 82 80 77 75 73 71 73 79 79 78 78 78 77 77 77 80 80 80 82 82 82 84
82 82 83 83 83 79 79 77 77 76 77 79 75 77 76 76 77 78 80 82 82 82 79 76 74 76 73 77 78 78 76 76 77 71 72 71 68 79 82 80 84 82 84
79 80 81 82 82 79 78 77 79 77 76 78 76 76 75 77 75 78 77 82 82 82 80 78 74 74 74 73 76 77 76 73 76 77 76 70 71 70 75 76 80 74 75
78 82 81 81 82 80 81 79 77 77 77 77 76 75 72 71 73 72 76 79 81 82 81 81 79 77 74 75 75 80 77 75 73 76 82 71 70 63 66 76 74 76 71
79 82 81 83 83 83 80 80 78 75 76 75 76 73 71 71 72 72 73 72 78 83 83 81 80 77 76 75 77 77 76 76 74 73 74 71 69 70 64 62 65 68 70
75 79 80 80 82 84 82 80 77 75 75 74 76 74 72 71 71 71 71 70 72 76 81 81 79 77 77 77 77 76 77 76 76 74 72 70 67 66 65 63 66 64 69
72 74 74 80 82 81 82 79 77 73 75 75 75 75 75 73 73 71 70 69 69 71 71 74 78 78 77 78 77 77 76 76 76 75 77 74 68 68 68 66 65 65 68
74 74 77 79 82 82 81 81 77 74 75 75 75 75 75 71 71 72 71 68 69 71 73 73 79 79 78 79 78 77 76 76 75 76 75 74 75 72 69 68 64 61 65
76 75 77 75 77 81 80 79 77 77 75 78 76 75 75 73 72 72 71 72 70 72 73 74 75 79 79 79 78 76 76 75 75 76 76 75 76 76 77 76 76 75 66
74 76 76 75 76 79 76 78 77 77 78 77 78 77 76 75 73 72 71 69 70 73 72 73 75 78 79 79 78 75 76 75 75 76 76 75 75 77 77 79 75 74 72
77 76 76 76 74 77 76 75 76 76 77 77 79 77 76 77 73 73 71 71 71 71 71 72 73 78 78 78 77 76 77 78 76 76 76 76 76 75 75 75 75 76 76
79 79 76 72 72 71 73 75 76 76 77 77 79 75 77 77 77 76 74 73 71 72 72 73 75 77 77 77 74 76 77 76 75 76 76 76 81 75 74 74 73 74 74
78 75 73 71 70 69 69 69 70 73 76 80 79 79 80 80 78 78 78 75 74 74 76 76 75 76 77 77 77 76 76 76 76 78 77 77 76 74 74 74 73 73 73
79 72 70 69 70 67 67 68 69 70 72 75 75 74 73 78 79 79 81 79 78 76 75 75 76 75 75 72 75 77 76 76 78 79 78 77 79 74 74 74 73 73 72
75 73 70 69 67 66 67 68 69 69 72 71 72 73 75 74 76 77 77 80 76 77 76 75 75 69 69 68 66 69 73 75 76 76 75 76 75 74 73 74 72 72 71
73 74 73 70 68 67 68 69 68 70 73 70 70 72 72 74 73 73 73 73 73 73 75 75 73 66 67 63 65 66 69 74 75 73 73 70 68 69 69 70 70 69 70
65 69 71 71 71 69 68 70 71 72 70 69 70 70 73 73 73 73 73 73 72 72 71 70 65 59 58 60 61 65 67 71 73 72 71 68 68 65 67 69 71 72 68
61 63 64 65 66 72 72 73 73 72 71 70 72 72 70 70 69 70 70 71 71 71 69 68 66 61 61 58 59 62 67 67 65 66 64 62 61 61 63 68 70 70 70
60 61 61 62 63 65 68 71 70 70 70 70 70 70 69 68 68 67 68 69 69 67 65 65 64 62 60 57 58 63 68 65 62 61 64 63 61 60 61 67 66 66 67
57 58 59 60 60 62 64 65 66 67 69 70 70 70 69 68 67 66 66 67 65 63 62 61 64 61 60 57 57 63 68 64 62 62 61 60 60 57 58 63 62 61 62
57 58 58 57 59 60 61 60 62 62 63 66 69 69 69 69 67 66 66 66 65 63 62 61 60 60 60 59 56 57 62 62 65 63 61 60 57 56 56 58 61 60 59
56 57 55 55 57 59 60 59 59 61 63 63 64 65 67 68 66 65 66 63 65 62 61 61 61 60 59 57 56 56 57 62 66 64 64 62 55 54 55 58 57 59 62
55 56 56 56 56 57 59 57 58 60 61 61 61 63 61 64 66 64 64 64 64 64 63 64 63 60 58 57 57 57 58 59 60 61 60 57 56 56 58 58 58 59 59
54 55 55 55 55 57 58 59 59 60 60 59 60 59 54 54 57 60 58 58 57 60 62 63 63 58 57 55 55 55 56 58 57 57 61 59 58 58 57 56 56 56 55
55 56 55 55 55 57 58 58 60 61 59 59 60 59 55 51 51 48 48 52 47 48 54 57 56 58 54 49 47 47 49 47 47 49 54 56 55 54 54 54 55 54 54
55 55 55 55 55 56 56 58 60 60 58 58 60 58 59 57 53 50 46 46 46 45 44 44 50 48 47 46 44 43 43 44 46 50 53 54 53 53 53 53 53 53 54

GFSMW_sfc_temp_114.txt.gz
Temp
79 79 80 81 79 77 75 75 74 74 74 74 72 72 72 74 74 76 79 78 79 79 77 75 74 72 72 72 74 76 77 76 73 74 74 74 77 78 77 79 79 75 74
76 78 79 79 78 76 75 74 74 73 75 75 73 74 73 74 75 76 78 78 79 79 77 75 73 74 73 73 75 75 75 74 74 70 70 70 68 71 77 73 75 70 74
74 76 78 78 78 76 75 75 74 74 74 75 74 73 73 73 72 72 74 80 79 80 77 75 75 74 73 72 74 75 74 72 74 73 72 67 66 66 69 70 71 71 70
76 77 77 77 77 77 77 76 74 74 74 75 73 72 70 70 70 71 72 75 79 79 80 77 76 74 73 73 74 77 74 74 71 73 72 69 68 63 65 69 68 71 72
77 77 77 79 79 79 78 77 73 73 74 74 73 71 70 70 71 71 73 73 73 79 79 78 77 75 74 74 75 74 74 74 72 71 70 68 67 66 63 62 65 68 70
76 78 79 80 79 80 79 77 73 72 73 74 73 72 71 70 70 70 70 70 70 72 74 76 76 75 75 75 75 74 75 74 73 72 70 69 67 67 64 63 64 64 68
73 74 76 77 78 77 77 77 72 71 72 73 73 72 71 70 70 70 69 70 69 71 71 72 74 75 76 76 75 75 74 74 73 73 72 69 69 68 66 64 64 64 67
73 72 75 77 78 78 77 78 74 71 71 72 73 72 73 71 70 70 70 70 69 70 72 73 75 76 76 76 75 74 74 74 73 74 73 71 69 68 68 67 65 63 63
73 74 74 74 77 78 77 77 75 74 72 72 73 72 72 72 71 72 72 71 69 71 72 74 75 75 76 77 75 74 74 74 72 73 73 71 71 70 70 70 67 65 63
72 75 75 73 76 79 78 76 75 75 75 74 74 75 72 72 72 71 70 69 69 70 72 73 73 74 75 76 75 74 74 74 73 75 72 72 72 72 73 74 71 68 68
74 74 75 73 74 77 77 75 74 73 73 75 73 74 72 72 71 71 70 69 69 69 71 72 72 73 75 75 74 73 74 76 74 74 74 75 74 72 73 72 72 71 70
74 75 74 71 71 73 76 75 75 75 76 76 77 73 74 73 72 72 71 70 69 70 71 71 71 72 74 74 73 74 76 74 73 74 73 74 78 73 72 72 72 71 71
74 76 72 69 71 71 72 73 73 74 72 76 74 76 75 73 73 73 71 70 70 70 71 71 71 72 74 72 72 73 72 74 75 74 74 74 73 72 71 72 71 71 71
74 76 71 70 70 70 70 70 69 69 70 71 72 72 73 74 76 76 74 72 72 71 71 72 72 72 70 70 70 71 73 74 73 74 74 74 74 73 72 73 71 71 70
68 70 70 70 69 68 69 70 70 70 70 70 70 71 72 73 73 72 72 73 73 73 73 73 69 68 67 67 66 68 70 72 72 73 74 71 71 69 69 70 70 70 69
62 68 67 67 67 67 67 68 68 70 71 70 70 70 70 71 72 73 74 73 71 70 71 70 67 65 67 62 65 66 68 70 71 70 68 67 68 69 68 67 68 69 69
62 62 66 67 66 67 67 67 66 67 70 70 70 70 71 71 71 71 72 72 70 71 68 66 63 61 60 60 61 65 66 70 70 70 67 67 68 66 68 68 68 67 66
61 61 62 63 64 66 66 68 67 67 69 69 69 70 70 69 69 70 71 71 70 70 68 65 63 60 60 59 60 63 66 65 65 64 62 61 61 62 67 68 67 66 67
60 60 61 61 63 63 66 69 68 69 68 69 69 69 69 68 68 68 68 68 68 67 66 64 61 60 61 58 59 66 64 61 60 61 62 62 61 60 63 66 65 64 64
57 58 59 60 61 60 65 66 67 68 68 68 68 69 68 68 67 67 67 66 65 63 61 60 61 60 61 57 57 65 63 60 61 60 59 60 59 57 58 62 61 61 60
56 57 57 56 59 60 62 61 62 62 65 68 69 68 68 67 66 65 65 63 62 61 59 59 60 61 60 60 56 59 63 60 63 63 62 61 57 55 55 58 61 62 61
56 57 56 56 57 59 60 59 59 61 63 64 64 65 66 67 66 65 63 63 63 61 60 59 60 60 60 57 56 56 58 62 61 59 62 59 54 53 55 58 56 56 58
54 56 56 56 56 57 59 58 59 61 61 59 58 57 56 57 59 63 63 62 62 61 61 60 58 57 59 60 55 54 56 57 60 62 59 54 53 53 55 56 56 56 54
54 56 56 55 56 57 58 59 59 60 61 59 56 55 53 51 52 53 53 54 57 61 63 63 61 60 58 56 55 56 56 55 56 57 59 57 56 56 56 55 54 54 53
55 55 55 54 55 57 58 58 60 61 58 58 57 54 51 50 49 46 48 49 46 47 55 57 62 60 57 54 48 50 52 50 49 50 53 53 52 51 51 51 52 52 51
54 54 54 55 54 52 54 57 59 59 58 58 59 56 53 51 51 49 48 46 46 45 44 45 52 50 49 46 44 43 43 44 46 52 52 51 51 51 50 50 49 49 51

GFSMW_sfc_temp_117.txt.gz
Temp
77 78 78 78 77 74 73 73 72 72 72 72 70 70 71 72 72 76 75 76 76 77 75 71 72 72 72 73 74 74 74 73 71 72 72 71 73 73 72 72 72 72 73
73 75 76 77 76 74 74 72 72 71 72 73 71 72 72 72 73 75 75 75 77 77 76 73 72 72 72 73 74 73 73 72 71 70 68 65 68 69 71 71 73 71 73
71 73 74 75 75 74 73 72 72 72 73 73 72 71 72 71 71 71 71 74 76 77 76 75 73 72 71 72 72 73 73 70 71 69 70 66 64 64 67 69 69 70 71
74 74 74 74 75 76 75 72 71 71 73 72 72 71 69 69 70 70 72 73 75 76 76 76 74 73 72 72 73 75 73 72 70 71 71 67 66 62 63 67 67 69 71
74 74 75 76 76 77 76 74 71 71 72 72 71 71 69 69 69 70 71 72 73 75 78 76 74 73 72 73 74 73 73 72 70 69 68 67 65 64 62 62 64 66 68
74 76 77 77 77 78 76 74 71 70 71 72 71 71 70 69 69 69 70 70 70 71 74 76 74 74 73 73 73 73 74 72 72 70 69 67 66 65 63 62 63 63 66
73 74 74 75 75 75 75 74 72 70 70 72 72 71 71 70 71 70 69 69 69 70 71 73 73 74 74 74 73 73 73 73 72 72 71 68 67 67 64 63 63 64 66
74 74 75 75 75 76 75 75 71 71 69 71 71 71 71 69 69 70 69 69 69 70 71 72 73 74 75 74 73 72 73 72 72 72 71 69 68 67 66 65 65 64 63
73 74 75 75 75 76 75 76 73 73 71 71 71 71 71 70 70 70 69 70 69 71 71 73 73 74 74 74 73 72 73 72 71 72 71 70 69 68 68 68 66 65 63
71 72 74 74 76 77 76 75 74 73 73 71 70 71 71 71 71 70 70 70 69 69 71 72 73 73 74 74 73 72 73 72 71 72 71 71 71 70 70 70 69 68 67
71 72 73 74 75 75 76 74 72 72 72 72 71 71 71 71 71 70 71 70 69 68 69 70 72 72 73 73 72 72 73 73 72 72 71 72 72 71 71 70 70 69 68
74 73 74 72 73 71 75 73 73 73 74 74 73 71 71 71 70 70 70 69 68 67 68 70 71 71 72 71 71 72 74 73 72 73 72 72 75 71 71 70 70 70 69
71 74 74 71 71 71 72 73 73 73 72 74 72 72 71 71 70 70 70 69 69 68 69 70 70 70 72 73 72 72 72 72 73 73 72 73 72 71 70 70 70 69 71
69 69 68 67 71 71 72 73 73 72 72 73 72 71 71 71 72 72 71 70 69 69 68 70 71 71 71 70 71 72 72 72 72 73 73 73 72 71 71 71 70 70 69
64 66 67 69 69 69 71 72 72 72 72 72 72 72 72 72 71 71 71 71 70 70 70 71 70 68 69 68 67 68 71 72 71 72 72 70 70 69 68 70 70 69 68
63 65 65 67 68 69 69 70 70 71 71 71 72 72 70 71 71 71 71 71 70 70 70 70 67 65 66 62 65 65 67 69 70 70 68 67 69 68 67 67 67 69 69
61 62 64 65 65 65 66 67 67 68 69 69 70 70 70 69 70 71 71 70 70 70 68 65 64 62 61 61 62 65 65 67 68 69 66 67 68 67 68 66 66 66 64
60 61 62 64 64 65 66 67 67 67 68 68 69 69 69 69 69 70 70 70 70 69 68 65 63 61 61 60 60 63 65 65 64 64 63 62 63 63 66 66 66 65 65
57 59 60 61 62 64 66 67 67 67 67 68 68 69 69 68 68 68 68 68 69 69 67 65 61 61 61 59 58 64 64 62 61 61 63 63 62 60 63 64 64 63 64
57 56 58 59 60 61 64 67 67 68 67 68 68 69 68 67 67 67 67 66 66 64 62 60 59 59 60 58 58 63 62 59 58 58 60 61 60 59 60 61 61 60 59
56 57 57 56 57 60 63 62 63 63 64 68 68 67 67 67 67 67 66 63 62 62 61 60 61 60 61 58 56 59 61 58 62 62 62 61 57 56 56 58 63 61 60
56 56 56 56 57 59 60 60 59 61 63 64 63 66 66 67 66 64 62 61 61 59 58 57 59 60 60 56 55 56 59 61 59 58 61 59 54 53 54 56 55 57 59
54 56 56 57 57 58 59 58 58 60 58 59 58 57 56 58 60 63 62 61 62 61 60 61 60 59 60 59 55 55 56 58 61 61 58 53 52 53 55 55 56 57 58
54 55 55 54 56 58 58 58 59 60 58 56 56 56 57 56 55 54 54 56 56 61 60 60 59 56 55 57 57 58 58 57 59 58 59 56 55 55 55 56 55 55 55
55 55 55 53 54 56 57 58 59 59 58 56 55 53 53 51 49 47 48 50 46 48 54 53 59 56 57 56 50 53 56 56 52 52 53 52 51 51 50 49 50 50 51
53 53 51 52 53 52 52 53 57 58 57 57 57 54 52 51 51 50 48 47 45 45 43 44 50 51 48 46 44 43 44 45 47 52 52 51 51 50 48 48 48 48 49